Observation Tools

Red maple Photo courtesy of Wikipedia, en.wikipedia.org.

Red maple (Acer rubrum)


Also Known As: Scarlet maple, Swamp maple, Soft maple
Plant Family: Maple (Aceraceae)
Project BudBurst Plant Group: Deciduous Trees and Shrubs

Identification Hints: There are many native and ornamental maples. Red maples are distinctive in having the red flowers emerge a week or more before the leaves. Silver maple (A. saccharinum) has greenish-yellow flowers that emerge well before the leaves and has large 5-lobed leaves with whitish undersides (only 3 main lobes in red maple). The other ornamental maples generally have green undersides of leaves (as contrasted with white or gray in red maple) and usually do not have red flowers.

Did you Know? Because of its brilliant red color in the fall, Red maple is prized as an ornamental. The sap can be used for producing maple syrup, however its sap has only about half of the sugar content as sugar maple. Native Americans used red maple bark as an analgesic, wash for inflamed eyes and cataracts, and as a remedy for hives and muscular aches.


Live Map for Red maple

Other years available for viewing:

Below you can view all observations that have been reported in for Red maple (If the map below is empty then there have not been any observations reported.)

Use the navigation buttons on the left to zoom in/out and pan around. Click on each place marker to get detail information about that observation.

Leaf/Needles/Stalk = Leaf/Needles/Stalk Flower = Flower Pollen = Pollen Fruiting = Fruiting Color = Color

--Back to Top--

close help window button

The table below displays all the data that has been submitted to Project BudBurst. By default, the data is sorted by the date on which the phenophase occurred. Clicking the up and down arrows next to each column name allows you to sort on any value. If there have been more than 10 observations submitted, you can choose how many to display at a time using the "Show __ entries" control. You can also page through the data using the previous and next buttons at the bottom right of the table.

The Search box allows you to search all of the data. Searching by date, species, phenophase, etc. is easy—just start typing and the table will immediately change to contain only observations that contain your search phrase. Do you want to see only 2012 observations? Just type "2012" in the search box. Only want to see maples? Enter "Acer." You can combine searches, too! Searching for "acer 2012" will narrow your results to only the maples that were observed in 2012 (assuming that any observations exist, of course).

Once you have your results in the order desired, you can use any of the buttons above the search box to copy the results to the clipboard; save them as a text, or spreadsheet; or even print them from your browser!

Observational data for Red maple:

help button
Date Contributor Common Name Species Phenophase Latitude Longitude Obs#
Thu Feb 07 00:00:00 GMT 2008 lizsoutendijk Red maple Acer rubrum First Flower 32.780900000000000 -95.378600000000000 4
Sat Feb 16 00:00:00 GMT 2008 lizsoutendijk Red maple Acer rubrum Full Flower 32.780900000000000 -95.378600000000000 5
Thu Feb 07 00:00:00 GMT 2008 hortfarm Red maple Acer rubrum First Flower 33.885800000000000 -83.420500000000000 6
Sat Feb 16 00:00:00 GMT 2008 hortfarm Red maple Acer rubrum Full Flower 33.885800000000000 -83.420500000000000 7
Thu Feb 14 00:00:00 GMT 2008 jde937 Red maple Acer rubrum First Flower 35.776100000000000 -78.752300000000000 18
Mon Feb 18 00:00:00 GMT 2008 anonymous Red maple Acer rubrum First Leaf 38.289800000000000 -77.524200000000000 75
Wed Feb 20 00:00:00 GMT 2008 markcase Red maple Acer rubrum First Flower 35.951300000000000 -79.854500000000000 81
Fri Feb 15 00:00:00 GMT 2008 ncaquarium-ri Red maple Acer rubrum First Flower 35.927500000000000 -75.723500000000000 83
Wed Feb 20 00:00:00 GMT 2008 ncaquarium-ri Red maple Acer rubrum Full Flower 35.927500000000000 -75.723500000000000 84
Sat Feb 16 00:00:00 GMT 2008 Safetybob Red maple Acer rubrum First Leaf 30.865600000000000 -88.195600000000000 116
Tue Feb 26 00:00:00 GMT 2008 anonymous Red maple Acer rubrum First Leaf 33.220000000000000 -80.800000000000000 150
Sun Feb 17 00:00:00 GMT 2008 wildwoods Red maple Acer rubrum First Leaf 34.643200000000000 -94.199800000000000 171
Mon Mar 03 00:00:00 GMT 2008 cpartain Red maple Acer rubrum First Flower 39.362200000000000 -76.680500000000000 226
Wed Feb 20 00:00:00 GMT 2008 rainer Red maple Acer rubrum First Flower 36.295500000000000 -80.141700000000000 280
Sat Feb 23 00:00:00 GMT 2008 rainer Red maple Acer rubrum Full Flower 36.295500000000000 -80.141700000000000 281
Sat Mar 01 00:00:00 GMT 2008 anonymous Red maple Acer rubrum First Leaf 36.000000000000000 -80.000000000000000 282
Wed Feb 20 00:00:00 GMT 2008 thanrose Red maple Acer rubrum First Flower 29.172600000000000 -81.018500000000000 351
Sat Feb 23 00:00:00 GMT 2008 thanrose Red maple Acer rubrum Full Flower 29.172600000000000 -81.018500000000000 352
Fri Mar 07 00:00:00 GMT 2008 rainer Red maple Acer rubrum End of Flowering 36.295500000000000 -80.141700000000000 383
Wed Mar 05 00:00:00 GMT 2008 nielsenm Red maple Acer rubrum First Leaf 39.305000000000000 -121.159000000000000 446
Mon Mar 03 00:00:00 GMT 2008 naturalist Red maple Acer rubrum First Flower 36.070000000000000 -79.500000000000000 483
Fri Feb 29 00:00:00 GMT 2008 naturalist Red maple Acer rubrum First Leaf 36.070000000000000 -79.500000000000000 484
Sat Mar 01 00:00:00 GMT 2008 naturalist Red maple Acer rubrum First Flower 30.510000000000000 -80.220000000000000 487
Wed Mar 05 00:00:00 GMT 2008 naturalist Red maple Acer rubrum First Flower 33.500000000000000 -81.980000000000000 514
Fri Mar 07 00:00:00 GMT 2008 wvtroutbum Red maple Acer rubrum First Flower 38.402700000000000 -81.747800000000000 604
Wed Mar 12 00:00:00 GMT 2008 Yvonne Orkin Red maple Acer rubrum Full Flower 38.953900000000000 -75.933100000000000 643
Wed Mar 19 00:00:00 GMT 2008 Uncle Bear Red maple Acer rubrum First Leaf 35.733400000000000 -81.333200000000000 660
Fri Feb 29 00:00:00 GMT 2008 naturalist Red maple Acer rubrum First Flower 35.220000000000000 -80.800000000000000 663
Mon Mar 10 00:00:00 GMT 2008 naturalist Red maple Acer rubrum Full Flower 35.220000000000000 -80.800000000000000 664
Mon Mar 17 00:00:00 GMT 2008 naturalist Red maple Acer rubrum First Ripe Fruit 35.220000000000000 -80.800000000000000 665
Mon Mar 10 00:00:00 GMT 2008 naturalist Red maple Acer rubrum Full Flower 30.510000000000000 -80.220000000000000 666
Tue Mar 18 00:00:00 GMT 2008 naturalist Red maple Acer rubrum First Ripe Fruit 30.510000000000000 -80.220000000000000 667
Mon Mar 10 00:00:00 GMT 2008 naturalist Red maple Acer rubrum Full Flower 36.070000000000000 -79.500000000000000 668
Tue Mar 18 00:00:00 GMT 2008 naturalist Red maple Acer rubrum First Ripe Fruit 36.070000000000000 -79.500000000000000 669
Mon Mar 10 00:00:00 GMT 2008 naturalist Red maple Acer rubrum Full Flower 33.500000000000000 -81.980000000000000 670
Sat Mar 15 00:00:00 GMT 2008 naturalist Red maple Acer rubrum First Ripe Fruit 33.500000000000000 -81.980000000000000 671
Mon Mar 17 00:00:00 GMT 2008 Joe Cool Red maple Acer rubrum First Leaf 28.981700000000000 -95.940900000000000 699
Wed Mar 19 00:00:00 GMT 2008 Joe Cool Red maple Acer rubrum All Leaves Unfolded 28.981700000000000 -95.940900000000000 700
Mon Mar 17 00:00:00 GMT 2008 cpartain Red maple Acer rubrum First Flower 39.286700000000000 -76.608700000000000 715
Thu Mar 20 00:00:00 GMT 2008 naturelover07 Red maple Acer rubrum Full Flower 33.816200000000000 -83.950600000000000 748
Sat Mar 15 00:00:00 GMT 2008 otter19 Red maple Acer rubrum First Flower 35.760900000000000 -81.332400000000000 860
Sat Mar 22 00:00:00 GMT 2008 otter19 Red maple Acer rubrum Full Flower 35.760900000000000 -81.332400000000000 861
Mon Mar 24 00:00:00 GMT 2008 anonymous Red maple Acer rubrum First Leaf 38.917900000000000 -77.267800000000000 882
Mon Mar 10 00:00:00 GMT 2008 nielsenm Red maple Acer rubrum First Flower 39.305000000000000 -121.159000000000000 925
Sat Mar 15 00:00:00 GMT 2008 nielsenm Red maple Acer rubrum Full Flower 39.305000000000000 -121.159000000000000 926
Sun Mar 23 00:00:00 GMT 2008 wvtroutbum Red maple Acer rubrum Full Flower 38.402700000000000 -81.747800000000000 986
Sun Mar 30 00:00:00 GMT 2008 drhartel Red maple Acer rubrum First Ripe Fruit 34.053600000000000 -83.123100000000000 1028
Thu Mar 20 00:00:00 GMT 2008 sheltonirisd Red maple Acer rubrum First Flower 35.796400000000000 -84.687000000000000 1067
Wed Mar 12 00:00:00 GMT 2008 drhartel Red maple Acer rubrum First Ripe Fruit 33.942600000000000 -83.373700000000000 1169
Mon Mar 10 00:00:00 GMT 2008 marshdoc Red maple Acer rubrum First Leaf 34.263100000000000 -83.744700000000000 1318
Mon Mar 10 00:00:00 GMT 2008 marshdoc Red maple Acer rubrum First Flower 34.263100000000000 -83.744700000000000 1319
Mon Mar 17 00:00:00 GMT 2008 marshdoc Red maple Acer rubrum Full Flower 34.263100000000000 -83.744700000000000 1320
Mon Mar 31 00:00:00 GMT 2008 marshdoc Red maple Acer rubrum End of Flowering 34.263100000000000 -83.744700000000000 1321
Sun Apr 06 00:00:00 GMT 2008 anonymous Red maple Acer rubrum First Leaf 39.340600000000000 -85.203900000000000 1377
Tue Apr 08 00:00:00 GMT 2008 naturalist Red maple Acer rubrum End of Flowering 35.220000000000000 -80.800000000000000 1382
Tue Apr 08 00:00:00 GMT 2008 gmdwilcox Red maple Acer rubrum First Leaf 39.340600000000000 -85.203900000000000 1383
Fri Apr 04 00:00:00 GMT 2008 dkovarik Red maple Acer rubrum First Leaf 47.702900000000000 -122.354000000000000 1445
Thu Apr 10 00:00:00 GMT 2008 Lynora Red maple Acer rubrum First Flower 42.043400000000000 -87.894600000000000 1502
Thu Apr 10 00:00:00 GMT 2008 srstebbi Red maple Acer rubrum First Flower 43.020400000000000 -76.126700000000000 1515
Mon Apr 07 00:00:00 GMT 2008 mcavener Red maple Acer rubrum Full Flower 40.790000000000000 -77.880000000000000 1603
Thu Apr 03 00:00:00 GMT 2008 jenulsh@northhempstead.com Red maple Acer rubrum First Leaf 40.705500000000000 -73.448900000000000 1621
Wed Apr 09 00:00:00 GMT 2008 ajmr Red maple Acer rubrum First Flower 42.285800000000000 -71.337300000000000 1654
Sun Apr 13 00:00:00 GMT 2008 petewsh61 Red maple Acer rubrum First Flower 42.431700000000000 -72.553800000000000 1655
Sun Apr 13 00:00:00 GMT 2008 srstebbi Red maple Acer rubrum Full Flower 43.020400000000000 -76.126700000000000 1659
Thu Apr 10 00:00:00 GMT 2008 dkovarik Red maple Acer rubrum All Leaves Unfolded 47.702900000000000 -122.354000000000000 1673
Sat Apr 12 00:00:00 GMT 2008 Yvonne Orkin Red maple Acer rubrum First Ripe Fruit 38.953900000000000 -75.933100000000000 1674
Tue Apr 08 00:00:00 GMT 2008 engle-hills Red maple Acer rubrum All Leaves Unfolded 37.122100000000000 -76.448600000000000 1739
Thu Mar 27 00:00:00 GMT 2008 Morganarie Red maple Acer rubrum First Leaf 43.444000000000000 -84.015900000000000 1753
Wed Apr 16 00:00:00 GMT 2008 jlewis5 Red maple Acer rubrum First Flower 42.158200000000000 -76.953800000000000 1812
Thu Apr 17 00:00:00 GMT 2008 ribarnica Red maple Acer rubrum First Flower 42.809400000000000 -87.819500000000000 1815
Thu Apr 17 00:00:00 GMT 2008 ribarnica Red maple Acer rubrum Full Flower 42.809400000000000 -87.819500000000000 1816
Thu Apr 17 00:00:00 GMT 2008 Uncle Bear Red maple Acer rubrum First Flower 35.733400000000000 -81.333200000000000 1817
Sat Apr 19 00:00:00 GMT 2008 janp Red maple Acer rubrum First Flower 43.068100000000000 -77.521500000000000 1901
Thu Apr 24 00:00:00 GMT 2008 anonymous Red maple Acer rubrum First Leaf 42.112600000000000 -87.981000000000000 2228
Sun Apr 20 00:00:00 GMT 2008 srstebbi Red maple Acer rubrum End of Flowering 43.020400000000000 -76.126700000000000 2266
Tue Apr 22 00:00:00 GMT 2008 hprice Red maple Acer rubrum First Leaf 41.684200000000000 -86.247200000000000 2409
Sat Apr 26 00:00:00 GMT 2008 hprice Red maple Acer rubrum All Leaves Unfolded 41.684200000000000 -86.247200000000000 2410
Sun Apr 13 00:00:00 GMT 2008 hprice Red maple Acer rubrum First Flower 41.684200000000000 -86.247200000000000 2411
Fri Apr 18 00:00:00 GMT 2008 hprice Red maple Acer rubrum Full Flower 41.684200000000000 -86.247200000000000 2412
Mon Apr 21 00:00:00 GMT 2008 hprice Red maple Acer rubrum End of Flowering 41.684200000000000 -86.247200000000000 2413
Mon Apr 28 00:00:00 GMT 2008 hblarson Red maple Acer rubrum End of Flowering 42.200100000000000 -88.401700000000000 2419
Tue Apr 22 00:00:00 GMT 2008 dthazzard Red maple Acer rubrum First Ripe Fruit 38.752500000000000 -76.956500000000000 2422
Sat Apr 26 00:00:00 GMT 2008 naturalist Red maple Acer rubrum All Leaves Unfolded 35.220000000000000 -80.800000000000000 2439
Fri May 16 00:00:00 GMT 2008 naturalist Red maple Acer rubrum All Leaves Unfolded 30.510000000000000 -80.220000000000000 2521
Tue Apr 15 00:00:00 GMT 2008 naturalist Red maple Acer rubrum All Leaves Unfolded 33.500000000000000 -81.980000000000000 2522
Mon Apr 21 00:00:00 GMT 2008 ironpeasantfarm Red maple Acer rubrum First Leaf 43.368100000000000 -71.099100000000000 2579
Sun Apr 27 00:00:00 GMT 2008 ironpeasantfarm Red maple Acer rubrum First Flower 43.368100000000000 -71.099100000000000 2580
Wed Apr 23 00:00:00 GMT 2008 IlexAcer Red maple Acer rubrum First Leaf 42.414800000000000 -71.215700000000000 2610
Tue Apr 22 00:00:00 GMT 2008 greemedogs Red maple Acer rubrum First Leaf 41.812100000000000 -72.844100000000000 2656
Sun May 04 00:00:00 GMT 2008 hblarson Red maple Acer rubrum First Leaf 42.200100000000000 -88.401700000000000 2797
Fri Apr 25 00:00:00 GMT 2008 alliebunge Red maple Acer rubrum First Leaf 43.673900000000000 -92.083300000000000 2975
Thu May 01 00:00:00 GMT 2008 thezeldavross Red maple Acer rubrum First Leaf 39.582700000000000 -77.603700000000000 3156
Sat May 03 00:00:00 GMT 2008 thezeldavross Red maple Acer rubrum All Leaves Unfolded 39.582700000000000 -77.603700000000000 3157
Wed Apr 30 00:00:00 GMT 2008 anonymous Red maple Acer rubrum First Leaf 42.000000000000000 -71.000000000000000 3741
Mon May 12 00:00:00 GMT 2008 anonymous Red maple Acer rubrum All Leaves Unfolded 42.000000000000000 -71.000000000000000 3742
Wed Apr 16 00:00:00 GMT 2008 anonymous Red maple Acer rubrum First Flower 42.000000000000000 -71.000000000000000 3743
Wed Apr 30 00:00:00 GMT 2008 anonymous Red maple Acer rubrum Full Flower 42.000000000000000 -71.000000000000000 3744
Mon May 12 00:00:00 GMT 2008 anonymous Red maple Acer rubrum End of Flowering 42.000000000000000 -71.000000000000000 3745
Sun May 25 00:00:00 GMT 2008 hblarson Red maple Acer rubrum First Ripe Fruit 42.200100000000000 -88.401700000000000 3802
Sat May 17 00:00:00 GMT 2008 cpartain Red maple Acer rubrum First Ripe Fruit 39.362200000000000 -76.680500000000000 3804
Wed Mar 19 00:00:00 GMT 2008 vanndawn Red maple Acer rubrum First Flower 38.912500000000000 -92.277500000000000 4371
Mon Mar 24 00:00:00 GMT 2008 vanndawn Red maple Acer rubrum Full Flower 38.912500000000000 -92.277500000000000 4372
Mon Apr 14 00:00:00 GMT 2008 vanndawn Red maple Acer rubrum End of Flowering 38.912500000000000 -92.277500000000000 4373
Tue May 06 00:00:00 GMT 2008 vanndawn Red maple Acer rubrum First Ripe Fruit 38.912500000000000 -92.277500000000000 4374
Tue Nov 18 00:00:00 GMT 2008 anonymous Red maple Acer rubrum First Leaf 42.444600000000000 -76.499300000000000 4759
Sun Apr 20 00:00:00 GMT 2008 anonymous Red maple Acer rubrum First Leaf 40.699000000000000 -79.741700000000000 4847
Wed Apr 30 00:00:00 GMT 2008 anonymous Red maple Acer rubrum All Leaves Unfolded 40.699000000000000 -79.741700000000000 4848
Tue Apr 08 00:00:00 GMT 2008 anonymous Red maple Acer rubrum First Flower 40.699000000000000 -79.741700000000000 4849
Wed Apr 16 00:00:00 GMT 2008 anonymous Red maple Acer rubrum Full Flower 40.699000000000000 -79.741700000000000 4850
Sun Apr 20 00:00:00 GMT 2008 anonymous Red maple Acer rubrum End of Flowering 40.699000000000000 -79.741700000000000 4851
Wed Jan 16 00:00:00 GMT 2008 annhightower Red maple Acer rubrum First Flower 29.791900000000000 -95.578800000000000 4859
Tue Feb 24 00:00:00 GMT 2009 anonymous Red maple Acer rubrum Full Flower 33.760000000000000 -84.315800000000000 4914
Sun Feb 15 00:00:00 GMT 2009 anonymous Red maple Acer rubrum First Flower 34.293000000000000 -94.180900000000000 4916
Fri Feb 27 00:00:00 GMT 2009 anonymous Red maple Acer rubrum First Flower 38.776700000000000 -76.564600000000000 4920
Wed Mar 04 00:00:00 GMT 2009 acooke Red maple Acer rubrum First Flower 35.879100000000000 -79.071500000000000 4987
Wed Mar 11 00:00:00 GMT 2009 acooke Red maple Acer rubrum Full Flower 35.879100000000000 -79.071500000000000 4988
Tue Mar 10 00:00:00 GMT 2009 cmgrant@mymail.aacc.edu Red maple Acer rubrum First Flower 39.167200000000000 -76.750400000000000 4996
Fri Mar 13 00:00:00 GMT 2009 cmgrant@mymail.aacc.edu Red maple Acer rubrum Full Flower 39.167200000000000 -76.750400000000000 4997
Wed Mar 11 00:00:00 GMT 2009 momck Red maple Acer rubrum First Flower 40.064400000000000 -80.717900000000000 4998
Tue Mar 10 00:00:00 GMT 2009 lmkelley Red maple Acer rubrum Full Flower 42.304700000000000 -71.122900000000000 4990
Sun May 11 00:00:00 GMT 2008 gardeningguy Red maple Acer rubrum First Leaf 41.137200000000000 -104.740000000000000 5028
Fri May 16 00:00:00 GMT 2008 gardeningguy Red maple Acer rubrum All Leaves Unfolded 41.137200000000000 -104.740000000000000 5029
Fri May 30 00:00:00 GMT 2008 gardeningguy Red maple Acer rubrum First Flower 41.137200000000000 -104.740000000000000 5030
Sun Jun 08 00:00:00 GMT 2008 gardeningguy Red maple Acer rubrum Full Flower 41.137200000000000 -104.740000000000000 5031
Sun Jun 22 00:00:00 GMT 2008 gardeningguy Red maple Acer rubrum End of Flowering 41.137200000000000 -104.740000000000000 5032
Fri Sep 12 00:00:00 GMT 2008 gardeningguy Red maple Acer rubrum First Ripe Fruit 41.137200000000000 -104.740000000000000 5033
Sun Jun 08 00:00:00 GMT 2008 gardeningguy Red maple Acer rubrum 50% Color 41.137200000000000 -104.740000000000000 5034
Mon May 19 00:00:00 GMT 2008 gardeningguy Red maple Acer rubrum First Leaf 41.137200000000000 -104.740000000000000 5027
Thu Mar 12 00:00:00 GMT 2009 forestguardian Red maple Acer rubrum First Flower 41.383900000000000 -73.914700000000000 5073
Mon Mar 16 00:00:00 GMT 2009 momck Red maple Acer rubrum Full Flower 40.064400000000000 -80.717900000000000 5047
Fri Mar 06 00:00:00 GMT 2009 michghi Red maple Acer rubrum First Leaf 41.974800000000000 -87.804600000000000 5053
Sat Mar 14 00:00:00 GMT 2009 duneslearningcenter Red maple Acer rubrum First Flower 41.602600000000000 -87.050500000000000 5085
Fri Mar 13 00:00:00 GMT 2009 dziekons Red maple Acer rubrum First Flower 36.342200000000000 -88.151900000000000 5094
Tue Mar 17 00:00:00 GMT 2009 dziekons Red maple Acer rubrum Full Flower 36.342200000000000 -88.151900000000000 5095
Fri Mar 13 00:00:00 GMT 2009 dziekons Red maple Acer rubrum First Flower 36.342200000000000 -88.151900000000000 5096
Tue Mar 17 00:00:00 GMT 2009 dziekons Red maple Acer rubrum Full Flower 36.342200000000000 -88.151900000000000 5097
Fri Mar 06 00:00:00 GMT 2009 annhightower Red maple Acer rubrum First Leaf 29.791900000000000 -95.578800000000000 5104
Fri Jan 23 00:00:00 GMT 2009 annhightower Red maple Acer rubrum First Flower 29.791900000000000 -95.578800000000000 5105
Fri Feb 06 00:00:00 GMT 2009 annhightower Red maple Acer rubrum Full Flower 29.791900000000000 -95.578800000000000 5106
Sat Mar 14 00:00:00 GMT 2009 billmiky Red maple Acer rubrum First Flower 40.663900000000000 -73.969900000000000 5108
Fri Mar 20 00:00:00 GMT 2009 amt27 Red maple Acer rubrum Full Flower 40.264700000000000 -74.955800000000000 5312
Thu Apr 02 00:00:00 GMT 2009 srstebbi Red maple Acer rubrum First Flower 43.020400000000000 -76.126700000000000 5370
Mon Mar 16 00:00:00 GMT 2009 taittems Red maple Acer rubrum First Flower 42.405600000000000 -82.911700000000000 5371
Tue Mar 17 00:00:00 GMT 2009 taittems Red maple Acer rubrum Full Flower 42.405600000000000 -82.911700000000000 5372
Fri Apr 03 00:00:00 GMT 2009 srstebbi Red maple Acer rubrum Full Flower 43.020400000000000 -76.126700000000000 5392
Fri Mar 20 00:00:00 GMT 2009 papilion Red maple Acer rubrum First Leaf 37.249900000000000 -76.658800000000000 5395
Sun Feb 15 00:00:00 GMT 2009 papilion Red maple Acer rubrum First Flower 37.249900000000000 -76.658800000000000 5396
Mon Feb 16 00:00:00 GMT 2009 papilion Red maple Acer rubrum Full Flower 37.249900000000000 -76.658800000000000 5397
Thu Feb 26 00:00:00 GMT 2009 papilion Red maple Acer rubrum End of Flowering 37.249900000000000 -76.658800000000000 5398
Wed Mar 04 00:00:00 GMT 2009 papilion Red maple Acer rubrum First Ripe Fruit 37.249900000000000 -76.658800000000000 5399
Sat Apr 04 00:00:00 GMT 2009 mdunn Red maple Acer rubrum First Leaf 35.757100000000000 -79.107000000000000 5442
Mon Apr 06 00:00:00 GMT 2009 retiredsgt Red maple Acer rubrum First Leaf 39.926500000000000 -76.650100000000000 5474
Sat Apr 04 00:00:00 GMT 2009 newquarterpark Red maple Acer rubrum First Leaf 37.282000000000000 -76.657600000000000 5601
Sat Mar 07 00:00:00 GMT 2009 newquarterpark Red maple Acer rubrum First Flower 37.282000000000000 -76.657600000000000 5602
Fri Mar 20 00:00:00 GMT 2009 newquarterpark Red maple Acer rubrum Full Flower 37.282000000000000 -76.657600000000000 5603
Thu Apr 02 00:00:00 GMT 2009 momck Red maple Acer rubrum End of Flowering 40.064400000000000 -80.717900000000000 5625
Sat Apr 04 00:00:00 GMT 2009 brm@hvc.rr.com Red maple Acer rubrum First Flower 41.422700000000000 -74.084600000000000 5681
Tue Apr 07 00:00:00 GMT 2009 brm@hvc.rr.com Red maple Acer rubrum Full Flower 41.422700000000000 -74.084600000000000 5682
Mon Mar 23 00:00:00 GMT 2009 anonymous Red maple Acer rubrum First Leaf 39.160000000000000 -86.490000000000000 5732
Thu Apr 16 00:00:00 GMT 2009 compobs Red maple Acer rubrum First Flower 45.379400000000000 -93.076700000000000 5778
Fri Apr 17 00:00:00 GMT 2009 compobs Red maple Acer rubrum Full Flower 45.379400000000000 -93.076700000000000 5779
Wed Apr 08 00:00:00 GMT 2009 papilion Red maple Acer rubrum All Leaves Unfolded 37.249900000000000 -76.658800000000000 5831
Sat Mar 21 00:00:00 GMT 2009 anonymous Red maple Acer rubrum First Leaf 39.153400000000000 -86.490800000000000 6055
Mon Apr 06 00:00:00 GMT 2009 anonymous Red maple Acer rubrum All Leaves Unfolded 39.153400000000000 -86.490800000000000 6056
Tue Feb 10 00:00:00 GMT 2009 anonymous Red maple Acer rubrum First Flower 39.165300000000000 -86.526400000000000 5835
Tue Feb 17 00:00:00 GMT 2009 anonymous Red maple Acer rubrum Full Flower 39.165300000000000 -86.526400000000000 5836
Wed Feb 25 00:00:00 GMT 2009 anonymous Red maple Acer rubrum End of Flowering 39.165300000000000 -86.526400000000000 5837
Wed Feb 25 00:00:00 GMT 2009 anonymous Red maple Acer rubrum First Ripe Fruit 39.165300000000000 -86.526400000000000 5838
Sun Mar 22 00:00:00 GMT 2009 anonymous Red maple Acer rubrum First Flower 39.160000000000000 -86.490000000000000 6243
Tue Mar 31 00:00:00 GMT 2009 anonymous Red maple Acer rubrum First Leaf 39.160000000000000 -86.490000000000000 6299
Mon Mar 23 00:00:00 GMT 2009 anonymous Red maple Acer rubrum First Flower 39.160000000000000 -86.460000000000000 6271
Mon Mar 30 00:00:00 GMT 2009 anonymous Red maple Acer rubrum Full Flower 39.160000000000000 -86.460000000000000 6272
Mon Apr 06 00:00:00 GMT 2009 anonymous Red maple Acer rubrum End of Flowering 39.160000000000000 -86.460000000000000 6273
Wed Apr 08 00:00:00 GMT 2009 jenulsh@northhempstead.com Red maple Acer rubrum First Flower 40.705500000000000 -73.448900000000000 6376
Mon Apr 20 00:00:00 GMT 2009 cbooth Red maple Acer rubrum All Leaves Unfolded 33.735900000000000 -84.376500000000000 6356
Fri Apr 17 00:00:00 GMT 2009 anonymous Red maple Acer rubrum First Leaf 39.000000000000000 -86.000000000000000 6366
Fri Mar 20 00:00:00 GMT 2009 anonymous Red maple Acer rubrum First Flower 39.000000000000000 -86.000000000000000 6367
Mon Mar 23 00:00:00 GMT 2009 anonymous Red maple Acer rubrum Full Flower 39.000000000000000 -86.000000000000000 6368
Tue Mar 24 00:00:00 GMT 2009 davisse Red maple Acer rubrum First Leaf 39.160000000000000 -86.490000000000000 6307
Thu Apr 23 00:00:00 GMT 2009 michghi Red maple Acer rubrum All Leaves Unfolded 41.974800000000000 -87.804600000000000 6449
Sat Apr 18 00:00:00 GMT 2009 kworthi274 Red maple Acer rubrum First Flower 41.441200000000000 -87.233500000000000 6504
Thu Apr 23 00:00:00 GMT 2009 giesap Red maple Acer rubrum First Leaf 42.437000000000000 -83.488200000000000 6466
Tue Apr 21 00:00:00 GMT 2009 chagen Red maple Acer rubrum First Leaf 40.165600000000000 -75.227200000000000 6478
Tue Apr 21 00:00:00 GMT 2009 youngdianne Red maple Acer rubrum First Leaf 43.548600000000000 -85.085600000000000 6609
Sat Apr 25 00:00:00 GMT 2009 srstebbi Red maple Acer rubrum End of Flowering 43.020400000000000 -76.126700000000000 6668
Thu Apr 23 00:00:00 GMT 2009 greemedogs Red maple Acer rubrum First Leaf 41.812100000000000 -72.844100000000000 6696
Fri Mar 27 00:00:00 GMT 2009 greemedogs Red maple Acer rubrum First Flower 41.812100000000000 -72.844100000000000 6697
Thu Apr 02 00:00:00 GMT 2009 greemedogs Red maple Acer rubrum Full Flower 41.812100000000000 -72.844100000000000 6698
Wed Apr 22 00:00:00 GMT 2009 greemedogs Red maple Acer rubrum End of Flowering 41.812100000000000 -72.844100000000000 6699
Sat Apr 25 00:00:00 GMT 2009 Mr. Buck's Class Red maple Acer rubrum First Leaf 44.551300000000000 -70.454600000000000 6775
Fri May 01 00:00:00 GMT 2009 CBG Scouts Red maple Acer rubrum First Flower 42.152400000000000 -87.785100000000000 6873
Fri May 01 00:00:00 GMT 2009 CBG Scouts Red maple Acer rubrum First Leaf 42.152400000000000 -87.785100000000000 6881
Fri May 01 00:00:00 GMT 2009 CBG Scouts Red maple Acer rubrum First Flower 42.152400000000000 -87.785700000000000 6883
Fri May 01 00:00:00 GMT 2009 CBG Scouts Red maple Acer rubrum Full Flower 42.152400000000000 -87.785100000000000 6880
Fri May 01 00:00:00 GMT 2009 momck Red maple Acer rubrum First Leaf 40.064400000000000 -80.717900000000000 6889
Sun May 03 00:00:00 GMT 2009 compobs Red maple Acer rubrum First Leaf 45.379400000000000 -93.076700000000000 7012
Sat Apr 25 00:00:00 GMT 2009 compobs Red maple Acer rubrum End of Flowering 45.379400000000000 -93.076700000000000 7013
Fri Mar 06 00:00:00 GMT 2009 michghi Red maple Acer rubrum First Flower 41.974800000000000 -87.804600000000000 7206
Wed Apr 15 00:00:00 GMT 2009 anonymous Red maple Acer rubrum First Leaf 42.647000000000000 -71.535600000000000 7169
Fri Apr 17 00:00:00 GMT 2009 anonymous Red maple Acer rubrum First Flower 42.647000000000000 -71.535600000000000 7170
Mon Apr 27 00:00:00 GMT 2009 anonymous Red maple Acer rubrum Full Flower 42.647000000000000 -71.535600000000000 7171
Mon May 11 00:00:00 GMT 2009 anonymous Red maple Acer rubrum End of Flowering 42.647000000000000 -71.535600000000000 7172
Thu Apr 30 00:00:00 GMT 2009 anonymous Red maple Acer rubrum First Leaf 42.647000000000000 -71.535600000000000 7165
Wed Apr 15 00:00:00 GMT 2009 anonymous Red maple Acer rubrum First Flower 42.647000000000000 -71.535600000000000 7166
Mon Apr 27 00:00:00 GMT 2009 anonymous Red maple Acer rubrum Full Flower 42.647000000000000 -71.535600000000000 7167
Fri May 08 00:00:00 GMT 2009 anonymous Red maple Acer rubrum End of Flowering 42.647000000000000 -71.535600000000000 7168
Fri Apr 17 00:00:00 GMT 2009 anonymous Red maple Acer rubrum First Leaf 42.647000000000000 -71.535600000000000 7179
Mon Apr 27 00:00:00 GMT 2009 anonymous Red maple Acer rubrum All Leaves Unfolded 42.647000000000000 -71.535600000000000 7180
Sat Apr 04 00:00:00 GMT 2009 anonymous Red maple Acer rubrum First Flower 42.647000000000000 -71.535600000000000 7181
Fri May 08 00:00:00 GMT 2009 anonymous Red maple Acer rubrum End of Flowering 42.647000000000000 -71.535600000000000 7182
Fri May 08 00:00:00 GMT 2009 anonymous Red maple Acer rubrum First Leaf 42.647000000000000 -71.535600000000000 7177
Fri May 08 00:00:00 GMT 2009 anonymous Red maple Acer rubrum All Leaves Unfolded 42.647000000000000 -71.535600000000000 7178
Mon Apr 27 00:00:00 GMT 2009 anonymous Red maple Acer rubrum First Leaf 42.647000000000000 -71.535600000000000 7196
Fri May 08 00:00:00 GMT 2009 anonymous Red maple Acer rubrum All Leaves Unfolded 42.647000000000000 -71.535600000000000 7197
Fri May 08 00:00:00 GMT 2009 anonymous Red maple Acer rubrum All Leaves Unfolded 42.647000000000000 -71.535600000000000 7198
Mon Apr 27 00:00:00 GMT 2009 anonymous Red maple Acer rubrum First Leaf 42.647000000000000 -71.535600000000000 7203
Fri May 08 00:00:00 GMT 2009 anonymous Red maple Acer rubrum All Leaves Unfolded 42.647000000000000 -71.535600000000000 7204
Sat May 09 00:00:00 GMT 2009 momck Red maple Acer rubrum All Leaves Unfolded 40.064400000000000 -80.717900000000000 7218
Tue Apr 28 00:00:00 GMT 2009 wasatchrider Red maple Acer rubrum First Leaf 41.902300000000000 -72.934800000000000 7323
Tue Apr 28 00:00:00 GMT 2009 wasatchrider Red maple Acer rubrum All Leaves Unfolded 41.902300000000000 -72.934800000000000 7324
Wed Apr 22 00:00:00 GMT 2009 anonymous Red maple Acer rubrum First Leaf 35.080200000000000 -80.775200000000000 7402
Wed Apr 29 00:00:00 GMT 2009 anonymous Red maple Acer rubrum All Leaves Unfolded 35.080200000000000 -80.775200000000000 7403
Tue Mar 31 00:00:00 GMT 2009 anonymous Red maple Acer rubrum First Flower 35.080200000000000 -80.775200000000000 7404
Wed Apr 08 00:00:00 GMT 2009 anonymous Red maple Acer rubrum Full Flower 35.080200000000000 -80.775200000000000 7405
Sun Mar 15 00:00:00 GMT 2009 mburtonharrell Red maple Acer rubrum First Leaf 35.074000000000000 -80.805500000000000 7406
Thu Apr 09 00:00:00 GMT 2009 mburtonharrell Red maple Acer rubrum All Leaves Unfolded 35.074000000000000 -80.805500000000000 7407
Fri Apr 03 00:00:00 GMT 2009 mburtonharrell Red maple Acer rubrum First Flower 35.074000000000000 -80.805500000000000 7408
Wed Apr 15 00:00:00 GMT 2009 mburtonharrell Red maple Acer rubrum Full Flower 35.074000000000000 -80.805500000000000 7409
Tue Apr 21 00:00:00 GMT 2009 mburtonharrell Red maple Acer rubrum End of Flowering 35.074000000000000 -80.805500000000000 7410
Mon Apr 27 00:00:00 GMT 2009 info@burlingtongolfcenter.com Red maple Acer rubrum First Leaf 41.776100000000000 -73.009600000000000 7513
Mon Apr 13 00:00:00 GMT 2009 info@burlingtongolfcenter.com Red maple Acer rubrum All Leaves Unfolded 41.776100000000000 -73.009600000000000 7514
Thu Mar 05 00:00:00 GMT 2009 cgale Red maple Acer rubrum First Leaf 44.974900000000000 -87.804600000000000 7519
Thu May 14 00:00:00 GMT 2009 cgale Red maple Acer rubrum All Leaves Unfolded 44.974900000000000 -87.804600000000000 7520
Thu May 14 00:00:00 GMT 2009 cgale Red maple Acer rubrum First Flower 44.974900000000000 -87.804600000000000 7521
Thu May 14 00:00:00 GMT 2009 derpsu Red maple Acer rubrum First Leaf 47.152300000000000 -114.016000000000000 7579
Sun May 10 00:00:00 GMT 2009 derpsu Red maple Acer rubrum All Leaves Unfolded 47.152300000000000 -114.016000000000000 7639
Fri May 15 00:00:00 GMT 2009 michghi Red maple Acer rubrum Full Flower 41.974800000000000 -87.804600000000000 7678
Tue May 12 00:00:00 GMT 2009 dutchearthmom Red maple Acer rubrum First Leaf 43.402700000000000 -76.430700000000000 7992
Wed May 20 00:00:00 GMT 2009 dutchearthmom Red maple Acer rubrum All Leaves Unfolded 43.402700000000000 -76.430700000000000 7993
Mon Apr 13 00:00:00 GMT 2009 andersnl Red maple Acer rubrum First Leaf 35.501800000000000 -80.859500000000000 8022
Fri May 15 00:00:00 GMT 2009 andersnl Red maple Acer rubrum All Leaves Unfolded 35.501800000000000 -80.859500000000000 8023
Sat May 23 00:00:00 GMT 2009 compobs Red maple Acer rubrum First Ripe Fruit 45.379400000000000 -93.076700000000000 8259
Sat Apr 18 00:00:00 GMT 2009 palaback Red maple Acer rubrum First Flower 46.866700000000000 -113.983000000000000 8636
Wed Sep 30 00:00:00 GMT 2009 palaback Red maple Acer rubrum 50% Color 46.866700000000000 -113.983000000000000 8637
Tue May 19 00:00:00 GMT 2009 palaback Red maple Acer rubrum First Leaf 46.866700000000000 -113.983000000000000 8744
Thu Sep 17 00:00:00 GMT 2009 NBoeyink Red maple Acer rubrum 50% Color 45.126200000000000 -95.087700000000000 8773
Tue Sep 15 00:00:00 GMT 2009 NBoeyink Red maple Acer rubrum 50% Leaf Fall 45.126200000000000 -95.087700000000000 8774
Wed Mar 10 00:00:00 GMT 2010 balthazar Red maple Acer rubrum Full Flower 45.323000000000000 -122.574000000000000 9147
Tue Mar 09 00:00:00 GMT 2010 balthazar Red maple Acer rubrum Full Flower 45.521100000000000 -122.625000000000000 9141
Sun Feb 28 00:00:00 GMT 2010 balthazar Red maple Acer rubrum First Flower 45.323000000000000 -122.574000000000000 9146
Wed Mar 03 00:00:00 GMT 2010 anonymous Red maple Acer rubrum First Flower 35.588300000000000 -81.980400000000000 9160
Thu Mar 04 00:00:00 GMT 2010 ashenk Red maple Acer rubrum First Flower 33.802700000000000 -83.308600000000000 9189
Thu Mar 18 00:00:00 GMT 2010 Jessica Red maple Acer rubrum Full Flower 38.870700000000000 -77.255300000000000 9196
Tue Mar 16 00:00:00 GMT 2010 sandrah Red maple Acer rubrum First Flower 39.954600000000000 -75.167000000000000 9238
Thu Mar 25 00:00:00 GMT 2010 greemedogs Red maple Acer rubrum Full Flower 41.812100000000000 -72.844100000000000 9259
Wed Mar 17 00:00:00 GMT 2010 swsk Red maple Acer rubrum First Flower 42.336200000000000 -71.225800000000000 9267
Wed Mar 24 00:00:00 GMT 2010 mrsbornholdt Red maple Acer rubrum First Leaf 41.974000000000000 -87.804700000000000 9289
Fri Mar 26 00:00:00 GMT 2010 Our Changing World Red maple Acer rubrum First Leaf 36.010200000000000 -79.024600000000000 9290
Tue Mar 30 00:00:00 GMT 2010 palaback Red maple Acer rubrum First Flower 46.836600000000000 -114.011000000000000 9336
Tue Mar 30 00:00:00 GMT 2010 gracebcb Red maple Acer rubrum First Flower 44.312800000000000 -72.773900000000000 9330
Fri Mar 19 00:00:00 GMT 2010 amt27 Red maple Acer rubrum First Flower 40.264700000000000 -74.955800000000000 9370
Wed Mar 24 00:00:00 GMT 2010 amt27 Red maple Acer rubrum Full Flower 40.264700000000000 -74.955800000000000 9371
Thu Apr 01 00:00:00 GMT 2010 robinsleith Red maple Acer rubrum Full Flower 42.288800000000000 -71.101100000000000 9369
Thu Apr 01 00:00:00 GMT 2010 Derek McKay Red maple Acer rubrum First Flower 45.317400000000000 -92.158900000000000 9376
Fri Apr 02 00:00:00 GMT 2010 jacktcb Red maple Acer rubrum First Flower 44.312800000000000 -72.773900000000000 9354
Fri Apr 02 00:00:00 GMT 2010 mstefanak@mahoning-health.org Red maple Acer rubrum Full Flower 41.155900000000000 -80.412900000000000 9415
Thu Mar 18 00:00:00 GMT 2010 mstefanak@mahoning-health.org Red maple Acer rubrum First Flower 41.155900000000000 -80.412900000000000 9414
Sat Apr 03 00:00:00 GMT 2010 Derek McKay Red maple Acer rubrum Full Flower 45.317400000000000 -92.158900000000000 9408
Thu Apr 01 00:00:00 GMT 2010 daboot_24 Red maple Acer rubrum First Flower 44.548900000000000 -70.451500000000000 9412
Wed Mar 31 00:00:00 GMT 2010 wmoore Red maple Acer rubrum First Flower 44.306800000000000 -72.645000000000000 9433
Sat Apr 03 00:00:00 GMT 2010 wmoore Red maple Acer rubrum Full Flower 44.306800000000000 -72.645000000000000 9434
Mon Apr 05 00:00:00 GMT 2010 henrehcb Red maple Acer rubrum Full Flower 44.312800000000000 -72.773900000000000 9437
Mon Apr 05 00:00:00 GMT 2010 anonymous Red maple Acer rubrum Full Flower 43.137900000000000 -72.509800000000000 9458
Mon Apr 05 00:00:00 GMT 2010 elliercb Red maple Acer rubrum Full Flower 44.312800000000000 -72.773900000000000 9436
Sat Apr 03 00:00:00 GMT 2010 anonymous Red maple Acer rubrum First Flower 42.038100000000000 -79.283300000000000 9461
Mon Apr 05 00:00:00 GMT 2010 daboot_24 Red maple Acer rubrum Full Flower 44.548900000000000 -70.451500000000000 9487
Mon Apr 05 00:00:00 GMT 2010 daboot_24 Red maple Acer rubrum Full Flower 44.548900000000000 -70.451500000000000 9486
Fri Mar 12 00:00:00 GMT 2010 anonymous Red maple Acer rubrum First Leaf 39.160600000000000 -86.532400000000000 9570
Fri Mar 12 00:00:00 GMT 2010 anonymous Red maple Acer rubrum First Leaf 39.160600000000000 -86.532400000000000 9580
Fri Mar 12 00:00:00 GMT 2010 anonymous Red maple Acer rubrum First Leaf 39.165300000000000 -86.526400000000000 9587
Sun Mar 21 00:00:00 GMT 2010 anonymous Red maple Acer rubrum All Leaves Unfolded 39.165300000000000 -86.526400000000000 9588
Fri Feb 19 00:00:00 GMT 2010 anonymous Red maple Acer rubrum First Flower 39.165300000000000 -86.526400000000000 9589
Fri Mar 05 00:00:00 GMT 2010 anonymous Red maple Acer rubrum Full Flower 39.165300000000000 -86.526400000000000 9590
Fri Mar 12 00:00:00 GMT 2010 anonymous Red maple Acer rubrum End of Flowering 39.165300000000000 -86.526400000000000 9591
Fri Mar 12 00:00:00 GMT 2010 anonymous Red maple Acer rubrum First Leaf 39.165300000000000 -86.526400000000000 9581
Sun Mar 21 00:00:00 GMT 2010 anonymous Red maple Acer rubrum All Leaves Unfolded 39.165300000000000 -86.526400000000000 9582
Fri Feb 19 00:00:00 GMT 2010 anonymous Red maple Acer rubrum First Flower 39.165300000000000 -86.526400000000000 9583
Fri Mar 05 00:00:00 GMT 2010 anonymous Red maple Acer rubrum Full Flower 39.165300000000000 -86.526400000000000 9584
Fri Mar 12 00:00:00 GMT 2010 anonymous Red maple Acer rubrum End of Flowering 39.165300000000000 -86.526400000000000 9585
Sun Mar 21 00:00:00 GMT 2010 anonymous Red maple Acer rubrum First Ripe Fruit 39.165300000000000 -86.526400000000000 9586
Wed Mar 10 00:00:00 GMT 2010 anonymous Red maple Acer rubrum First Leaf 39.180000000000000 -86.540700000000000 9721
Fri Apr 02 00:00:00 GMT 2010 anonymous Red maple Acer rubrum All Leaves Unfolded 39.180000000000000 -86.540700000000000 9722
Fri Apr 02 00:00:00 GMT 2010 anonymous Red maple Acer rubrum First Flower 39.180000000000000 -86.540700000000000 9723
Sat Apr 10 00:00:00 GMT 2010 anonymous Red maple Acer rubrum Full Flower 39.180000000000000 -86.540700000000000 9724
Mon Mar 08 00:00:00 GMT 2010 anonymous Red maple Acer rubrum First Leaf 39.180000000000000 -86.540700000000000 9704
Sun Apr 04 00:00:00 GMT 2010 anonymous Red maple Acer rubrum All Leaves Unfolded 39.180000000000000 -86.540700000000000 9705
Sun Apr 04 00:00:00 GMT 2010 anonymous Red maple Acer rubrum First Flower 39.180000000000000 -86.540700000000000 9706
Mon Apr 12 00:00:00 GMT 2010 anonymous Red maple Acer rubrum Full Flower 39.180000000000000 -86.540700000000000 9707
Mon Mar 08 00:00:00 GMT 2010 anonymous Red maple Acer rubrum First Leaf 39.180000000000000 -86.540700000000000 9708
Sun Apr 04 00:00:00 GMT 2010 anonymous Red maple Acer rubrum All Leaves Unfolded 39.180000000000000 -86.540700000000000 9709
Sun Apr 04 00:00:00 GMT 2010 anonymous Red maple Acer rubrum First Flower 39.180000000000000 -86.540700000000000 9710
Mon Apr 12 00:00:00 GMT 2010 anonymous Red maple Acer rubrum Full Flower 39.180000000000000 -86.540700000000000 9711
Mon Mar 08 00:00:00 GMT 2010 anonymous Red maple Acer rubrum First Leaf 39.180000000000000 -86.540700000000000 9712
Sun Apr 04 00:00:00 GMT 2010 anonymous Red maple Acer rubrum All Leaves Unfolded 39.180000000000000 -86.540700000000000 9713
Sun Apr 04 00:00:00 GMT 2010 anonymous Red maple Acer rubrum First Flower 39.180000000000000 -86.540700000000000 9714
Mon Apr 12 00:00:00 GMT 2010 anonymous Red maple Acer rubrum Full Flower 39.180000000000000 -86.540700000000000 9715
Wed Mar 17 00:00:00 GMT 2010 anonymous Red maple Acer rubrum First Leaf 39.170100000000000 -86.512700000000000 9745
Wed Apr 07 00:00:00 GMT 2010 anonymous Red maple Acer rubrum All Leaves Unfolded 39.170100000000000 -86.512700000000000 9746
Wed Feb 17 00:00:00 GMT 2010 anonymous Red maple Acer rubrum First Flower 39.170100000000000 -86.512700000000000 9747
Wed Mar 03 00:00:00 GMT 2010 anonymous Red maple Acer rubrum Full Flower 39.170100000000000 -86.512700000000000 9748
Wed Mar 17 00:00:00 GMT 2010 anonymous Red maple Acer rubrum First Leaf 39.170100000000000 -86.512700000000000 9762
Wed Apr 07 00:00:00 GMT 2010 anonymous Red maple Acer rubrum All Leaves Unfolded 39.170100000000000 -86.512700000000000 9763
Wed Feb 17 00:00:00 GMT 2010 anonymous Red maple Acer rubrum First Flower 39.170100000000000 -86.512700000000000 9764
Wed Mar 03 00:00:00 GMT 2010 anonymous Red maple Acer rubrum Full Flower 39.170100000000000 -86.512700000000000 9765
Sun Apr 04 00:00:00 GMT 2010 anonymous Red maple Acer rubrum First Leaf 39.155700000000000 -86.571100000000000 9851
Tue Apr 06 00:00:00 GMT 2010 anonymous Red maple Acer rubrum All Leaves Unfolded 39.155700000000000 -86.571100000000000 9852
Tue Apr 13 00:00:00 GMT 2010 mrsbornholdt Red maple Acer rubrum All Leaves Unfolded 41.974000000000000 -87.804700000000000 9875
Wed Mar 10 00:00:00 GMT 2010 anonymous Red maple Acer rubrum First Leaf 39.180000000000000 -86.540700000000000 9825
Fri Apr 02 00:00:00 GMT 2010 anonymous Red maple Acer rubrum All Leaves Unfolded 39.180000000000000 -86.540700000000000 9826
Wed Mar 10 00:00:00 GMT 2010 anonymous Red maple Acer rubrum First Flower 39.180000000000000 -86.540700000000000 9827
Fri Apr 02 00:00:00 GMT 2010 anonymous Red maple Acer rubrum Full Flower 39.180000000000000 -86.540700000000000 9828
Wed Mar 10 00:00:00 GMT 2010 miller7 Red maple Acer rubrum First Leaf 39.180000000000000 -86.540700000000000 9817
Fri Apr 02 00:00:00 GMT 2010 miller7 Red maple Acer rubrum All Leaves Unfolded 39.180000000000000 -86.540700000000000 9818
Wed Mar 10 00:00:00 GMT 2010 miller7 Red maple Acer rubrum First Flower 39.180000000000000 -86.540700000000000 9819
Fri Apr 02 00:00:00 GMT 2010 miller7 Red maple Acer rubrum Full Flower 39.180000000000000 -86.540700000000000 9820
Wed Mar 10 00:00:00 GMT 2010 anonymous Red maple Acer rubrum First Leaf 39.180000000000000 -86.540700000000000 9821
Fri Apr 02 00:00:00 GMT 2010 anonymous Red maple Acer rubrum All Leaves Unfolded 39.180000000000000 -86.540700000000000 9822
Wed Mar 10 00:00:00 GMT 2010 anonymous Red maple Acer rubrum First Flower 39.180000000000000 -86.540700000000000 9823
Fri Apr 02 00:00:00 GMT 2010 anonymous Red maple Acer rubrum Full Flower 39.180000000000000 -86.540700000000000 9824
Mon Apr 12 00:00:00 GMT 2010 Derek McKay Red maple Acer rubrum End of Flowering 45.317400000000000 -92.158900000000000 9951
Sat Apr 10 00:00:00 GMT 2010 lleavell Red maple Acer rubrum All Leaves Unfolded 33.933600000000000 -83.377600000000000 10067
Fri Apr 23 00:00:00 GMT 2010 wmoore Red maple Acer rubrum End of Flowering 44.312800000000000 -72.773900000000000 10090
Mon Apr 26 00:00:00 GMT 2010 wmoore Red maple Acer rubrum First Leaf 44.312800000000000 -72.773900000000000 10091
Mon Apr 26 00:00:00 GMT 2010 palaback Red maple Acer rubrum End of Flowering 46.866700000000000 -113.983000000000000 10188
Wed Apr 28 00:00:00 GMT 2010 Derek McKay Red maple Acer rubrum First Leaf 45.317400000000000 -92.158900000000000 10234
Tue May 04 00:00:00 GMT 2010 Derek McKay Red maple Acer rubrum All Leaves Unfolded 45.317400000000000 -92.158900000000000 10333
Sat May 01 00:00:00 GMT 2010 wmoore Red maple Acer rubrum All Leaves Unfolded 44.312800000000000 -72.773900000000000 10366
Tue Apr 27 00:00:00 GMT 2010 mrsbornholdt Red maple Acer rubrum First Flower 41.974000000000000 -87.804700000000000 10491
Tue Apr 27 00:00:00 GMT 2010 mrsbornholdt Red maple Acer rubrum Full Flower 41.974000000000000 -87.804700000000000 10492
Tue Apr 06 00:00:00 GMT 2010 anonymous Red maple Acer rubrum First Leaf 36.925400000000000 -80.021300000000000 10515
Thu Apr 15 00:00:00 GMT 2010 anonymous Red maple Acer rubrum All Leaves Unfolded 36.925400000000000 -80.021300000000000 10516
Tue Mar 30 00:00:00 GMT 2010 anonymous Red maple Acer rubrum First Flower 36.925400000000000 -80.021300000000000 10517
Tue Apr 06 00:00:00 GMT 2010 anonymous Red maple Acer rubrum Full Flower 36.925400000000000 -80.021300000000000 10518
Fri Mar 12 00:00:00 GMT 2010 anonymous Red maple Acer rubrum First Flower 36.927100000000000 -80.020900000000000 10511
Mon Mar 22 00:00:00 GMT 2010 anonymous Red maple Acer rubrum Full Flower 36.927100000000000 -80.020900000000000 10512
Thu Apr 08 00:00:00 GMT 2010 anonymous Red maple Acer rubrum End of Flowering 36.927100000000000 -80.020900000000000 10513
Tue Apr 06 00:00:00 GMT 2010 CBGTeacher Red maple Acer rubrum First Leaf 42.152000000000000 -87.791900000000000 10665
Thu Apr 08 00:00:00 GMT 2010 KShaw Red maple Acer rubrum First Leaf 38.926500000000000 -77.339500000000000 11038
Thu Apr 15 00:00:00 GMT 2010 KShaw Red maple Acer rubrum All Leaves Unfolded 38.926500000000000 -77.339500000000000 11039
Tue Mar 23 00:00:00 GMT 2010 KShaw Red maple Acer rubrum First Flower 38.926500000000000 -77.339500000000000 11040
Fri Mar 26 00:00:00 GMT 2010 KShaw Red maple Acer rubrum Full Flower 38.926500000000000 -77.339500000000000 11041
Fri Apr 09 00:00:00 GMT 2010 KShaw Red maple Acer rubrum End of Flowering 38.926500000000000 -77.339500000000000 11042
Sat Mar 20 00:00:00 GMT 2010 SusannahPrindle Red maple Acer rubrum First Flower 39.096700000000000 -77.023900000000000 11091
Sun Apr 25 00:00:00 GMT 2010 SusannahPrindle Red maple Acer rubrum First Ripe Fruit 39.096700000000000 -77.023900000000000 11092
Wed Oct 06 00:00:00 GMT 2010 shannon Red maple Acer rubrum 50% Color 36.925000000000000 -80.315400000000000 11262
Mon Oct 11 00:00:00 GMT 2010 shannon Red maple Acer rubrum 50% Leaf Fall 36.925000000000000 -80.315400000000000 11263
Thu Mar 11 00:00:00 GMT 2010 vanndawn Red maple Acer rubrum First Flower 38.912500000000000 -92.277500000000000 11278
Wed Mar 24 00:00:00 GMT 2010 vanndawn Red maple Acer rubrum Full Flower 38.912500000000000 -92.277500000000000 11279
Wed Apr 07 00:00:00 GMT 2010 vanndawn Red maple Acer rubrum First Ripe Fruit 38.912500000000000 -92.277500000000000 11280
Mon Mar 09 00:00:00 GMT 2009 vanndawn Red maple Acer rubrum First Flower 38.912500000000000 -92.277500000000000 11275
Tue Mar 31 00:00:00 GMT 2009 vanndawn Red maple Acer rubrum First Ripe Fruit 38.912500000000000 -92.277500000000000 11276
Wed Sep 02 00:00:00 GMT 2009 vanndawn Red maple Acer rubrum 50% Color 38.912500000000000 -92.277500000000000 11277
Wed Oct 13 00:00:00 GMT 2010 shannon Red maple Acer rubrum 50% Color 36.927700000000000 -80.314300000000000 11336
Mon Oct 18 00:00:00 GMT 2010 Derek McKay Red maple Acer rubrum 50% Leaf Fall 45.317400000000000 -92.158900000000000 11341
Sat Mar 20 00:00:00 GMT 2010 SusannahPrindle Red maple Acer rubrum First Flower 39.096700000000000 -77.023900000000000 11639
Sun Apr 25 00:00:00 GMT 2010 SusannahPrindle Red maple Acer rubrum First Ripe Fruit 39.096700000000000 -77.023900000000000 11640
Fri Oct 29 00:00:00 GMT 2010 SusannahPrindle Red maple Acer rubrum 50% Color 39.096700000000000 -77.023900000000000 11641
Wed Nov 17 00:00:00 GMT 2010 SusannahPrindle Red maple Acer rubrum 50% Leaf Fall 39.096700000000000 -77.023900000000000 11642
Sat Feb 19 00:00:00 GMT 2011 moranev Red maple Acer rubrum First Flower 35.920300000000000 -84.031600000000000 11701
Sat Mar 19 00:00:00 GMT 2011 palaback Red maple Acer rubrum First Flower 40.307500000000000 -105.084000000000000 11748
Sun Mar 20 00:00:00 GMT 2011 palaback Red maple Acer rubrum Full Flower 40.307500000000000 -105.084000000000000 11749
Tue Mar 08 00:00:00 GMT 2011 moranev Red maple Acer rubrum End of Flowering 35.920300000000000 -84.031600000000000 11766
Sat Mar 19 00:00:00 GMT 2011 moranev Red maple Acer rubrum First Ripe Fruit 35.920300000000000 -84.031600000000000 11767
Tue Feb 22 00:00:00 GMT 2011 moranev Red maple Acer rubrum First Leaf 35.920300000000000 -84.031600000000000 11774
Fri Mar 18 00:00:00 GMT 2011 amt27 Red maple Acer rubrum Full Flower 40.264700000000000 -74.955800000000000 11795
Fri Apr 01 00:00:00 GMT 2011 cummingl Red maple Acer rubrum First Flower 39.170700000000000 -86.520600000000000 11823
Fri Apr 08 00:00:00 GMT 2011 jenfolz Red maple Acer rubrum First Leaf 40.550000000000000 -82.600000000000000 11859
Fri Mar 25 00:00:00 GMT 2011 jenfolz Red maple Acer rubrum First Flower 40.550000000000000 -82.600000000000000 11860
Fri Apr 08 00:00:00 GMT 2011 jenfolz Red maple Acer rubrum Full Flower 40.550000000000000 -82.600000000000000 11861
Wed Mar 02 00:00:00 GMT 2011 shelbym Red maple Acer rubrum First Leaf 39.166000000000000 -86.520000000000000 11891
Wed Apr 06 00:00:00 GMT 2011 shelbym Red maple Acer rubrum All Leaves Unfolded 39.166000000000000 -86.520000000000000 11892
Wed Mar 09 00:00:00 GMT 2011 shelbym Red maple Acer rubrum 50% Color 39.166000000000000 -86.520000000000000 11893
Fri Apr 08 00:00:00 GMT 2011 kyyork Red maple Acer rubrum All Leaves Unfolded 39.171000000000000 -86.512000000000000 11870
Tue Mar 22 00:00:00 GMT 2011 carolmiserlian@yahoo.com Red maple Acer rubrum First Leaf 30.946300000000000 -95.242900000000000 11877
Wed Mar 30 00:00:00 GMT 2011 carolmiserlian@yahoo.com Red maple Acer rubrum All Leaves Unfolded 30.946300000000000 -95.242900000000000 11878
Mon Feb 14 00:00:00 GMT 2011 carolmiserlian@yahoo.com Red maple Acer rubrum First Flower 30.946300000000000 -95.242900000000000 11879
Thu Feb 17 00:00:00 GMT 2011 carolmiserlian@yahoo.com Red maple Acer rubrum Full Flower 30.946300000000000 -95.242900000000000 11880
Mon Apr 04 00:00:00 GMT 2011 kyyork Red maple Acer rubrum First Leaf 39.171000000000000 -86.512000000000000 11957
Mon Mar 28 00:00:00 GMT 2011 kyyork Red maple Acer rubrum 50% Color 39.171000000000000 -86.512000000000000 11958
Fri Apr 01 00:00:00 GMT 2011 cummingl Red maple Acer rubrum First Leaf 39.170700000000000 -86.520600000000000 11968
Mon Apr 11 00:00:00 GMT 2011 cummingl Red maple Acer rubrum Full Flower 39.170700000000000 -86.520600000000000 11966
Mon Mar 28 00:00:00 GMT 2011 cummingl Red maple Acer rubrum 50% Color 39.170700000000000 -86.520600000000000 11967
Mon Mar 07 00:00:00 GMT 2011 dstricke Red maple Acer rubrum First Leaf 39.160000000000000 -86.510000000000000 12072
Thu Mar 24 00:00:00 GMT 2011 dstricke Red maple Acer rubrum First Flower 39.160000000000000 -86.510000000000000 12073
Mon Apr 04 00:00:00 GMT 2011 dstricke Red maple Acer rubrum Full Fruiting 39.160000000000000 -86.510000000000000 12074
Mon Apr 04 00:00:00 GMT 2011 sieevans23 Red maple Acer rubrum First Leaf 39.167700000000000 -86.511900000000000 12086
Mon Mar 28 00:00:00 GMT 2011 sieevans23 Red maple Acer rubrum First Flower 39.167700000000000 -86.511900000000000 12087
Sun Mar 06 00:00:00 GMT 2011 treneelambert Red maple Acer rubrum First Leaf 39.170400000000000 -86.519100000000000 12090
Sun Mar 06 00:00:00 GMT 2011 treneelambert Red maple Acer rubrum First Flower 39.170400000000000 -86.519100000000000 12091
Mon Mar 21 00:00:00 GMT 2011 brummela Red maple Acer rubrum First Leaf 39.166600000000000 -86.525900000000000 12127
Mon Mar 28 00:00:00 GMT 2011 brummela Red maple Acer rubrum All Leaves Unfolded 39.166600000000000 -86.525900000000000 12128
Mon Apr 04 00:00:00 GMT 2011 brummela Red maple Acer rubrum First Flower 39.166600000000000 -86.525900000000000 12129
Fri Apr 08 00:00:00 GMT 2011 brummela Red maple Acer rubrum Full Flower 39.166600000000000 -86.525900000000000 12130
Mon Feb 28 00:00:00 GMT 2011 brummela Red maple Acer rubrum 50% Leaf Fall 39.166600000000000 -86.525900000000000 12131
Sun Mar 06 00:00:00 GMT 2011 Jesse1999 Red maple Acer rubrum First Leaf 40.500700000000000 -88.989300000000000 12137
Fri Mar 11 00:00:00 GMT 2011 Jesse1999 Red maple Acer rubrum All Leaves Unfolded 40.500700000000000 -88.989300000000000 12138
Mon Apr 11 00:00:00 GMT 2011 rolo Red maple Acer rubrum First Leaf 40.500700000000000 -88.989300000000000 12134
Mon Apr 11 00:00:00 GMT 2011 rolo Red maple Acer rubrum All Leaves Unfolded 40.500700000000000 -88.989300000000000 12135
Mon Apr 04 00:00:00 GMT 2011 rolo Red maple Acer rubrum First Flower 40.500700000000000 -88.989300000000000 12136
Wed Apr 13 00:00:00 GMT 2011 prettygirlrock Red maple Acer rubrum Leaves Unfolding (Early) 40.499500000000000 -88.989900000000000 12164
Tue Apr 19 00:00:00 GMT 2011 Joseph Boland Red maple Acer rubrum First Leaf 39.761200000000000 -105.230000000000000 12175
Wed Apr 27 00:00:00 GMT 2011 erin Red maple Acer rubrum First Leaf 40.300500000000000 -88.989300000000000 12216
Sat Apr 23 00:00:00 GMT 2011 Derek McKay Red maple Acer rubrum First Flower 45.317400000000000 -92.158900000000000 12223
Mon Apr 25 00:00:00 GMT 2011 Derek McKay Red maple Acer rubrum Full Flower 45.317400000000000 -92.158900000000000 12224
Mon May 02 00:00:00 GMT 2011 daboot_24 Red maple Acer rubrum First Leaf 44.548900000000000 -70.451500000000000 12262
Thu Apr 28 00:00:00 GMT 2011 daboot_24 Red maple Acer rubrum Full Flower 44.548900000000000 -70.451500000000000 12263
Sat Apr 02 00:00:00 GMT 2011 hselmer13 Red maple Acer rubrum First Leaf 43.411400000000000 -72.434200000000000 12272
Mon May 02 00:00:00 GMT 2011 erin Red maple Acer rubrum All Leaves Unfolded 40.300500000000000 -88.989300000000000 12248
Tue May 03 00:00:00 GMT 2011 Joseph Boland Red maple Acer rubrum All Leaves Unfolded 39.761200000000000 -105.230000000000000 12318
Sun Apr 03 00:00:00 GMT 2011 hselmer13 Red maple Acer rubrum All Leaves Unfolded 43.411400000000000 -72.434200000000000 12342
Fri Apr 29 00:00:00 GMT 2011 hammondka Red maple Acer rubrum First Leaf 42.391800000000000 -76.017900000000000 12378
Fri May 06 00:00:00 GMT 2011 hammondka Red maple Acer rubrum All Leaves Unfolded 42.391800000000000 -76.017900000000000 12379
Sat Apr 09 00:00:00 GMT 2011 moranev Red maple Acer rubrum Full Fruiting 35.920300000000000 -84.031600000000000 12389
Tue May 10 00:00:00 GMT 2011 ksipowicz_Environmental_Science_reporter12 Red maple Acer rubrum First Leaf 42.130400000000000 -88.024000000000000 12416
Fri May 20 00:00:00 GMT 2011 ksipowicz_Environmental_Science_reporter12 Red maple Acer rubrum All Leaves Unfolded 42.130400000000000 -88.024000000000000 12417
Sun May 15 00:00:00 GMT 2011 ksipowicz_Environmental_Science_reporter12 Red maple Acer rubrum First Flower 42.130400000000000 -88.024000000000000 12418
Fri May 20 00:00:00 GMT 2011 ksipowicz_Environmental_Science_reporter12 Red maple Acer rubrum Full Flower 42.130400000000000 -88.024000000000000 12419
Mon May 02 00:00:00 GMT 2011 alisha.galle Red maple Acer rubrum First Leaf 43.670000000000000 -92.970000000000000 12431
Mon May 09 00:00:00 GMT 2011 alisha.galle Red maple Acer rubrum All Leaves Unfolded 43.670000000000000 -92.970000000000000 12432
Wed May 05 00:00:00 GMT 2010 talericoad Red maple Acer rubrum First Leaf 42.110400000000000 -76.020400000000000 12482
Sat May 14 00:00:00 GMT 2011 Derek McKay Red maple Acer rubrum First Leaf 45.317400000000000 -92.158900000000000 12561
Thu May 19 00:00:00 GMT 2011 Derek McKay Red maple Acer rubrum All Leaves Unfolded 45.317400000000000 -92.158900000000000 12597
Thu Apr 14 00:00:00 GMT 2011 ksipowicz_Environmental_Science_reporter4 Red maple Acer rubrum First Leaf 42.130400000000000 -88.024000000000000 12625
Thu May 12 00:00:00 GMT 2011 ksipowicz_Environmental_Science_reporter4 Red maple Acer rubrum All Leaves Unfolded 42.130400000000000 -88.024000000000000 12626
Wed May 18 00:00:00 GMT 2011 ksipowicz_Environmental_Science_reporter4 Red maple Acer rubrum 50% Color 42.130400000000000 -88.024000000000000 12627
Tue Apr 05 00:00:00 GMT 2011 ksipowicz_Environmental_Science_reporter3 Red maple Acer rubrum First Leaf 42.130400000000000 -88.024000000000000 12642
Tue Apr 12 00:00:00 GMT 2011 ksipowicz_Environmental_Science_reporter3 Red maple Acer rubrum All Leaves Unfolded 42.130400000000000 -88.024000000000000 12643
Wed Apr 27 00:00:00 GMT 2011 ksipowicz_Environmental_Science_reporter3 Red maple Acer rubrum First Flower 42.130400000000000 -88.024000000000000 12644
Mon May 09 00:00:00 GMT 2011 ksipowicz_Environmental_Science_reporter3 Red maple Acer rubrum Full Flower 42.130400000000000 -88.024000000000000 12645
Sun May 15 00:00:00 GMT 2011 ksipowicz_Environmental_Science_reporter3 Red maple Acer rubrum First Ripe Fruit 42.130400000000000 -88.024000000000000 12646
Sun May 22 00:00:00 GMT 2011 ksipowicz_Environmental_Science_reporter3 Red maple Acer rubrum Full Fruiting 42.130400000000000 -88.024000000000000 12647
Sat Apr 30 00:00:00 GMT 2011 ks7701 Red maple Acer rubrum First Leaf 43.648700000000000 -92.994100000000000 12659
Tue May 17 00:00:00 GMT 2011 ks7701 Red maple Acer rubrum All Leaves Unfolded 43.648700000000000 -92.994100000000000 12660
Mon Apr 25 00:00:00 GMT 2011 lletellier_A_period_reporter1 Red maple Acer rubrum First Leaf 42.146500000000000 -72.605000000000000 12819
Mon May 02 00:00:00 GMT 2011 lletellier_A_period_reporter1 Red maple Acer rubrum All Leaves Unfolded 42.146500000000000 -72.605000000000000 12820
Sat Apr 23 00:00:00 GMT 2011 samira you Red maple Acer rubrum First Leaf 42.075600000000000 -72.591400000000000 12834
Sun May 01 00:00:00 GMT 2011 samira you Red maple Acer rubrum All Leaves Unfolded 42.075600000000000 -72.591400000000000 12835
Thu Apr 28 00:00:00 GMT 2011 lletellier_B-_Period_reporter4 Red maple Acer rubrum First Leaf 42.146500000000000 -72.605000000000000 12829
Mon May 02 00:00:00 GMT 2011 lletellier_B-_Period_reporter4 Red maple Acer rubrum All Leaves Unfolded 42.146500000000000 -72.605000000000000 12830
Thu May 12 00:00:00 GMT 2011 palaback Red maple Acer rubrum First Leaf 40.307500000000000 -105.084000000000000 12857
Sun May 29 00:00:00 GMT 2011 palaback Red maple Acer rubrum All Leaves Unfolded 40.307500000000000 -105.084000000000000 12858
Sat Mar 19 00:00:00 GMT 2011 palaback Red maple Acer rubrum First Flower 40.307500000000000 -105.084000000000000 12859
Sun Mar 20 00:00:00 GMT 2011 palaback Red maple Acer rubrum Full Flower 40.307500000000000 -105.084000000000000 12860
Wed Apr 27 00:00:00 GMT 2011 palaback Red maple Acer rubrum First Ripe Fruit 40.307500000000000 -105.084000000000000 12861
Fri Apr 29 00:00:00 GMT 2011 palaback Red maple Acer rubrum Full Fruiting 40.307500000000000 -105.084000000000000 12862
Wed Apr 20 00:00:00 GMT 2011 KShaw Red maple Acer rubrum First Leaf 38.926500000000000 -77.339500000000000 12990
Fri Mar 11 00:00:00 GMT 2011 KShaw Red maple Acer rubrum First Flower 38.926500000000000 -77.339500000000000 12991
Thu Mar 17 00:00:00 GMT 2011 KShaw Red maple Acer rubrum Full Flower 38.926500000000000 -77.339500000000000 12992
Thu Mar 17 00:00:00 GMT 2011 SusannahPrindle Red maple Acer rubrum First Flower 39.096700000000000 -77.023900000000000 13077
Fri Mar 18 00:00:00 GMT 2011 SusannahPrindle Red maple Acer rubrum Full Flower 39.096700000000000 -77.023900000000000 13078
Tue Apr 26 00:00:00 GMT 2011 SusannahPrindle Red maple Acer rubrum First Ripe Fruit 39.096700000000000 -77.023900000000000 13079
Sat Sep 17 00:00:00 GMT 2011 palaback Red maple Acer rubrum Leaves Changing Color (Early) 40.308300000000000 -105.081000000000000 13285
Mon Sep 19 00:00:00 GMT 2011 sandrah Red maple Acer rubrum 50% Color 39.954600000000000 -75.167000000000000 13296
Tue Sep 20 00:00:00 GMT 2011 rtaupier Red maple Acer rubrum Leaves Changing Color (Early) 36.927900000000000 -80.023500000000000 13310
Wed Sep 21 00:00:00 GMT 2011 kayrihavens Red maple Acer rubrum Leaves Changing Color (Early) 42.149800000000000 -87.763100000000000 13325
Thu Sep 22 00:00:00 GMT 2011 erikat Red maple Acer rubrum 50% Color 36.928800000000000 -80.023900000000000 13356
Fri Sep 23 00:00:00 GMT 2011 KDowell Red maple Acer rubrum Leaves Changing Color (Early) 39.453400000000000 -77.964400000000000 13386
Tue Sep 20 00:00:00 GMT 2011 psaunder Red maple Acer rubrum Leaves Changing Color (Early) 40.890900000000000 -82.261800000000000 13384
Tue Sep 20 00:00:00 GMT 2011 psaunder Red maple Acer rubrum Leaves Changing Color (Early) 40.890900000000000 -82.261800000000000 13383
Tue Sep 20 00:00:00 GMT 2011 psaunder Red maple Acer rubrum Leaves Changing Color (Early) 40.890900000000000 -82.261800000000000 13382
Sat Sep 24 00:00:00 GMT 2011 bethring Red maple Acer rubrum Leaves Changing Color (Early) 41.501500000000000 -87.464000000000000 13408
Sat Sep 24 00:00:00 GMT 2011 sandrah Red maple Acer rubrum Leaves Changing Color (Early) 44.248000000000000 -121.484000000000000 13421
Sat Sep 17 00:00:00 GMT 2011 AIDAN O'Connor Red maple Acer rubrum Leaves Unfolding (Late) 41.000000000000000 -87.000000000000000 13446
Tue Sep 20 00:00:00 GMT 2011 psaunder Red maple Acer rubrum Leaves Changing Color (Early) 40.766900000000000 -82.383500000000000 13430
Tue Sep 20 00:00:00 GMT 2011 psaunder Red maple Acer rubrum Leaves Changing Color (Early) 40.766900000000000 -82.383500000000000 13431
Thu Sep 29 00:00:00 GMT 2011 ericjlaufenberg@yahoo.com Red maple Acer rubrum Leaves Changing Color (Early) 43.000000000000000 -89.000000000000000 13460
Sat Oct 08 00:00:00 GMT 2011 palaback Red maple Acer rubrum Leaves Changing Color (Late) 42.303500000000000 -73.342100000000000 13525
Thu Oct 06 00:00:00 GMT 2011 palaback Red maple Acer rubrum Leaves Changing Color (Early) 41.735500000000000 -74.195300000000000 13529
Thu Oct 06 00:00:00 GMT 2011 palaback Red maple Acer rubrum Leaves Changing Color (Late) 41.708500000000000 -74.226000000000000 13526
Wed Oct 05 00:00:00 GMT 2011 palaback Red maple Acer rubrum Leaves Changing Color (Early) 41.785300000000000 -73.730400000000000 13533
Mon Oct 10 00:00:00 GMT 2011 palaback Red maple Acer rubrum Leaves Changing Color (Late) 43.402500000000000 -72.071700000000000 13537
Mon Oct 10 00:00:00 GMT 2011 palaback Red maple Acer rubrum Leaves Changing Color (Late) 43.000000000000000 -72.095800000000000 13539
Tue Oct 11 00:00:00 GMT 2011 Joseph Boland Red maple Acer rubrum 50% Color 39.761200000000000 -105.230000000000000 13554
Thu Oct 06 00:00:00 GMT 2011 vanndawn Red maple Acer rubrum 50% Color 38.912500000000000 -92.277500000000000 13610
Tue Oct 11 00:00:00 GMT 2011 palaback Red maple Acer rubrum Leaves Dropping (Early) 43.351200000000000 -72.040300000000000 13618
Tue Oct 11 00:00:00 GMT 2011 palaback Red maple Acer rubrum Leaves Changing Color (Late) 43.351200000000000 -72.040300000000000 13617
Tue Oct 11 00:00:00 GMT 2011 palaback Red maple Acer rubrum Leaves Changing Color (Late) 43.301600000000000 -71.866300000000000 13624
Wed Oct 12 00:00:00 GMT 2011 palaback Red maple Acer rubrum Leaves Changing Color (Middle) 43.363500000000000 -72.094500000000000 13632
Wed Oct 12 00:00:00 GMT 2011 palaback Red maple Acer rubrum Leaves Dropping (Middle) 43.363500000000000 -72.094500000000000 13633
Sat Oct 15 00:00:00 GMT 2011 palaback Red maple Acer rubrum Leaves Changing Color (Late) 40.305600000000000 -105.083000000000000 13685
Sat Oct 15 00:00:00 GMT 2011 palaback Red maple Acer rubrum 50% Color 40.307500000000000 -105.084000000000000 13686
Tue Oct 25 00:00:00 GMT 2011 Joseph Boland Red maple Acer rubrum 50% Leaf Fall 39.761200000000000 -105.230000000000000 13721
Thu Oct 27 00:00:00 GMT 2011 palaback Red maple Acer rubrum 50% Leaf Fall 40.307500000000000 -105.084000000000000 13844
Sat Oct 22 00:00:00 GMT 2011 SusannahPrindle Red maple Acer rubrum 50% Color 39.096700000000000 -77.023900000000000 13940
Sun Nov 13 00:00:00 GMT 2011 SusannahPrindle Red maple Acer rubrum 50% Leaf Fall 39.096700000000000 -77.023900000000000 13941
Wed Feb 01 00:00:00 GMT 2012 asale003 Red maple Acer rubrum First Flower 37.579400000000000 -76.442200000000000 14063
Mon Jan 30 00:00:00 GMT 2012 Hicklinjr Red maple Acer rubrum First Flower 35.181200000000000 -80.865800000000000 14070
Wed Feb 08 00:00:00 GMT 2012 Hicklinjr Red maple Acer rubrum Full Flower 35.181200000000000 -80.865800000000000 14071
Sun Feb 12 00:00:00 GMT 2012 foxtrot Red maple Acer rubrum Leaves Dropping (Late) 46.827400000000000 -96.889300000000000 14089
Wed Feb 29 00:00:00 GMT 2012 lettuce Red maple Acer rubrum First Flower 39.000000000000000 -94.580000000000000 14137
Fri Mar 02 00:00:00 GMT 2012 asale003 Red maple Acer rubrum Full Flower 37.579500000000000 -76.441200000000000 14156
Mon Feb 27 00:00:00 GMT 2012 PineyBranch Red maple Acer rubrum First Flower 39.008600000000000 -77.104700000000000 14158
Fri Mar 02 00:00:00 GMT 2012 PineyBranch Red maple Acer rubrum Full Flower 39.008600000000000 -77.104700000000000 14159
Sun Feb 26 00:00:00 GMT 2012 rsdutton Red maple Acer rubrum First Flower 33.918500000000000 -84.840900000000000 14161
Fri Mar 02 00:00:00 GMT 2012 MaAzCaMdVa Red maple Acer rubrum First Leaf 38.873400000000000 -77.203700000000000 14168
Wed Mar 07 00:00:00 GMT 2012 kayrihavens Red maple Acer rubrum First Flower 42.151900000000000 -87.785500000000000 14192
Sat Mar 10 00:00:00 GMT 2012 suevanpatten@gmail.com Red maple Acer rubrum First Leaf 37.959500000000000 -84.709100000000000 14201
Fri Mar 16 00:00:00 GMT 2012 palaback Red maple Acer rubrum First Flower 40.307500000000000 -105.084000000000000 14288
Sat Mar 17 00:00:00 GMT 2012 palaback Red maple Acer rubrum Full Flower 40.307500000000000 -105.084000000000000 14289
Fri Mar 16 00:00:00 GMT 2012 lettuce Red maple Acer rubrum First Ripe Fruit 39.000000000000000 -94.580000000000000 14319
Tue Mar 06 00:00:00 GMT 2012 jpspinicchia Red maple Acer rubrum First Leaf 38.271000000000000 -76.614100000000000 14314
Tue Mar 20 00:00:00 GMT 2012 RoseZT Red maple Acer rubrum First Flower 41.330800000000000 -72.683200000000000 14325
Wed Mar 21 00:00:00 GMT 2012 RoseZT Red maple Acer rubrum Full Flower 41.330800000000000 -72.683200000000000 14375
Tue Mar 13 00:00:00 GMT 2012 Joseph Boland Red maple Acer rubrum First Flower 39.761200000000000 -105.230000000000000 14398
Mon Mar 12 00:00:00 GMT 2012 RangerTorry Red maple Acer rubrum First Flower 36.145800000000000 -79.452400000000000 14395
Tue Mar 20 00:00:00 GMT 2012 MikeB45 Red maple Acer rubrum First Flower 39.640700000000000 -78.089600000000000 14456
Tue Mar 20 00:00:00 GMT 2012 Bobcats Red maple Acer rubrum First Flower 46.206000000000000 -85.757000000000000 14534
Sat Mar 24 00:00:00 GMT 2012 Bobcats Red maple Acer rubrum Full Flower 46.206000000000000 -85.757000000000000 14535
Thu Mar 22 00:00:00 GMT 2012 tuckerasso Red maple Acer rubrum First Leaf 37.231600000000000 -76.663600000000000 14703
Tue Mar 27 00:00:00 GMT 2012 tuckerasso Red maple Acer rubrum All Leaves Unfolded 37.231600000000000 -76.663600000000000 14704
Wed Feb 22 00:00:00 GMT 2012 tuckerasso Red maple Acer rubrum First Flower 37.231600000000000 -76.663600000000000 14705
Thu Mar 01 00:00:00 GMT 2012 tuckerasso Red maple Acer rubrum Full Flower 37.231600000000000 -76.663600000000000 14706
Tue Mar 27 00:00:00 GMT 2012 tuckerasso Red maple Acer rubrum First Ripe Fruit 37.231600000000000 -76.663600000000000 14707
Tue Mar 20 00:00:00 GMT 2012 mebrown Red maple Acer rubrum First Flower 36.085700000000000 -79.501200000000000 14725
Tue Apr 03 00:00:00 GMT 2012 rebecca_whitson Red maple Acer rubrum First Leaf 40.120300000000000 -76.036300000000000 14789
Sat Apr 07 00:00:00 GMT 2012 ckrais Red maple Acer rubrum Leaves Unfolding (Early) 40.929200000000000 -73.438000000000000 14833
Mon Apr 09 00:00:00 GMT 2012 Joseph Boland Red maple Acer rubrum First Leaf 39.761200000000000 -105.230000000000000 14894
Tue Apr 10 00:00:00 GMT 2012 tuckerasso Red maple Acer rubrum Full Fruiting 37.231600000000000 -76.663600000000000 14903
Tue Apr 10 00:00:00 GMT 2012 buckscience Red maple Acer rubrum Flowers (Early) 44.330400000000000 -70.271700000000000 14881
Wed Apr 11 00:00:00 GMT 2012 Project Red maple Acer rubrum Fruit (Late) 42.063800000000000 -87.673000000000000 14925
Thu Apr 12 00:00:00 GMT 2012 jim@beavercreekreserve Red maple Acer rubrum Fruit (Middle) 44.813400000000000 -91.269500000000000 14946
Thu Apr 12 00:00:00 GMT 2012 moni484 Red maple Acer rubrum Leaves Unfolding (Early) 42.047400000000000 -87.678500000000000 14964
Tue Apr 17 00:00:00 GMT 2012 Liz.uvm Red maple Acer rubrum Leaves Unfolding (Middle) 44.476000000000000 -73.198800000000000 15035
Tue Apr 17 00:00:00 GMT 2012 RoseZT Red maple Acer rubrum First Leaf 41.330800000000000 -72.683200000000000 15066
Wed Mar 28 00:00:00 GMT 2012 remeika@maine.rr.com Red maple Acer rubrum First Flower 43.887400000000000 -70.141200000000000 15090
Mon Apr 02 00:00:00 GMT 2012 remeika@maine.rr.com Red maple Acer rubrum Full Flower 43.887400000000000 -70.141200000000000 15091
Fri Apr 20 00:00:00 GMT 2012 Project Red maple Acer rubrum Leaves Unfolding (Middle) 42.063800000000000 -87.673000000000000 15132
Wed Apr 18 00:00:00 GMT 2012 Joseph Boland Red maple Acer rubrum All Leaves Unfolded 39.761200000000000 -105.230000000000000 15185
Tue Apr 17 00:00:00 GMT 2012 lduncan Red maple Acer rubrum Leaves Unfolding (Early) 34.674500000000000 -82.822200000000000 15191
Mon Apr 23 00:00:00 GMT 2012 palaback Red maple Acer rubrum First Leaf 40.307500000000000 -105.084000000000000 15211
Tue Apr 24 00:00:00 GMT 2012 Joseph Boland Red maple Acer rubrum Full Fruiting 39.761200000000000 -105.230000000000000 15240
Sat Apr 28 00:00:00 GMT 2012 EAGLE1973 Red maple Acer rubrum Leaves Unfolding (Early) 39.271300000000000 -80.270600000000000 15348
Mon Apr 23 00:00:00 GMT 2012 s_kat Red maple Acer rubrum First Leaf 42.679200000000000 -70.841200000000000 15422
Tue May 01 00:00:00 GMT 2012 s_kat Red maple Acer rubrum All Leaves Unfolded 42.679200000000000 -70.841200000000000 15423
Fri May 04 00:00:00 GMT 2012 EAGLE1973 Red maple Acer rubrum Leaves Unfolding (Late) 39.271300000000000 -80.270600000000000 15465
Mon May 07 00:00:00 GMT 2012 snewman14 Red maple Acer rubrum Leaves Unfolding (Late) 44.133900000000000 -90.187000000000000 15527
Tue May 15 00:00:00 GMT 2012 elygrade2 Red maple Acer rubrum Leaves Unfolding (Late) 47.900000000000000 -91.900000000000000 15728
Thu May 17 00:00:00 GMT 2012 elygrade2 Red maple Acer rubrum Leaves Unfolding (Late) 47.900000000000000 -91.900000000000000 15760
Thu May 17 00:00:00 GMT 2012 victocam Red maple Acer rubrum All Leaves Unfolded 40.667700000000000 -73.961800000000000 15770
Thu May 17 00:00:00 GMT 2012 victocam_Brooklyn_Homeschool_reporter4 Red maple Acer rubrum Leaves Unfolding (Late) 40.667700000000000 -73.961800000000000 15807
Thu May 17 00:00:00 GMT 2012 victocam_Brooklyn_Homeschool_reporter2 Red maple Acer rubrum All Leaves Unfolded 40.667700000000000 -73.961800000000000 15948
Thu May 17 00:00:00 GMT 2012 victocam_Brooklyn_Homeschool_reporter10 Red maple Acer rubrum All Leaves Unfolded 40.667700000000000 -73.961800000000000 15980
Sat Jun 16 00:00:00 GMT 2012 snewman14 Red maple Acer rubrum Leaves Unfolding (Late) 39.749100000000000 -104.941000000000000 16068
Fri Mar 30 00:00:00 GMT 2012 SusannahPrindle Red maple Acer rubrum First Leaf 39.096700000000000 -77.023900000000000 16200
Mon Apr 02 00:00:00 GMT 2012 SusannahPrindle Red maple Acer rubrum All Leaves Unfolded 39.096700000000000 -77.023900000000000 16201
Sat Mar 10 00:00:00 GMT 2012 SusannahPrindle Red maple Acer rubrum First Flower 39.096700000000000 -77.023900000000000 16202
Sun May 06 00:00:00 GMT 2012 remeika@maine.rr.com Red maple Acer rubrum First Leaf 43.887400000000000 -70.141200000000000 16356
Wed May 16 00:00:00 GMT 2012 remeika@maine.rr.com Red maple Acer rubrum All Leaves Unfolded 43.887400000000000 -70.141200000000000 16357
Thu May 10 00:00:00 GMT 2012 remeika@maine.rr.com Red maple Acer rubrum First Ripe Fruit 43.887400000000000 -70.141200000000000 16358
Sat May 26 00:00:00 GMT 2012 remeika@maine.rr.com Red maple Acer rubrum Full Fruiting 43.887400000000000 -70.141200000000000 16359
Sat Sep 01 00:00:00 GMT 2012 paleo20 Red maple Acer rubrum Leaves Dropping (Early) 42.605200000000000 -83.100300000000000 16436
Tue Sep 04 00:00:00 GMT 2012 msturm7 Red maple Acer rubrum Leaves Dropping (Early) 42.605600000000000 -83.150000000000000 16448
Tue Sep 04 00:00:00 GMT 2012 jomar.christian@comcast.net Red maple Acer rubrum Leaves Changing Color (Early) 42.583200000000000 -83.100400000000000 16449
Tue Sep 04 00:00:00 GMT 2012 joshuagale Red maple Acer rubrum Leaves Dropping (Early) 42.588000000000000 -83.104200000000000 16460
Tue Sep 04 00:00:00 GMT 2012 hnkukla18 Red maple Acer rubrum Leaves Changing Color (Late) 42.595200000000000 -83.097700000000000 16464
Tue Sep 04 00:00:00 GMT 2012 hailey_abro66 Red maple Acer rubrum Leaves Unfolding (Late) 42.634300000000000 -83.213500000000000 16479
Tue Sep 04 00:00:00 GMT 2012 claudiab2000 Red maple Acer rubrum Leaves Changing Color (Late) 39.984700000000000 -105.268000000000000 16475
Tue Sep 04 00:00:00 GMT 2012 anahgemk Red maple Acer rubrum Leaves Dropping (Early) 42.600000000000000 -83.150000000000000 16469
Tue Sep 04 00:00:00 GMT 2012 solo1830 Red maple Acer rubrum Leaves Changing Color (Early) 42.602600000000000 -83.099500000000000 16471
Tue Sep 04 00:00:00 GMT 2012 claudiab2000 Red maple Acer rubrum Leaves Dropping (Late) 39.984700000000000 -105.268000000000000 16472
Tue Sep 04 00:00:00 GMT 2012 hailey_abro66 Red maple Acer rubrum Leaves Changing Color (Early) 42.634300000000000 -83.213500000000000 16477
Tue Sep 04 00:00:00 GMT 2012 gilliessierra Red maple Acer rubrum Leaves Changing Color (Early) 42.609100000000000 -83.151400000000000 16468
Tue Sep 04 00:00:00 GMT 2012 hailey_abro66 Red maple Acer rubrum Leaves Changing Color (Late) 42.634300000000000 -83.213500000000000 16478
Tue Sep 04 00:00:00 GMT 2012 angela.wang Red maple Acer rubrum Leaves Dropping (Middle) 42.598300000000000 -83.123800000000000 16486
Tue Sep 04 00:00:00 GMT 2012 jazzie111700 Red maple Acer rubrum Leaves Changing Color (Early) 42.585400000000000 -83.118800000000000 16490
Tue Sep 04 00:00:00 GMT 2012 Bren1021 Red maple Acer rubrum Leaves Unfolding (Late) 42.605000000000000 -83.149000000000000 16493
Tue Sep 04 00:00:00 GMT 2012 laurenh0326 Red maple Acer rubrum Leaves Changing Color (Early) 42.605600000000000 -83.149900000000000 16496
Tue Sep 04 00:00:00 GMT 2012 dzelenak Red maple Acer rubrum Leaves Changing Color (Early) 42.608800000000000 -83.093100000000000 16511
Tue Sep 04 00:00:00 GMT 2012 lwjin18 Red maple Acer rubrum Fruit (Late) 42.598400000000000 -83.090500000000000 16514
Tue Sep 04 00:00:00 GMT 2012 killerbacon Red maple Acer rubrum Leaves Unfolding (Early) 42.603900000000000 -83.096600000000000 16437
Tue Sep 04 00:00:00 GMT 2012 ochan@lycos.com Red maple Acer rubrum Leaves Changing Color (Early) 42.599400000000000 -83.127100000000000 16441
Wed Sep 05 00:00:00 GMT 2012 lwjin18 Red maple Acer rubrum Leaves Dropping (Early) 42.598400000000000 -83.090500000000000 16521
Wed Sep 05 00:00:00 GMT 2012 astro67 Red maple Acer rubrum First Leaf 42.612000000000000 -83.098200000000000 16539
Tue Sep 11 00:00:00 GMT 2012 kayrihavens Red maple Acer rubrum Leaves Changing Color (Early) 43.040800000000000 -87.914000000000000 16578
Mon Sep 17 00:00:00 GMT 2012 MarcSturm Red maple Acer rubrum Leaves Dropping (Early) 42.605000000000000 -83.150000000000000 16612
Wed Sep 12 00:00:00 GMT 2012 sterlinhaymon Red maple Acer rubrum 50% Color 34.600000000000000 -83.050000000000000 16665
Wed Sep 12 00:00:00 GMT 2012 sterlinhaymon Red maple Acer rubrum 50% Leaf Fall 34.600000000000000 -83.050000000000000 16666
Wed Sep 12 00:00:00 GMT 2012 zachpcollins@hotmail.com Red maple Acer rubrum 50% Color 34.620000000000000 -83.050000000000000 16657
Wed Sep 12 00:00:00 GMT 2012 zachpcollins@hotmail.com Red maple Acer rubrum 50% Leaf Fall 34.620000000000000 -83.050000000000000 16658
Tue Sep 18 00:00:00 GMT 2012 jessica Red maple Acer rubrum Leaves Changing Color (Middle) 42.611200000000000 -83.093500000000000 16672
Tue Sep 18 00:00:00 GMT 2012 JennyOwens Red maple Acer rubrum 50% Color 34.620000000000000 -83.050000000000000 16634
Tue Sep 18 00:00:00 GMT 2012 jessica Red maple Acer rubrum Leaves Changing Color (Middle) 42.611200000000000 -83.093500000000000 16670
Tue Sep 18 00:00:00 GMT 2012 jessica Red maple Acer rubrum Leaves Changing Color (Middle) 42.611200000000000 -83.093500000000000 16671
Fri Sep 14 00:00:00 GMT 2012 4hrluker Red maple Acer rubrum 50% Color 36.220000000000000 -83.060000000000000 16640
Fri Sep 14 00:00:00 GMT 2012 wesley Red maple Acer rubrum 50% Leaf Fall 34.620000000000000 -83.050000000000000 16647
Fri Sep 14 00:00:00 GMT 2012 5caholbrooks Red maple Acer rubrum 50% Leaf Fall 34.620000000000000 -83.050000000000000 16648
Tue Sep 11 00:00:00 GMT 2012 andy lee Red maple Acer rubrum 50% Color 34.600000000000000 -83.100000000000000 16715
Thu Sep 13 00:00:00 GMT 2012 katelan cockman Red maple Acer rubrum 50% Color 34.610000000000000 -83.050000000000000 16710
Thu Sep 13 00:00:00 GMT 2012 katelan cockman Red maple Acer rubrum 50% Leaf Fall 34.610000000000000 -83.050000000000000 16711
Tue Sep 11 00:00:00 GMT 2012 brianna7frady Red maple Acer rubrum 50% Color 34.600000000000000 -83.100000000000000 16714
Thu Sep 20 00:00:00 GMT 2012 Cheryloakes50 Red maple Acer rubrum 50% Color 43.190000000000000 -70.360000000000000 16738
Sun Sep 30 00:00:00 GMT 2012 bpenuel Red maple Acer rubrum Leaves Changing Color (Middle) 39.969700000000000 -105.274000000000000 16760
Mon Apr 23 00:00:00 GMT 2012 palaback Red maple Acer rubrum All Leaves Unfolded 40.307500000000000 -105.084000000000000 16775
Fri Oct 12 00:00:00 GMT 2012 Lincoln Red maple Acer rubrum Leaves Changing Color (Middle) 42.328100000000000 -71.129200000000000 17008
Wed Oct 17 00:00:00 GMT 2012 bandjnewman Red maple Acer rubrum Leaves Dropping (Late) 46.810800000000000 -90.818200000000000 17032
Sun Oct 14 00:00:00 GMT 2012 Katherine Bennett Red maple Acer rubrum 50% Color 42.615100000000000 -71.928000000000000 17034
Sun Oct 14 00:00:00 GMT 2012 Katherine Bennett Red maple Acer rubrum 50% Color 42.615100000000000 -71.928000000000000 17033
Wed Oct 17 00:00:00 GMT 2012 Joseph Boland Red maple Acer rubrum 50% Leaf Fall 39.761200000000000 -105.230000000000000 17046
Sun Oct 21 00:00:00 GMT 2012 jeanrogers Red maple Acer rubrum 50% Leaf Fall 42.390200000000000 -71.500700000000000 17050
Fri Oct 26 00:00:00 GMT 2012 CourtneyBuchanan13 Red maple Acer rubrum Fruit (Late) 35.000000000000000 -82.000000000000000 17433
Mon Oct 29 00:00:00 GMT 2012 CourtneyBuchanan13 Red maple Acer rubrum Fruit (Late) 35.000000000000000 -82.000000000000000 17432
Fri Oct 26 00:00:00 GMT 2012 amyrivera Red maple Acer rubrum Leaves Dropping (Late) 39.518600000000000 -104.761000000000000 17446
Wed Nov 07 00:00:00 GMT 2012 ChapmanCheetahs Red maple Acer rubrum 50% Color 45.120000000000000 -122.607000000000000 17527
Wed Nov 07 00:00:00 GMT 2012 ChapmanCheetahs Red maple Acer rubrum 50% Color 45.120000000000000 -122.607000000000000 17526
Thu Nov 01 00:00:00 GMT 2012 profholmberg@gmail.com Red maple Acer rubrum Leaves Dropping (Late) 41.795400000000000 -73.123200000000000 17592
Mon Nov 05 00:00:00 GMT 2012 bterry Red maple Acer rubrum 50% Leaf Fall 46.396000000000000 -116.802000000000000 17600
Mon Nov 05 00:00:00 GMT 2012 bterry Red maple Acer rubrum 50% Leaf Fall 46.396000000000000 -116.802000000000000 17599
Mon Nov 05 00:00:00 GMT 2012 bterry Red maple Acer rubrum 50% Leaf Fall 46.396000000000000 -116.802000000000000 17598
Sun Oct 14 00:00:00 GMT 2012 aliciast. sauveur26 Red maple Acer rubrum Leaves Changing Color (Middle) 41.912200000000000 -73.036900000000000 17608
Sun Sep 30 00:00:00 GMT 2012 aliciast. sauveur26 Red maple Acer rubrum Leaves Changing Color (Early) 41.912200000000000 -73.036900000000000 17607
Wed Oct 24 00:00:00 GMT 2012 aliciast. sauveur26 Red maple Acer rubrum Leaves Changing Color (Late) 41.912200000000000 -73.036900000000000 17609
Sun Oct 14 00:00:00 GMT 2012 aliciast. sauveur26 Red maple Acer rubrum Leaves Dropping (Middle) 41.912200000000000 -73.036900000000000 17610
Wed Oct 10 00:00:00 GMT 2012 aliciast. sauveur26 Red maple Acer rubrum Leaves Dropping (Early) 41.912200000000000 -73.036900000000000 17611
Thu Nov 15 00:00:00 GMT 2012 tuckerasso Red maple Acer rubrum 50% Color 37.231600000000000 -76.663600000000000 17652
Sat Dec 01 00:00:00 GMT 2012 tuckerasso Red maple Acer rubrum 50% Leaf Fall 37.231600000000000 -76.663600000000000 17653
Fri Mar 30 00:00:00 GMT 2012 SusannahPrindle Red maple Acer rubrum First Leaf 39.096700000000000 -77.023900000000000 17698
Mon Apr 02 00:00:00 GMT 2012 SusannahPrindle Red maple Acer rubrum All Leaves Unfolded 39.096700000000000 -77.023900000000000 17699
Sat Mar 10 00:00:00 GMT 2012 SusannahPrindle Red maple Acer rubrum First Flower 39.096700000000000 -77.023900000000000 17700
Sat Nov 03 00:00:00 GMT 2012 SusannahPrindle Red maple Acer rubrum 50% Color 39.096700000000000 -77.023900000000000 17701
Sat Sep 29 00:00:00 GMT 2012 lschwab Red maple Acer rubrum 50% Color 39.984700000000000 -105.268000000000000 17733
Sat Oct 27 00:00:00 GMT 2012 lschwab Red maple Acer rubrum 50% Leaf Fall 39.984700000000000 -105.268000000000000 17734
Thu Jan 24 00:00:00 GMT 2013 nacielr Red maple Acer rubrum 50% Leaf Fall 39.155800000000000 -86.526000000000000 17821
Thu Jan 31 00:00:00 GMT 2013 HannahM Red maple Acer rubrum Leaves Dropping (Middle) 42.586300000000000 -83.100100000000000 17937
Thu Feb 07 00:00:00 GMT 2013 mareseatoats Red maple Acer rubrum Bud Burst 38.020100000000000 -78.634400000000000 17948
Fri Feb 08 00:00:00 GMT 2013 mareseatoats Red maple Acer rubrum Flowers (Early) 38.020100000000000 -78.634400000000000 17947
Sat Feb 09 00:00:00 GMT 2013 dragonmom0517 Red maple Acer rubrum Bud Burst 32.352400000000000 -90.070700000000000 17957
Thu Feb 14 00:00:00 GMT 2013 ncmns Red maple Acer rubrum Flowers (Late) 35.783400000000000 -78.641000000000000 17958
Tue Feb 19 00:00:00 GMT 2013 EasternChipmunk Red maple Acer rubrum Flowers (Middle) 37.126500000000000 -80.372900000000000 17982
Sun Mar 03 00:00:00 GMT 2013 mareseatoats Red maple Acer rubrum Full Flower 38.020100000000000 -78.634400000000000 18114
Mon Mar 11 00:00:00 GMT 2013 kwixted0 Red maple Acer rubrum Bud Burst 39.061400000000000 -76.584300000000000 18127
Tue Mar 12 00:00:00 GMT 2013 ncmns Red maple Acer rubrum Flowers (Middle) 35.811700000000000 -78.713900000000000 18139
Sun Mar 10 00:00:00 GMT 2013 dnarango Red maple Acer rubrum Bud Burst 38.437100000000000 -77.737400000000000 18141
Fri Mar 15 00:00:00 GMT 2013 jrfishe1 Red maple Acer rubrum First Flower 38.874100000000000 -77.088800000000000 18165
Fri Mar 15 00:00:00 GMT 2013 PineyBranch Red maple Acer rubrum Bud Burst 39.008600000000000 -77.104700000000000 18167
Mon Mar 18 00:00:00 GMT 2013 kelpmonster Red maple Acer rubrum First Flower 47.707200000000000 -122.311000000000000 18207
Sat Mar 23 00:00:00 GMT 2013 ncmns Red maple Acer rubrum Flowers (Middle) 35.811500000000000 -78.713600000000000 18247
Fri Mar 01 00:00:00 GMT 2013 ggnoma Red maple Acer rubrum Full Flower 38.981900000000000 -77.226300000000000 18253
Thu Mar 21 00:00:00 GMT 2013 ggnoma Red maple Acer rubrum First Flower 38.986600000000000 -77.119000000000000 18251
Sun Mar 24 00:00:00 GMT 2013 kspiv Red maple Acer rubrum Leaves Unfolding (Early) 42.295600000000000 -83.724900000000000 18352
Sun Mar 24 00:00:00 GMT 2013 kspiv Red maple Acer rubrum Leaves Unfolding (Early) 42.295600000000000 -83.724900000000000 18351
Thu Mar 28 00:00:00 GMT 2013 ncmns Red maple Acer rubrum Flowers (Middle) 35.810400000000000 -78.715000000000000 18372
Thu Mar 28 00:00:00 GMT 2013 ncmns Red maple Acer rubrum Flowers (Middle) 35.782700000000000 -78.640400000000000 18367
Fri Mar 29 00:00:00 GMT 2013 mrackmill Red maple Acer rubrum Flowers (Early) 40.749300000000000 -73.821300000000000 18379
Sat Mar 30 00:00:00 GMT 2013 palaback Red maple Acer rubrum First Flower 40.307500000000000 -105.084000000000000 18391
Sun Mar 31 00:00:00 GMT 2013 askinner Red maple Acer rubrum Leaves Unfolding (Early) 37.227900000000000 -80.419500000000000 18405
Sun Mar 31 00:00:00 GMT 2013 palaback Red maple Acer rubrum Full Flower 40.307500000000000 -105.084000000000000 18419
Mon Mar 18 00:00:00 GMT 2013 bterry Red maple Acer rubrum Full Flower 46.396000000000000 -116.802000000000000 18516
Sat Apr 06 00:00:00 GMT 2013 eroyse Red maple Acer rubrum Flowers (Late) 38.956500000000000 -76.942400000000000 18534
Sat Apr 06 00:00:00 GMT 2013 mpgooley Red maple Acer rubrum First Flower 42.355500000000000 -71.249000000000000 18519
Wed Apr 03 00:00:00 GMT 2013 ncesnik Red maple Acer rubrum Bud Burst 39.172700000000000 -86.529400000000000 18572
Thu Mar 28 00:00:00 GMT 2013 ahublar7 Red maple Acer rubrum Bud Burst 39.167200000000000 -86.512500000000000 18540
Thu Apr 04 00:00:00 GMT 2013 opankrat Red maple Acer rubrum Bud Burst 39.165300000000000 -86.526400000000000 18589
Thu Mar 07 00:00:00 GMT 2013 mmcleaster Red maple Acer rubrum Bud Burst 39.165300000000000 -86.526400000000000 18591
Thu Mar 21 00:00:00 GMT 2013 haley Red maple Acer rubrum Bud Burst 39.170000000000000 -86.530000000000000 18599
Tue Mar 19 00:00:00 GMT 2013 jmta Red maple Acer rubrum Bud Burst 39.165300000000000 -86.526400000000000 18600
Wed Apr 03 00:00:00 GMT 2013 haydenh Red maple Acer rubrum Leaves Unfolding (Early) 39.162100000000000 -86.567700000000000 18622
Wed Apr 03 00:00:00 GMT 2013 haydenh Red maple Acer rubrum Leaves Unfolding (Early) 39.162100000000000 -86.567700000000000 18623
Mon Apr 08 00:00:00 GMT 2013 sakeefe Red maple Acer rubrum Flowers (Early) 39.169800000000000 -86.510100000000000 18628
Mon Apr 01 00:00:00 GMT 2013 hnrodrig Red maple Acer rubrum Bud Burst 39.154400000000000 -86.523900000000000 18626
Mon Apr 08 00:00:00 GMT 2013 palaback Red maple Acer rubrum Fruit (Early) 38.882000000000000 -77.033200000000000 18691
Wed Apr 10 00:00:00 GMT 2013 arabella Red maple Acer rubrum Bud Burst 41.271000000000000 -76.115700000000000 18743
Mon Feb 04 00:00:00 GMT 2013 samivy333 Red maple Acer rubrum Bud Burst 39.167300000000000 -86.520000000000000 18747
Sat Mar 30 00:00:00 GMT 2013 samivy333 Red maple Acer rubrum First Leaf 39.167300000000000 -86.520000000000000 18748
Thu Mar 28 00:00:00 GMT 2013 jacobsld1 Red maple Acer rubrum Bud Burst 39.875500000000000 -75.371000000000000 18760
Sat Apr 06 00:00:00 GMT 2013 mareseatoats Red maple Acer rubrum First Leaf 38.020100000000000 -78.634400000000000 18767
Thu Apr 11 00:00:00 GMT 2013 ncmns Red maple Acer rubrum Leaves Unfolding (Early) 35.782800000000000 -78.639300000000000 18792
Mon Apr 08 00:00:00 GMT 2013 adfitzgerald@woodlawnschool.org_Env_Studies_2013_reporter3 Red maple Acer rubrum Bud Burst 35.543200000000000 -80.847300000000000 18806
Fri Apr 12 00:00:00 GMT 2013 arabella Red maple Acer rubrum First Flower 41.271000000000000 -76.115700000000000 18856
Sun Apr 07 00:00:00 GMT 2013 nicholesnow Red maple Acer rubrum Bud Burst 37.389100000000000 -76.715200000000000 18886
Sat Apr 13 00:00:00 GMT 2013 mpgooley Red maple Acer rubrum Full Flower 42.355500000000000 -71.249000000000000 18888
Mon Apr 15 00:00:00 GMT 2013 srstebbi Red maple Acer rubrum First Flower 43.020400000000000 -76.126700000000000 18961
Tue Apr 16 00:00:00 GMT 2013 arabella Red maple Acer rubrum Full Flower 41.271000000000000 -76.115700000000000 18973
Mon Apr 15 00:00:00 GMT 2013 spike@stalux.org Red maple Acer rubrum Bud Burst 43.232100000000000 -70.859600000000000 18991
Sat Apr 20 00:00:00 GMT 2013 ncmns Red maple Acer rubrum Leaves Unfolding (Middle) 35.772100000000000 -78.638600000000000 19050
Sat Apr 20 00:00:00 GMT 2013 ncmns Red maple Acer rubrum Leaves Unfolding (Middle) 35.772100000000000 -78.638600000000000 19051
Sat Apr 20 00:00:00 GMT 2013 ncmns Red maple Acer rubrum Flowers (Late) 35.772100000000000 -78.638600000000000 19052
Wed Apr 24 00:00:00 GMT 2013 eshima Red maple Acer rubrum Bud Burst 42.069800000000000 -87.787800000000000 19216
Sat Apr 27 00:00:00 GMT 2013 ncmns Red maple Acer rubrum Leaves Unfolding (Late) 35.811700000000000 -78.713900000000000 19380
Tue Apr 30 00:00:00 GMT 2013 ncmns Red maple Acer rubrum Leaves Unfolding (Middle) 35.782300000000000 -78.639500000000000 19393
Sat Apr 13 00:00:00 GMT 2013 ncmns Red maple Acer rubrum Leaves Unfolding (Early) 35.811700000000000 -78.713900000000000 19378
Sat Mar 30 00:00:00 GMT 2013 ncmns Red maple Acer rubrum Leaves Unfolding (Early) 35.811700000000000 -78.713900000000000 19363
Wed Apr 24 00:00:00 GMT 2013 eziebold Red maple Acer rubrum First Flower 41.747600000000000 -72.691500000000000 19406
Mon Apr 08 00:00:00 GMT 2013 kwixted0 Red maple Acer rubrum First Leaf 39.061400000000000 -76.584300000000000 19441
Thu Apr 25 00:00:00 GMT 2013 kwixted0 Red maple Acer rubrum All Leaves Unfolded 39.061400000000000 -76.584300000000000 19442
Sat Mar 16 00:00:00 GMT 2013 kwixted0 Red maple Acer rubrum First Flower 39.061400000000000 -76.584300000000000 19443
Mon Mar 18 00:00:00 GMT 2013 kwixted0 Red maple Acer rubrum Full Flower 39.061400000000000 -76.584300000000000 19444
Mon Apr 29 00:00:00 GMT 2013 Prisms Red maple Acer rubrum All Leaves Unfolded 42.375900000000000 -72.705500000000000 19451
Mon Apr 22 00:00:00 GMT 2013 Prisms Red maple Acer rubrum Bud Burst 42.375900000000000 -72.705500000000000 19453
Fri Apr 26 00:00:00 GMT 2013 Prisms Red maple Acer rubrum First Leaf 42.375900000000000 -72.705500000000000 19454
Mon Apr 22 00:00:00 GMT 2013 Prisms Red maple Acer rubrum Bud Burst 42.375900000000000 -72.705500000000000 19460
Fri Apr 26 00:00:00 GMT 2013 Prisms Red maple Acer rubrum First Leaf 42.375900000000000 -72.705500000000000 19461
Mon Apr 15 00:00:00 GMT 2013 SalladeScience_SRHS_Outdoor_Classroom_reporter3 Red maple Acer rubrum Bud Burst 42.912300000000000 -71.069700000000000 19493
Mon Apr 29 00:00:00 GMT 2013 SalladeScience_SRHS_Outdoor_Classroom_reporter3 Red maple Acer rubrum First Leaf 42.912300000000000 -71.069700000000000 19494
Tue Apr 30 00:00:00 GMT 2013 SalladeScience_SRHS_Outdoor_Classroom_reporter3 Red maple Acer rubrum All Leaves Unfolded 42.912300000000000 -71.069700000000000 19495
Fri Apr 19 00:00:00 GMT 2013 SalladeScience_SRHS_Outdoor_Classroom_reporter3 Red maple Acer rubrum First Flower 42.912300000000000 -71.069700000000000 19496
Tue Apr 30 00:00:00 GMT 2013 lschwab Red maple Acer rubrum First Leaf 39.984700000000000 -105.268000000000000 19520
Fri May 03 00:00:00 GMT 2013 uconn Red maple Acer rubrum Flowers (Early) 41.810700000000000 -72.255300000000000 19627
Fri May 03 00:00:00 GMT 2013 uconn Red maple Acer rubrum Leaves Unfolding (Early) 41.810700000000000 -72.255300000000000 19611
Fri May 03 00:00:00 GMT 2013 uconn Red maple Acer rubrum Leaves Unfolding (Early) 41.817600000000000 -72.263300000000000 19613
Wed Apr 10 00:00:00 GMT 2013 uconn Red maple Acer rubrum Flowers (Early) 41.810700000000000 -72.255300000000000 19628
Mon Apr 29 00:00:00 GMT 2013 uconn Red maple Acer rubrum Leaves Unfolding (Early) 41.812700000000000 -72.255800000000000 19612
Fri May 03 00:00:00 GMT 2013 uconn Red maple Acer rubrum Fruit (Middle) 41.812700000000000 -72.255800000000000 19624
Sun May 05 00:00:00 GMT 2013 arabella Red maple Acer rubrum First Leaf 41.271000000000000 -76.115700000000000 19906
Sun May 05 00:00:00 GMT 2013 Maplerun Red maple Acer rubrum Bud Burst 45.696100000000000 -89.633900000000000 19950
Mon May 06 00:00:00 GMT 2013 Maplerun Red maple Acer rubrum First Flower 45.696100000000000 -89.633900000000000 19951
Wed Apr 10 00:00:00 GMT 2013 ggnoma Red maple Acer rubrum Bud Burst 38.986600000000000 -77.119000000000000 20147
Fri Apr 12 00:00:00 GMT 2013 ggnoma Red maple Acer rubrum First Leaf 38.986600000000000 -77.119000000000000 20148
Tue Apr 16 00:00:00 GMT 2013 ggnoma Red maple Acer rubrum All Leaves Unfolded 38.986600000000000 -77.119000000000000 20149
Thu May 09 00:00:00 GMT 2013 arabella Red maple Acer rubrum All Leaves Unfolded 41.271000000000000 -76.115700000000000 20200
Tue May 14 00:00:00 GMT 2013 Maplerun Red maple Acer rubrum First Leaf 45.696100000000000 -89.633900000000000 20448
Sun Mar 24 00:00:00 GMT 2013 Angelyn Red maple Acer rubrum Bud Burst 35.619100000000000 -82.765100000000000 20738
Wed Apr 17 00:00:00 GMT 2013 Angelyn Red maple Acer rubrum First Leaf 35.619100000000000 -82.765100000000000 20739
Sat Apr 20 00:00:00 GMT 2013 Angelyn Red maple Acer rubrum All Leaves Unfolded 35.619100000000000 -82.765100000000000 20740
Wed Mar 27 00:00:00 GMT 2013 Angelyn Red maple Acer rubrum First Flower 35.619100000000000 -82.765100000000000 20741
Mon May 20 00:00:00 GMT 2013 Maplerun Red maple Acer rubrum All Leaves Unfolded 45.696100000000000 -89.633900000000000 20824
Wed May 15 00:00:00 GMT 2013 Maplerun Red maple Acer rubrum Full Flower 45.696100000000000 -89.633900000000000 20825
Fri May 03 00:00:00 GMT 2013 libbyellwood Red maple Acer rubrum First Leaf 42.307400000000000 -71.120800000000000 20827
Fri May 03 00:00:00 GMT 2013 everillp Red maple Acer rubrum Leaves Unfolding (Middle) 42.301200000000000 -71.112100000000000 20832
Wed May 15 00:00:00 GMT 2013 SalladeScience_SRHS_Outdoor_Classroom_reporter3 Red maple Acer rubrum Full Flower 42.912300000000000 -71.069700000000000 20958
Tue May 21 00:00:00 GMT 2013 SalladeScience_SRHS_Outdoor_Classroom_reporter3 Red maple Acer rubrum First Ripe Fruit 42.912300000000000 -71.069700000000000 20959
Sat Apr 06 00:00:00 GMT 2013 SalladeScience_SRHS_Outdoor_Classroom_reporter3 Red maple Acer rubrum Full Fruiting 42.912300000000000 -71.069700000000000 20960
Sat Mar 30 00:00:00 GMT 2013 reinsteinwoods Red maple Acer rubrum Bud Burst 42.886600000000000 -78.718100000000000 21581
Tue Apr 30 00:00:00 GMT 2013 reinsteinwoods Red maple Acer rubrum First Leaf 42.886600000000000 -78.718100000000000 21582
Sun May 05 00:00:00 GMT 2013 reinsteinwoods Red maple Acer rubrum All Leaves Unfolded 42.886600000000000 -78.718100000000000 21583
Wed May 22 00:00:00 GMT 2013 reinsteinwoods Red maple Acer rubrum First Ripe Fruit 42.886600000000000 -78.718100000000000 21584
Mon Jun 24 00:00:00 GMT 2013 reinsteinwoods Red maple Acer rubrum Full Fruiting 42.886600000000000 -78.718100000000000 21585
Mon Mar 04 00:00:00 GMT 2013 SusannahPrindle Red maple Acer rubrum Bud Burst 39.096700000000000 -77.023900000000000 21742
Mon Apr 15 00:00:00 GMT 2013 SusannahPrindle Red maple Acer rubrum First Leaf 39.096700000000000 -77.023900000000000 21743
Sat Apr 20 00:00:00 GMT 2013 SusannahPrindle Red maple Acer rubrum All Leaves Unfolded 39.096700000000000 -77.023900000000000 21744
Wed Mar 20 00:00:00 GMT 2013 SusannahPrindle Red maple Acer rubrum First Flower 39.096700000000000 -77.023900000000000 21745
Wed Mar 27 00:00:00 GMT 2013 SusannahPrindle Red maple Acer rubrum Full Flower 39.096700000000000 -77.023900000000000 21746
Sat Sep 07 00:00:00 GMT 2013 lwieland48 Red maple Acer rubrum 50% Color 44.554600000000000 -73.235200000000000 21979
Mon Sep 09 00:00:00 GMT 2013 teamname Red maple Acer rubrum All Leaves Unfolded 41.372800000000000 -72.862600000000000 21981
Thu Sep 26 00:00:00 GMT 2013 lwieland48 Red maple Acer rubrum 50% Leaf Fall 44.554600000000000 -73.235200000000000 22222
Mon Sep 16 00:00:00 GMT 2013 joshfarley26 Red maple Acer rubrum Leaves Changing Color (Early) 35.413600000000000 -80.206300000000000 22310
Wed Oct 02 00:00:00 GMT 2013 arabella Red maple Acer rubrum 50% Color 41.271000000000000 -76.115700000000000 22330
Sun Sep 22 00:00:00 GMT 2013 jill_epperson Red maple Acer rubrum Leaves Dropping (Early) 36.100800000000000 -79.401400000000000 22331
Fri Oct 04 00:00:00 GMT 2013 dwagner Red maple Acer rubrum All Leaves Unfolded 27.984800000000000 -81.971000000000000 22489
Wed Oct 02 00:00:00 GMT 2013 tfadden Red maple Acer rubrum 50% Color 44.155340000000000 -72.083150000000000 22498
Wed Oct 02 00:00:00 GMT 2013 tfadden Red maple Acer rubrum Leaves Changing Color (Middle) 44.092500000000000 -72.049900000000000 22497
Mon Oct 07 00:00:00 GMT 2013 Susan Red maple Acer rubrum Leaves Changing Color (Middle) 37.558200000000000 -77.947800000000000 22510
Mon Oct 07 00:00:00 GMT 2013 Susan Red maple Acer rubrum Leaves Changing Color (Middle) 37.558200000000000 -77.947800000000000 22511
Sun Oct 06 00:00:00 GMT 2013 bmu south Red maple Acer rubrum Leaves Dropping (Early) 44.033400000000000 -72.126600000000000 22528
Tue Oct 08 00:00:00 GMT 2013 St Paul Tree Trek Red maple Acer rubrum All Leaves Unfolded 27.984800000000000 -81.971000000000000 22529
Tue Oct 15 00:00:00 GMT 2013 Susan Red maple Acer rubrum Leaves Dropping (Early) 37.558200000000000 -77.947800000000000 22592
Tue Oct 22 00:00:00 GMT 2013 rebeccakurson Red maple Acer rubrum 50% Color 40.777300000000000 -74.252300000000000 22729
Tue Oct 22 00:00:00 GMT 2013 mareseatoats Red maple Acer rubrum 50% Color 38.020100000000000 -78.634400000000000 22727
Thu Oct 17 00:00:00 GMT 2013 trumanfurr Red maple Acer rubrum 50% Color 35.359300000000000 -80.192900000000000 22806
Wed Oct 30 00:00:00 GMT 2013 robinv1_Washington_College_reporter2 Red maple Acer rubrum 50% Color 39.219200000000000 -76.069600000000000 22841
Wed Oct 30 00:00:00 GMT 2013 carlsmac4 Red maple Acer rubrum Leaves Changing Color (Middle) 35.109400000000000 -77.519200000000000 22829
Tue Oct 15 00:00:00 GMT 2013 chelslaine5391 Red maple Acer rubrum Leaves Unfolding (Late) 36.642300000000000 -88.738900000000000 22860
Thu Oct 31 00:00:00 GMT 2013 amcricket Red maple Acer rubrum Leaves Dropping (Middle) 40.114700000000000 -74.861800000000000 22897
Thu Oct 31 00:00:00 GMT 2013 amcricket Red maple Acer rubrum Leaves Changing Color (Middle) 40.114700000000000 -74.861800000000000 22896
Wed Oct 30 00:00:00 GMT 2013 Albumx23 Red maple Acer rubrum Leaves Changing Color (Late) 37.001600000000000 -88.458600000000000 22858
Wed Oct 30 00:00:00 GMT 2013 Albumx23 Red maple Acer rubrum Leaves Changing Color (Late) 37.001600000000000 -88.458600000000000 22859
Mon Oct 21 00:00:00 GMT 2013 Albumx23 Red maple Acer rubrum Leaves Changing Color (Middle) 37.001600000000000 -88.458600000000000 22857
Fri Oct 11 00:00:00 GMT 2013 Albumx23 Red maple Acer rubrum Leaves Changing Color (Early) 37.001600000000000 -88.458600000000000 22856
Thu Oct 17 00:00:00 GMT 2013 cyoungblood Red maple Acer rubrum 50% Color 36.981500000000000 -88.642200000000000 22916
Thu Oct 31 00:00:00 GMT 2013 cyoungblood Red maple Acer rubrum 50% Leaf Fall 36.981500000000000 -88.642200000000000 22917
Fri Nov 01 00:00:00 GMT 2013 dwagner Red maple Acer rubrum Leaves Changing Color (Early) 27.984800000000000 -81.971000000000000 22898
Wed Oct 16 00:00:00 GMT 2013 botanygametoostrong Red maple Acer rubrum 50% Color 41.372400000000000 -72.862500000000000 22901
Mon Oct 28 00:00:00 GMT 2013 botanygametoostrong Red maple Acer rubrum 50% Leaf Fall 41.372400000000000 -72.862500000000000 22902
Fri Nov 01 00:00:00 GMT 2013 Team Phoenix Red maple Acer rubrum Leaves Changing Color (Late) 37.906700000000000 -97.778100000000000 22904
Fri Nov 01 00:00:00 GMT 2013 dom121395 Red maple Acer rubrum Leaves Changing Color (Late) 41.374600000000000 -72.864900000000000 22905
Fri Nov 01 00:00:00 GMT 2013 teamname Red maple Acer rubrum 50% Leaf Fall 41.372800000000000 -72.862600000000000 22900
Tue Oct 22 00:00:00 GMT 2013 teamname Red maple Acer rubrum 50% Color 41.372800000000000 -72.862600000000000 22899
Mon Nov 04 00:00:00 GMT 2013 socerwolf Red maple Acer rubrum Leaves Dropping (Middle) 35.775800000000000 -78.856800000000000 22952
Mon Nov 04 00:00:00 GMT 2013 socerwolf Red maple Acer rubrum Leaves Dropping (Middle) 35.775800000000000 -78.856800000000000 22951
Mon Nov 04 00:00:00 GMT 2013 wildpansyks Red maple Acer rubrum 50% Color 35.046100000000000 -79.152800000000000 22948
Tue Nov 05 00:00:00 GMT 2013 taylor14a Red maple Acer rubrum Leaves Changing Color (Late) 35.713900000000000 -82.034500000000000 22975
Sat Oct 26 00:00:00 GMT 2013 iveyemmert Red maple Acer rubrum Bud Burst 36.390000000000000 -78.980000000000000 22958
Sun Oct 27 00:00:00 GMT 2013 iveyemmert Red maple Acer rubrum First Leaf 36.390000000000000 -78.980000000000000 22959
Thu Oct 31 00:00:00 GMT 2013 iveyemmert Red maple Acer rubrum All Leaves Unfolded 36.390000000000000 -78.980000000000000 22960
Wed Oct 30 00:00:00 GMT 2013 iveyemmert Red maple Acer rubrum 50% Color 36.390000000000000 -78.980000000000000 22961
Sat Nov 02 00:00:00 GMT 2013 iveyemmert Red maple Acer rubrum 50% Leaf Fall 36.390000000000000 -78.980000000000000 22962
Tue Nov 05 00:00:00 GMT 2013 audrey Red maple Acer rubrum Leaves Changing Color (Middle) 44.570800000000000 -123.264000000000000 22991
Thu Nov 07 00:00:00 GMT 2013 arabella Red maple Acer rubrum 50% Leaf Fall 41.271000000000000 -76.115700000000000 23017
Wed Sep 04 00:00:00 GMT 2013 marcepat Red maple Acer rubrum Full Fruiting 39.184900000000000 -86.517400000000000 23027
Sun Oct 27 00:00:00 GMT 2013 marcepat Red maple Acer rubrum 50% Color 39.184900000000000 -86.517400000000000 23028
Wed Nov 06 00:00:00 GMT 2013 marcepat Red maple Acer rubrum 50% Leaf Fall 39.184900000000000 -86.517400000000000 23029
Fri Nov 08 00:00:00 GMT 2013 dancyn2005 Red maple Acer rubrum Leaves Changing Color (Late) 36.823100000000000 -84.945100000000000 23024
Thu Nov 07 00:00:00 GMT 2013 ncmns Red maple Acer rubrum Leaves Changing Color (Late) 35.782300000000000 -78.639500000000000 23046
Sat Oct 12 00:00:00 GMT 2013 ncmns Red maple Acer rubrum Leaves Changing Color (Early) 35.811700000000000 -78.713900000000000 23062
Sat Nov 02 00:00:00 GMT 2013 ncmns Red maple Acer rubrum Leaves Changing Color (Early) 35.811700000000000 -78.713900000000000 23056
Wed Oct 16 00:00:00 GMT 2013 bterry Red maple Acer rubrum 50% Color 46.396000000000000 -116.802000000000000 23090
Sat Nov 02 00:00:00 GMT 2013 bterry Red maple Acer rubrum 50% Leaf Fall 46.396000000000000 -116.802000000000000 23091
Wed Oct 16 00:00:00 GMT 2013 bterry Red maple Acer rubrum 50% Color 46.396000000000000 -116.802000000000000 23088
Sat Nov 02 00:00:00 GMT 2013 bterry Red maple Acer rubrum 50% Leaf Fall 46.396000000000000 -116.802000000000000 23089
Thu Nov 07 00:00:00 GMT 2013 Nectarlane Red maple Acer rubrum 50% Leaf Fall 40.168200000000000 -74.813500000000000 23120
Wed Sep 11 00:00:00 GMT 2013 ilikeseep Red maple Acer rubrum Bud Burst 41.372200000000000 -72.863100000000000 23147
Thu Oct 10 00:00:00 GMT 2013 Kfunk Red maple Acer rubrum Leaves Changing Color (Middle) 39.167700000000000 -86.522500000000000 23153
Thu Oct 10 00:00:00 GMT 2013 Kfunk Red maple Acer rubrum Leaves Dropping (Middle) 39.167700000000000 -86.522500000000000 23154
Sat Nov 09 00:00:00 GMT 2013 bberry Red maple Acer rubrum 50% Color 40.766600000000000 -73.974900000000000 23140
Fri Oct 25 00:00:00 GMT 2013 kashrews Red maple Acer rubrum 50% Color 39.152500000000000 -86.491500000000000 23196
Sun Nov 03 00:00:00 GMT 2013 kashrews Red maple Acer rubrum 50% Leaf Fall 39.152500000000000 -86.491500000000000 23197
Wed Oct 23 00:00:00 GMT 2013 kashrews Red maple Acer rubrum 50% Color 39.152500000000000 -86.491900000000000 23194
Mon Nov 04 00:00:00 GMT 2013 kashrews Red maple Acer rubrum 50% Leaf Fall 39.152500000000000 -86.491900000000000 23195
Sat Nov 02 00:00:00 GMT 2013 sisaacso Red maple Acer rubrum 50% Color 39.055600000000000 -86.161100000000000 23202
Tue Nov 12 00:00:00 GMT 2013 sisaacso Red maple Acer rubrum 50% Leaf Fall 39.055600000000000 -86.161100000000000 23203
Mon Sep 09 00:00:00 GMT 2013 jialyu Red maple Acer rubrum 50% Color 39.153900000000000 -86.492600000000000 23255
Mon Nov 04 00:00:00 GMT 2013 jialyu Red maple Acer rubrum 50% Leaf Fall 39.153900000000000 -86.492600000000000 23256
Sun Sep 22 00:00:00 GMT 2013 Tjharnish91 Red maple Acer rubrum 50% Color 39.173900000000000 -86.532700000000000 23300
Mon Oct 21 00:00:00 GMT 2013 Tjharnish91 Red maple Acer rubrum 50% Leaf Fall 39.173900000000000 -86.532700000000000 23301
Thu Oct 17 00:00:00 GMT 2013 Tjharnish91 Red maple Acer rubrum 50% Color 39.173800000000000 -86.532500000000000 23285
Sun Nov 03 00:00:00 GMT 2013 Tjharnish91 Red maple Acer rubrum 50% Leaf Fall 39.173800000000000 -86.532500000000000 23286
Sun Oct 27 00:00:00 GMT 2013 ermmaybe Red maple Acer rubrum 50% Color 39.167200000000000 -86.513200000000000 23500
Sat Nov 02 00:00:00 GMT 2013 ermmaybe Red maple Acer rubrum 50% Leaf Fall 39.167200000000000 -86.513200000000000 23501
Wed Sep 04 00:00:00 GMT 2013 emmehren Red maple Acer rubrum Bud Burst 39.165300000000000 -86.526400000000000 23528
Wed Nov 06 00:00:00 GMT 2013 emmehren Red maple Acer rubrum 50% Color 39.165300000000000 -86.526400000000000 23529
Wed Nov 06 00:00:00 GMT 2013 emmehren Red maple Acer rubrum 50% Leaf Fall 39.165300000000000 -86.526400000000000 23530
Sun Nov 17 00:00:00 GMT 2013 add21792 Red maple Acer rubrum Leaves Changing Color (Middle) 39.184800000000000 -86.532100000000000 23508
Tue Nov 12 00:00:00 GMT 2013 amypalme Red maple Acer rubrum 50% Color 39.166400000000000 -86.510200000000000 23562
Tue Nov 12 00:00:00 GMT 2013 amypalme Red maple Acer rubrum 50% Leaf Fall 39.166400000000000 -86.510200000000000 23563
Tue Oct 01 00:00:00 GMT 2013 amypalme Red maple Acer rubrum 50% Color 39.166300000000000 -86.511600000000000 23566
Tue Oct 15 00:00:00 GMT 2013 amypalme Red maple Acer rubrum 50% Leaf Fall 39.166300000000000 -86.511600000000000 23567
Wed Oct 23 00:00:00 GMT 2013 loshouse Red maple Acer rubrum 50% Color 39.165600000000000 -86.512700000000000 23586
Mon Nov 04 00:00:00 GMT 2013 loshouse Red maple Acer rubrum 50% Leaf Fall 39.165600000000000 -86.512700000000000 23587
Wed Oct 23 00:00:00 GMT 2013 loshouse Red maple Acer rubrum 50% Color 39.165600000000000 -86.512700000000000 23584
Mon Nov 04 00:00:00 GMT 2013 loshouse Red maple Acer rubrum 50% Leaf Fall 39.165600000000000 -86.512700000000000 23585
Tue Sep 03 00:00:00 GMT 2013 amypalme Red maple Acer rubrum Leaves Changing Color (Early) 39.166400000000000 -86.510200000000000 23560
Wed Oct 23 00:00:00 GMT 2013 loshouse Red maple Acer rubrum 50% Color 39.166400000000000 -86.513400000000000 23558
Tue Nov 05 00:00:00 GMT 2013 loshouse Red maple Acer rubrum 50% Leaf Fall 39.166400000000000 -86.513400000000000 23559
Tue Oct 01 00:00:00 GMT 2013 amypalme Red maple Acer rubrum 50% Color 39.166300000000000 -86.511600000000000 23568
Tue Oct 29 00:00:00 GMT 2013 amypalme Red maple Acer rubrum 50% Leaf Fall 39.166300000000000 -86.511600000000000 23569
Sun Oct 13 00:00:00 GMT 2013 owensmt Red maple Acer rubrum 50% Color 39.170300000000000 -86.524000000000000 23607
Mon Nov 04 00:00:00 GMT 2013 owensmt Red maple Acer rubrum 50% Leaf Fall 39.170300000000000 -86.524000000000000 23608
Tue Nov 05 00:00:00 GMT 2013 AmyEsparza Red maple Acer rubrum 50% Color 39.167600000000000 -86.514200000000000 23599
Mon Nov 18 00:00:00 GMT 2013 AmyEsparza Red maple Acer rubrum 50% Leaf Fall 39.167600000000000 -86.514200000000000 23600
Tue Oct 22 00:00:00 GMT 2013 soosup Red maple Acer rubrum 50% Color 39.168000000000000 -86.512700000000000 23626
Fri Nov 01 00:00:00 GMT 2013 soosup Red maple Acer rubrum 50% Leaf Fall 39.168000000000000 -86.512700000000000 23627
Tue Oct 22 00:00:00 GMT 2013 soosup Red maple Acer rubrum First Ripe Fruit 39.168000000000000 -86.512700000000000 23636
Fri Nov 01 00:00:00 GMT 2013 soosup Red maple Acer rubrum Full Fruiting 39.168000000000000 -86.512700000000000 23637
Fri Oct 25 00:00:00 GMT 2013 nshedd Red maple Acer rubrum 50% Color 39.168200000000000 -86.503500000000000 23642
Tue Oct 29 00:00:00 GMT 2013 nshedd Red maple Acer rubrum 50% Leaf Fall 39.168200000000000 -86.503500000000000 23643
Tue Oct 22 00:00:00 GMT 2013 nshedd Red maple Acer rubrum 50% Color 39.168300000000000 -86.507100000000000 23644
Tue Nov 12 00:00:00 GMT 2013 nshedd Red maple Acer rubrum 50% Leaf Fall 39.168300000000000 -86.507100000000000 23645
Mon Nov 18 00:00:00 GMT 2013 wildpansyks Red maple Acer rubrum 50% Leaf Fall 35.046100000000000 -79.152800000000000 23668
Wed Sep 11 00:00:00 GMT 2013 ilikeseep Red maple Acer rubrum First Leaf 41.372200000000000 -72.863100000000000 23675
Fri Oct 18 00:00:00 GMT 2013 ilikeseep Red maple Acer rubrum 50% Color 41.372200000000000 -72.863100000000000 23676
Wed Nov 13 00:00:00 GMT 2013 ilikeseep Red maple Acer rubrum 50% Leaf Fall 41.372200000000000 -72.863100000000000 23677
Thu Nov 14 00:00:00 GMT 2013 rkclark Red maple Acer rubrum 50% Leaf Fall 35.869200000000000 -78.727900000000000 23979
Sat Nov 23 00:00:00 GMT 2013 bberry Red maple Acer rubrum 50% Leaf Fall 40.766600000000000 -73.974900000000000 23997
Mon Nov 04 00:00:00 GMT 2013 robinv1_Washington_College_reporter2 Red maple Acer rubrum 50% Leaf Fall 39.219200000000000 -76.069600000000000 24170
Sun Oct 06 00:00:00 GMT 2013 mpgooley Red maple Acer rubrum 50% Color 42.355500000000000 -71.249000000000000 24199
Sun Nov 10 00:00:00 GMT 2013 robinv1_Washington_College_reporter23 Red maple Acer rubrum 50% Color 39.219200000000000 -76.069600000000000 24253
Thu Nov 07 00:00:00 GMT 2013 robinv1_Washington_College_reporter23 Red maple Acer rubrum 50% Leaf Fall 39.219200000000000 -76.069600000000000 24254
Thu Dec 19 00:00:00 GMT 2013 hcps-sawhneyj Red maple Acer rubrum Leaves Dropping (Late) 37.630700000000000 -77.544000000000000 24503
Wed Dec 18 00:00:00 GMT 2013 dwagner Red maple Acer rubrum 50% Color 27.984800000000000 -81.971000000000000 24574
Thu Apr 04 00:00:00 GMT 2013 tuckerasso Red maple Acer rubrum All Leaves Unfolded 37.231600000000000 -76.663600000000000 24593
Thu Feb 21 00:00:00 GMT 2013 tuckerasso Red maple Acer rubrum First Flower 37.231600000000000 -76.663600000000000 24594
Fri Mar 22 00:00:00 GMT 2013 tuckerasso Red maple Acer rubrum Full Flower 37.231600000000000 -76.663600000000000 24595
Thu Apr 04 00:00:00 GMT 2013 tuckerasso Red maple Acer rubrum Full Fruiting 37.231600000000000 -76.663600000000000 24596
Mon Nov 25 00:00:00 GMT 2013 tuckerasso Red maple Acer rubrum 50% Color 37.231600000000000 -76.663600000000000 24597
Fri Oct 25 00:00:00 GMT 2013 tuckerasso Red maple Acer rubrum 50% Leaf Fall 37.231600000000000 -76.663600000000000 24598
Tue Oct 20 00:00:00 GMT 2015 psaunder Red maple Acer rubrum 50% Color 40.812820000000000 -82.349950000000000 61421
Thu Nov 05 00:00:00 GMT 2015 psaunder Red maple Acer rubrum 50% Leaf Fall 40.812820000000000 -82.349950000000000 61422
Tue Dec 08 00:00:00 GMT 2015 beenature Red maple Acer rubrum Leaves Unfolding (None) 40.000000000000000 -100.000000000000000 61491
Tue Dec 08 00:00:00 GMT 2015 beenature Red maple Acer rubrum Leaves Changing Color (Late) 40.000000000000000 -100.000000000000000 61492
Tue Dec 08 00:00:00 GMT 2015 beenature Red maple Acer rubrum Leaves Dropping (Late) 40.000000000000000 -100.000000000000000 61493
Tue Dec 08 00:00:00 GMT 2015 beenature Red maple Acer rubrum Flowers (None) 40.000000000000000 -100.000000000000000 61494
Tue Dec 08 00:00:00 GMT 2015 beenature Red maple Acer rubrum Fruit (None) 40.000000000000000 -100.000000000000000 61495
Wed Nov 04 00:00:00 GMT 2015 SusannahPrindle Red maple Acer rubrum 50% Color 39.096700000000000 -77.023900000000000 61569
Tue Nov 10 00:00:00 GMT 2015 SusannahPrindle Red maple Acer rubrum 50% Leaf Fall 39.096700000000000 -77.023900000000000 61570
Tue Jan 19 00:00:00 GMT 2016 StPaulEagles Red maple Acer rubrum Leaves Unfolding (None) 40.000000000000000 -100.000000000000000 61583
Tue Jan 19 00:00:00 GMT 2016 StPaulEagles Red maple Acer rubrum Leaves Changing Color (Late) 40.000000000000000 -100.000000000000000 61584
Tue Jan 19 00:00:00 GMT 2016 StPaulEagles Red maple Acer rubrum Leaves Dropping (Early) 40.000000000000000 -100.000000000000000 61585
Tue Jan 19 00:00:00 GMT 2016 StPaulEagles Red maple Acer rubrum Flowers (None) 40.000000000000000 -100.000000000000000 61586
Tue Jan 19 00:00:00 GMT 2016 StPaulEagles Red maple Acer rubrum Fruit (None) 40.000000000000000 -100.000000000000000 61587
Tue Apr 21 00:00:00 GMT 2015 tuckerasso Red maple Acer rubrum First Leaf 37.231600000000000 -76.663600000000000 61674
Thu Apr 30 00:00:00 GMT 2015 tuckerasso Red maple Acer rubrum All Leaves Unfolded 37.231600000000000 -76.663600000000000 61675
Fri Mar 20 00:00:00 GMT 2015 tuckerasso Red maple Acer rubrum First Flower 37.231600000000000 -76.663600000000000 61676
Tue Mar 31 00:00:00 GMT 2015 tuckerasso Red maple Acer rubrum Full Flower 37.231600000000000 -76.663600000000000 61677
Fri Apr 03 00:00:00 GMT 2015 tuckerasso Red maple Acer rubrum First Ripe Fruit 37.231600000000000 -76.663600000000000 61678
Mon Apr 06 00:00:00 GMT 2015 tuckerasso Red maple Acer rubrum Full Fruiting 37.231600000000000 -76.663600000000000 61679
Fri Nov 20 00:00:00 GMT 2015 tuckerasso Red maple Acer rubrum 50% Leaf Fall 37.231600000000000 -76.663600000000000 61680
Mon Jan 25 00:00:00 GMT 2016 StPaulEagles Red maple Acer rubrum Leaves Unfolding (None) 40.000000000000000 -100.000000000000000 61716
Mon Jan 25 00:00:00 GMT 2016 StPaulEagles Red maple Acer rubrum Leaves Changing Color (Late) 40.000000000000000 -100.000000000000000 61717
Mon Jan 25 00:00:00 GMT 2016 StPaulEagles Red maple Acer rubrum Leaves Dropping (Middle) 40.000000000000000 -100.000000000000000 61718
Mon Jan 25 00:00:00 GMT 2016 StPaulEagles Red maple Acer rubrum Flowers (None) 40.000000000000000 -100.000000000000000 61719
Mon Jan 25 00:00:00 GMT 2016 StPaulEagles Red maple Acer rubrum Fruit (None) 40.000000000000000 -100.000000000000000 61720
Mon Feb 01 00:00:00 GMT 2016 Charitys9 Red maple Acer rubrum Leaves Unfolding (None) 35.096860000000000 -89.904270000000000 61733
Mon Feb 01 00:00:00 GMT 2016 Charitys9 Red maple Acer rubrum Leaves Changing Color (None) 35.096860000000000 -89.904270000000000 61734
Mon Feb 01 00:00:00 GMT 2016 Charitys9 Red maple Acer rubrum Leaves Dropping (None) 35.096860000000000 -89.904270000000000 61735
Mon Feb 01 00:00:00 GMT 2016 Charitys9 Red maple Acer rubrum Flowers (Middle) 35.096860000000000 -89.904270000000000 61736
Mon Feb 01 00:00:00 GMT 2016 Charitys9 Red maple Acer rubrum Fruit (None) 35.096860000000000 -89.904270000000000 61737
Sat Feb 20 00:00:00 GMT 2016 Login1 Red maple Acer rubrum Leaves Unfolding (None) 35.469483000000000 -82.744546000000000 61987
Sat Feb 20 00:00:00 GMT 2016 Login1 Red maple Acer rubrum Leaves Changing Color (None) 35.469483000000000 -82.744546000000000 61988
Sat Feb 20 00:00:00 GMT 2016 Login1 Red maple Acer rubrum Leaves Dropping (Late) 35.469483000000000 -82.744546000000000 61989
Sat Feb 20 00:00:00 GMT 2016 Login1 Red maple Acer rubrum Flowers (None) 35.469483000000000 -82.744546000000000 61990
Sat Feb 20 00:00:00 GMT 2016 Login1 Red maple Acer rubrum Fruit (None) 35.469483000000000 -82.744546000000000 61991
Sat Apr 18 00:00:00 GMT 2015 mpgooley Red maple Acer rubrum Bud Burst 42.355500000000000 -71.249000000000000 62059
Sat Apr 18 00:00:00 GMT 2015 mpgooley Red maple Acer rubrum First Flower 42.355500000000000 -71.249000000000000 62060
Sat Apr 25 00:00:00 GMT 2015 mpgooley Red maple Acer rubrum Full Flower 42.355500000000000 -71.249000000000000 62061
Wed May 13 00:00:00 GMT 2015 mpgooley Red maple Acer rubrum First Ripe Fruit 42.355500000000000 -71.249000000000000 62062
Sat Oct 10 00:00:00 GMT 2015 mpgooley Red maple Acer rubrum 50% Color 42.355500000000000 -71.249000000000000 62063
Sun Oct 18 00:00:00 GMT 2015 mpgooley Red maple Acer rubrum 50% Leaf Fall 42.355500000000000 -71.249000000000000 62064
Fri Feb 19 00:00:00 GMT 2016 ddouglass2005 Red maple Acer rubrum Bud Burst 36.968890000000000 -90.149925000000000 62074
Sun Feb 14 00:00:00 GMT 2016 RiverRambleTrail Red maple Acer rubrum Leaves Unfolding (None) 29.734048000000000 -84.998066000000000 62096
Sun Feb 14 00:00:00 GMT 2016 RiverRambleTrail Red maple Acer rubrum Leaves Changing Color (None) 29.734048000000000 -84.998066000000000 62097
Sun Feb 14 00:00:00 GMT 2016 RiverRambleTrail Red maple Acer rubrum Leaves Dropping (None) 29.734048000000000 -84.998066000000000 62098
Sun Feb 14 00:00:00 GMT 2016 RiverRambleTrail Red maple Acer rubrum Flowers (Early) 29.734048000000000 -84.998066000000000 62099
Sun Feb 14 00:00:00 GMT 2016 RiverRambleTrail Red maple Acer rubrum Fruit (None) 29.734048000000000 -84.998066000000000 62100
Tue Mar 08 00:00:00 GMT 2016 susansteinermhs Red maple Acer rubrum First Flower 35.087580000000000 -84.034630000000000 62317
Tue Mar 08 00:00:00 GMT 2016 martybaker_streamwood_high_school_reporter31 Red maple Acer rubrum Leaves Unfolding (None) 42.030153000000000 -88.197695000000000 62373
Tue Mar 08 00:00:00 GMT 2016 martybaker_streamwood_high_school_reporter31 Red maple Acer rubrum Leaves Changing Color (None) 42.030153000000000 -88.197695000000000 62374
Tue Mar 08 00:00:00 GMT 2016 martybaker_streamwood_high_school_reporter31 Red maple Acer rubrum Leaves Dropping (None) 42.030153000000000 -88.197695000000000 62375
Tue Mar 08 00:00:00 GMT 2016 martybaker_streamwood_high_school_reporter31 Red maple Acer rubrum Flowers (None) 42.030153000000000 -88.197695000000000 62376
Tue Mar 08 00:00:00 GMT 2016 martybaker_streamwood_high_school_reporter31 Red maple Acer rubrum Fruit (None) 42.030153000000000 -88.197695000000000 62377
Thu Mar 10 00:00:00 GMT 2016 RHHunter47 Red maple Acer rubrum Leaves Unfolding (None) 40.679870000000000 -74.230940000000000 62405
Thu Mar 10 00:00:00 GMT 2016 RHHunter47 Red maple Acer rubrum Leaves Changing Color (None) 40.679870000000000 -74.230940000000000 62406
Thu Mar 10 00:00:00 GMT 2016 RHHunter47 Red maple Acer rubrum Leaves Dropping (None) 40.679870000000000 -74.230940000000000 62407
Thu Mar 10 00:00:00 GMT 2016 RHHunter47 Red maple Acer rubrum Flowers (Middle) 40.679870000000000 -74.230940000000000 62408
Thu Mar 10 00:00:00 GMT 2016 RHHunter47 Red maple Acer rubrum Fruit (None) 40.679870000000000 -74.230940000000000 62409
Tue Mar 08 00:00:00 GMT 2016 bethwilson Red maple Acer rubrum First Flower 37.150000000000000 -84.625000000000000 62426
Fri Mar 11 00:00:00 GMT 2016 bethwilson Red maple Acer rubrum Full Flower 37.150000000000000 -84.625000000000000 62427
Wed Mar 09 00:00:00 GMT 2016 amt27 Red maple Acer rubrum Bud Burst 40.264700000000000 -74.955800000000000 62428
Wed Mar 09 00:00:00 GMT 2016 amt27 Red maple Acer rubrum First Flower 40.264700000000000 -74.955800000000000 62487
Fri Mar 11 00:00:00 GMT 2016 amt27 Red maple Acer rubrum Full Flower 40.264700000000000 -74.955800000000000 62488
Wed Mar 09 00:00:00 GMT 2016 bthomps1 Red maple Acer rubrum Full Flower 38.195980000000000 -85.534280000000000 62520
Tue Mar 15 00:00:00 GMT 2016 bthomps1 Red maple Acer rubrum Leaves Unfolding (None) 38.195522000000000 -85.534375000000000 62521
Tue Mar 15 00:00:00 GMT 2016 bthomps1 Red maple Acer rubrum Leaves Changing Color (None) 38.195522000000000 -85.534375000000000 62522
Tue Mar 15 00:00:00 GMT 2016 bthomps1 Red maple Acer rubrum Leaves Dropping (None) 38.195522000000000 -85.534375000000000 62523
Tue Mar 15 00:00:00 GMT 2016 bthomps1 Red maple Acer rubrum Flowers (Late) 38.195522000000000 -85.534375000000000 62524
Tue Mar 15 00:00:00 GMT 2016 bthomps1 Red maple Acer rubrum Fruit (None) 38.195522000000000 -85.534375000000000 62525
Tue Mar 15 00:00:00 GMT 2016 avand286 Red maple Acer rubrum Leaves Unfolding (None) 44.317830000000000 -88.455391000000000 62532
Tue Mar 15 00:00:00 GMT 2016 avand286 Red maple Acer rubrum Leaves Changing Color (None) 44.317830000000000 -88.455391000000000 62533
Tue Mar 15 00:00:00 GMT 2016 avand286 Red maple Acer rubrum Leaves Dropping (None) 44.317830000000000 -88.455391000000000 62534
Tue Mar 15 00:00:00 GMT 2016 avand286 Red maple Acer rubrum Flowers (Early) 44.317830000000000 -88.455391000000000 62535
Tue Mar 15 00:00:00 GMT 2016 avand286 Red maple Acer rubrum Fruit (None) 44.317830000000000 -88.455391000000000 62536
Tue Mar 15 00:00:00 GMT 2016 woodsedge Red maple Acer rubrum Full Flower 38.565400000000000 -78.926000000000000 62625
Mon Mar 14 00:00:00 GMT 2016 mcm205 Red maple Acer rubrum Bud Burst 39.111060000000000 -76.985360000000000 62633
Fri Mar 04 00:00:00 GMT 2016 jlbrichetto Red maple Acer rubrum Full Flower 36.138966000000000 -86.801675000000000 62779
Thu Mar 17 00:00:00 GMT 2016 jlbrichetto Red maple Acer rubrum First Ripe Fruit 36.138966000000000 -86.801675000000000 62780
Mon Mar 21 00:00:00 GMT 2016 Hmayberry Red maple Acer rubrum Leaves Unfolding (None) 36.928299000000000 -80.020777000000000 62843
Mon Mar 21 00:00:00 GMT 2016 Hmayberry Red maple Acer rubrum Leaves Changing Color (None) 36.928299000000000 -80.020777000000000 62844
Mon Mar 21 00:00:00 GMT 2016 Hmayberry Red maple Acer rubrum Leaves Dropping (None) 36.928299000000000 -80.020777000000000 62845
Mon Mar 21 00:00:00 GMT 2016 Hmayberry Red maple Acer rubrum Flowers (None) 36.928299000000000 -80.020777000000000 62846
Mon Mar 21 00:00:00 GMT 2016 Hmayberry Red maple Acer rubrum Fruit (None) 36.928299000000000 -80.020777000000000 62847
Tue Mar 15 00:00:00 GMT 2016 Hmayberry Red maple Acer rubrum Bud Burst 36.928239000000000 -80.021222000000000 62848
Thu Mar 10 00:00:00 GMT 2016 rebecca_whitson Red maple Acer rubrum Bud Burst 40.120300000000000 -76.036300000000000 63106
Fri Mar 18 00:00:00 GMT 2016 rebecca_whitson Red maple Acer rubrum First Flower 40.120300000000000 -76.036300000000000 63107
Wed Mar 23 00:00:00 GMT 2016 cpmacdonnell Red maple Acer rubrum Leaves Unfolding (None) 26.108520000000000 -81.771410000000000 63379
Wed Mar 23 00:00:00 GMT 2016 cpmacdonnell Red maple Acer rubrum Leaves Changing Color (None) 26.108520000000000 -81.771410000000000 63380
Wed Mar 23 00:00:00 GMT 2016 cpmacdonnell Red maple Acer rubrum Leaves Dropping (Late) 26.108520000000000 -81.771410000000000 63381
Wed Mar 23 00:00:00 GMT 2016 cpmacdonnell Red maple Acer rubrum Flowers (Middle) 26.108520000000000 -81.771410000000000 63382
Wed Mar 23 00:00:00 GMT 2016 cpmacdonnell Red maple Acer rubrum Fruit (None) 26.108520000000000 -81.771410000000000 63383
Sat Mar 26 00:00:00 GMT 2016 mpgooley Red maple Acer rubrum Leaves Unfolding (None) 42.411281000000000 -71.456654000000000 63524
Sat Mar 26 00:00:00 GMT 2016 mpgooley Red maple Acer rubrum Leaves Changing Color (None) 42.411281000000000 -71.456654000000000 63525
Sat Mar 26 00:00:00 GMT 2016 mpgooley Red maple Acer rubrum Leaves Dropping (None) 42.411281000000000 -71.456654000000000 63526
Sat Mar 26 00:00:00 GMT 2016 mpgooley Red maple Acer rubrum Flowers (Middle) 42.411281000000000 -71.456654000000000 63527
Sat Mar 26 00:00:00 GMT 2016 mpgooley Red maple Acer rubrum Fruit (None) 42.411281000000000 -71.456654000000000 63528
Mon Mar 28 00:00:00 GMT 2016 mcm205 Red maple Acer rubrum First Leaf 39.111060000000000 -76.985360000000000 63644
Wed Mar 30 00:00:00 GMT 2016 NHLilja Red maple Acer rubrum Bud Burst 43.289522000000000 -70.949879000000000 63665
Sat Mar 26 00:00:00 GMT 2016 kendallma Red maple Acer rubrum Leaves Unfolding (None) 42.219520000000000 -71.009210000000000 63720
Sat Mar 26 00:00:00 GMT 2016 kendallma Red maple Acer rubrum Leaves Changing Color (None) 42.219520000000000 -71.009210000000000 63721
Sat Mar 26 00:00:00 GMT 2016 kendallma Red maple Acer rubrum Leaves Dropping (None) 42.219520000000000 -71.009210000000000 63722
Sat Mar 26 00:00:00 GMT 2016 kendallma Red maple Acer rubrum Flowers (Middle) 42.219520000000000 -71.009210000000000 63723
Sat Mar 26 00:00:00 GMT 2016 kendallma Red maple Acer rubrum Fruit (None) 42.219520000000000 -71.009210000000000 63724
Wed Mar 02 00:00:00 GMT 2016 jazajac Red maple Acer rubrum Bud Burst 39.166820000000000 -86.512388000000000 63830
Thu Mar 10 00:00:00 GMT 2016 jazajac Red maple Acer rubrum Full Flower 39.166820000000000 -86.512388000000000 63831
Tue Apr 05 00:00:00 GMT 2016 jazajac Red maple Acer rubrum First Ripe Fruit 39.166820000000000 -86.512388000000000 63832
Fri Jan 22 00:00:00 GMT 2016 hopstrel Red maple Acer rubrum 50% Leaf Fall 39.169506000000000 -86.512753000000000 63842
Tue Mar 29 00:00:00 GMT 2016 morrowm Red maple Acer rubrum Bud Burst 39.170790000000000 -86.530040000000000 63932
Sun Apr 10 00:00:00 GMT 2016 Riccardino Red maple Acer rubrum Leaves Unfolding (None) 41.580200000000000 -71.078980000000000 63933
Sun Apr 10 00:00:00 GMT 2016 Riccardino Red maple Acer rubrum Leaves Changing Color (None) 41.580200000000000 -71.078980000000000 63934
Sun Apr 10 00:00:00 GMT 2016 Riccardino Red maple Acer rubrum Leaves Dropping (None) 41.580200000000000 -71.078980000000000 63935
Sun Apr 10 00:00:00 GMT 2016 Riccardino Red maple Acer rubrum Flowers (Middle) 41.580200000000000 -71.078980000000000 63936
Sun Apr 10 00:00:00 GMT 2016 Riccardino Red maple Acer rubrum Fruit (None) 41.580200000000000 -71.078980000000000 63937
Sun Apr 10 00:00:00 GMT 2016 krreader Red maple Acer rubrum Leaves Unfolding (Middle) 39.167050000000000 -86.526380000000000 64012
Sun Apr 10 00:00:00 GMT 2016 krreader Red maple Acer rubrum Leaves Changing Color (None) 39.167050000000000 -86.526380000000000 64013
Sun Apr 10 00:00:00 GMT 2016 krreader Red maple Acer rubrum Leaves Dropping (None) 39.167050000000000 -86.526380000000000 64014
Sun Apr 10 00:00:00 GMT 2016 krreader Red maple Acer rubrum Flowers (Middle) 39.167050000000000 -86.526380000000000 64015
Sun Apr 10 00:00:00 GMT 2016 krreader Red maple Acer rubrum Fruit (None) 39.167050000000000 -86.526380000000000 64016
Sun Feb 28 00:00:00 GMT 2016 flora_rara Red maple Acer rubrum Bud Burst 39.167436000000000 -86.523523000000000 64049
Sun Mar 06 00:00:00 GMT 2016 flora_rara Red maple Acer rubrum First Leaf 39.167436000000000 -86.523523000000000 64050
Sun Mar 13 00:00:00 GMT 2016 flora_rara Red maple Acer rubrum All Leaves Unfolded 39.167436000000000 -86.523523000000000 64051
Sun Mar 27 00:00:00 GMT 2016 flora_rara Red maple Acer rubrum 50% Color 39.167436000000000 -86.523523000000000 64052
Mon Mar 28 00:00:00 GMT 2016 courtwesson Red maple Acer rubrum Bud Burst 39.167435000000000 -86.511755000000000 64179
Fri Apr 01 00:00:00 GMT 2016 courtwesson Red maple Acer rubrum First Flower 39.167435000000000 -86.511755000000000 64180
Mon Mar 28 00:00:00 GMT 2016 courtwesson Red maple Acer rubrum Bud Burst 39.167302000000000 -86.511412000000000 64189
Fri Apr 01 00:00:00 GMT 2016 courtwesson Red maple Acer rubrum First Leaf 39.167302000000000 -86.511412000000000 64190
Wed Mar 23 00:00:00 GMT 2016 meghanotto Red maple Acer rubrum Bud Burst 39.167050000000000 -86.526940000000000 64199
Wed Apr 06 00:00:00 GMT 2016 meghanotto Red maple Acer rubrum First Leaf 39.167050000000000 -86.526940000000000 64200
Fri Apr 08 00:00:00 GMT 2016 meghanotto Red maple Acer rubrum All Leaves Unfolded 39.167050000000000 -86.526940000000000 64201
Fri Mar 25 00:00:00 GMT 2016 meghanotto Red maple Acer rubrum First Flower 39.167050000000000 -86.526940000000000 64202
Wed Mar 30 00:00:00 GMT 2016 meghanotto Red maple Acer rubrum Full Flower 39.167050000000000 -86.526940000000000 64203
Sun Apr 10 00:00:00 GMT 2016 vanderas Red maple Acer rubrum Leaves Unfolding (Middle) 39.169182000000000 -86.528288000000000 64221
Sun Apr 10 00:00:00 GMT 2016 vanderas Red maple Acer rubrum Leaves Changing Color (None) 39.169182000000000 -86.528288000000000 64222
Sun Apr 10 00:00:00 GMT 2016 vanderas Red maple Acer rubrum Leaves Dropping (None) 39.169182000000000 -86.528288000000000 64223
Sun Apr 10 00:00:00 GMT 2016 vanderas Red maple Acer rubrum Flowers (None) 39.169182000000000 -86.528288000000000 64224
Sun Apr 10 00:00:00 GMT 2016 vanderas Red maple Acer rubrum Fruit (None) 39.169182000000000 -86.528288000000000 64225
Wed Jan 20 00:00:00 GMT 2016 lkurucz Red maple Acer rubrum Leaves Unfolding (None) 39.167050000000000 -86.526940000000000 64305
Wed Jan 20 00:00:00 GMT 2016 lkurucz Red maple Acer rubrum Leaves Changing Color (None) 39.167050000000000 -86.526940000000000 64306
Wed Jan 20 00:00:00 GMT 2016 lkurucz Red maple Acer rubrum Leaves Dropping (None) 39.167050000000000 -86.526940000000000 64307
Wed Jan 20 00:00:00 GMT 2016 lkurucz Red maple Acer rubrum Flowers (None) 39.167050000000000 -86.526940000000000 64308
Wed Jan 20 00:00:00 GMT 2016 lkurucz Red maple Acer rubrum Fruit (None) 39.167050000000000 -86.526940000000000 64309
Fri Mar 11 00:00:00 GMT 2016 elongbots Red maple Acer rubrum Bud Burst 39.165330000000000 -86.526390000000000 64329
Tue Mar 22 00:00:00 GMT 2016 sydneynelson Red maple Acer rubrum Bud Burst 39.178280000000000 -86.511870000000000 64333
Tue Mar 22 00:00:00 GMT 2016 sydneynelson Red maple Acer rubrum First Flower 39.178280000000000 -86.511870000000000 64334
Sun Feb 14 00:00:00 GMT 2016 KDFoster2016 Red maple Acer rubrum Bud Burst 39.205310000000000 -86.479440000000000 64387
Tue Mar 08 00:00:00 GMT 2016 KDFoster2016 Red maple Acer rubrum First Leaf 39.205310000000000 -86.479440000000000 64388
Thu Mar 31 00:00:00 GMT 2016 motem Red maple Acer rubrum Bud Burst 39.155880600000000 -86.524718800000000 64392
Mon Apr 11 00:00:00 GMT 2016 klangen Red maple Acer rubrum Leaves Unfolding (None) 39.585500000000000 -85.084270000000000 64440
Mon Apr 11 00:00:00 GMT 2016 klangen Red maple Acer rubrum Leaves Changing Color (None) 39.585500000000000 -85.084270000000000 64441
Mon Apr 11 00:00:00 GMT 2016 klangen Red maple Acer rubrum Leaves Dropping (None) 39.585500000000000 -85.084270000000000 64442
Mon Apr 11 00:00:00 GMT 2016 klangen Red maple Acer rubrum Flowers (Middle) 39.585500000000000 -85.084270000000000 64443
Mon Apr 11 00:00:00 GMT 2016 klangen Red maple Acer rubrum Fruit (Middle) 39.585500000000000 -85.084270000000000 64444
Tue Apr 12 00:00:00 GMT 2016 GCHardy Red maple Acer rubrum Leaves Unfolding (Early) 39.211600000000000 -76.877640000000000 64535
Tue Apr 12 00:00:00 GMT 2016 GCHardy Red maple Acer rubrum Leaves Changing Color (None) 39.211600000000000 -76.877640000000000 64536
Tue Apr 12 00:00:00 GMT 2016 GCHardy Red maple Acer rubrum Leaves Dropping (None) 39.211600000000000 -76.877640000000000 64537
Tue Apr 12 00:00:00 GMT 2016 GCHardy Red maple Acer rubrum Flowers (None) 39.211600000000000 -76.877640000000000 64538
Tue Apr 12 00:00:00 GMT 2016 GCHardy Red maple Acer rubrum Fruit (None) 39.211600000000000 -76.877640000000000 64539
Wed Apr 06 00:00:00 GMT 2016 valeriemartin Red maple Acer rubrum Bud Burst 40.844666000000000 -96.732613000000000 64870
Sun Apr 10 00:00:00 GMT 2016 valeriemartin Red maple Acer rubrum First Leaf 40.844666000000000 -96.732613000000000 64871
Thu Apr 14 00:00:00 GMT 2016 valeriemartin Red maple Acer rubrum All Leaves Unfolded 40.844666000000000 -96.732613000000000 64872
Sat Apr 16 00:00:00 GMT 2016 valeriemartin Red maple Acer rubrum First Flower 40.844666000000000 -96.732613000000000 64873
Tue Apr 19 00:00:00 GMT 2016 bthomps1 Red maple Acer rubrum Full Fruiting 38.195980000000000 -85.534280000000000 64881
Mon Apr 11 00:00:00 GMT 2016 caitlinhornacek Red maple Acer rubrum Leaves Unfolding (Early) 39.165330000000000 -86.526390000000000 64968
Mon Apr 11 00:00:00 GMT 2016 caitlinhornacek Red maple Acer rubrum Leaves Changing Color (None) 39.165330000000000 -86.526390000000000 64969
Mon Apr 11 00:00:00 GMT 2016 caitlinhornacek Red maple Acer rubrum Leaves Dropping (None) 39.165330000000000 -86.526390000000000 64970
Mon Apr 11 00:00:00 GMT 2016 caitlinhornacek Red maple Acer rubrum Flowers (Early) 39.165330000000000 -86.526390000000000 64971
Mon Apr 11 00:00:00 GMT 2016 caitlinhornacek Red maple Acer rubrum Fruit (None) 39.165330000000000 -86.526390000000000 64972
Mon Apr 25 00:00:00 GMT 2016 katfadigan Red maple Acer rubrum Leaves Unfolding (Middle) 40.114503000000000 -75.008540000000000 65292
Mon Apr 25 00:00:00 GMT 2016 katfadigan Red maple Acer rubrum Leaves Changing Color (None) 40.114503000000000 -75.008540000000000 65293
Mon Apr 25 00:00:00 GMT 2016 katfadigan Red maple Acer rubrum Leaves Dropping (None) 40.114503000000000 -75.008540000000000 65294
Mon Apr 25 00:00:00 GMT 2016 katfadigan Red maple Acer rubrum Flowers (Middle) 40.114503000000000 -75.008540000000000 65295
Mon Apr 25 00:00:00 GMT 2016 katfadigan Red maple Acer rubrum Fruit (Early) 40.114503000000000 -75.008540000000000 65296
Mon Apr 25 00:00:00 GMT 2016 katfadigan Red maple Acer rubrum Leaves Unfolding (Late) 40.115500000000000 -75.110300000000000 65328
Mon Apr 25 00:00:00 GMT 2016 katfadigan Red maple Acer rubrum Leaves Changing Color (None) 40.115500000000000 -75.110300000000000 65329
Mon Apr 25 00:00:00 GMT 2016 katfadigan Red maple Acer rubrum Leaves Dropping (None) 40.115500000000000 -75.110300000000000 65330
Mon Apr 25 00:00:00 GMT 2016 katfadigan Red maple Acer rubrum Flowers (None) 40.115500000000000 -75.110300000000000 65331
Mon Apr 25 00:00:00 GMT 2016 katfadigan Red maple Acer rubrum Fruit (None) 40.115500000000000 -75.110300000000000 65332
Mon Apr 25 00:00:00 GMT 2016 katfadigan Red maple Acer rubrum Leaves Unfolding (Late) 40.131380000000000 -75.137030000000000 65401
Mon Apr 25 00:00:00 GMT 2016 katfadigan Red maple Acer rubrum Leaves Changing Color (None) 40.131380000000000 -75.137030000000000 65402
Mon Apr 25 00:00:00 GMT 2016 katfadigan Red maple Acer rubrum Leaves Dropping (None) 40.131380000000000 -75.137030000000000 65403
Mon Apr 25 00:00:00 GMT 2016 katfadigan Red maple Acer rubrum Flowers (None) 40.131380000000000 -75.137030000000000 65404
Mon Apr 25 00:00:00 GMT 2016 katfadigan Red maple Acer rubrum Fruit (None) 40.131380000000000 -75.137030000000000 65405
Tue Apr 26 00:00:00 GMT 2016 Dbendler Red maple Acer rubrum Leaves Unfolding (Middle) 40.119830000000000 -75.125350000000000 65526
Tue Apr 26 00:00:00 GMT 2016 Dbendler Red maple Acer rubrum Leaves Changing Color (None) 40.119830000000000 -75.125350000000000 65527
Tue Apr 26 00:00:00 GMT 2016 Dbendler Red maple Acer rubrum Leaves Dropping (None) 40.119830000000000 -75.125350000000000 65528
Tue Apr 26 00:00:00 GMT 2016 Dbendler Red maple Acer rubrum Flowers (None) 40.119830000000000 -75.125350000000000 65529
Tue Apr 26 00:00:00 GMT 2016 Dbendler Red maple Acer rubrum Fruit (None) 40.119830000000000 -75.125350000000000 65530
Sat Apr 16 00:00:00 GMT 2016 BetsyDugan Red maple Acer rubrum Bud Burst 46.597170000000000 -92.386680000000000 65667
Tue Mar 15 00:00:00 GMT 2016 keoghm Red maple Acer rubrum Bud Burst 41.015500000000000 -73.425400000000000 65753
Mon Apr 25 00:00:00 GMT 2016 keoghm Red maple Acer rubrum First Leaf 41.015500000000000 -73.425400000000000 65754
Thu Mar 17 00:00:00 GMT 2016 keoghm Red maple Acer rubrum First Flower 41.015500000000000 -73.425400000000000 65755
Thu Mar 17 00:00:00 GMT 2016 keoghm Red maple Acer rubrum Full Flower 41.015500000000000 -73.425400000000000 65756
Thu Apr 28 00:00:00 GMT 2016 keoghm Red maple Acer rubrum Leaves Unfolding (Early) 41.031971000000000 -73.714997000000000 65816
Thu Apr 28 00:00:00 GMT 2016 keoghm Red maple Acer rubrum Leaves Changing Color (None) 41.031971000000000 -73.714997000000000 65817
Thu Apr 28 00:00:00 GMT 2016 keoghm Red maple Acer rubrum Leaves Dropping (None) 41.031971000000000 -73.714997000000000 65818
Thu Apr 28 00:00:00 GMT 2016 keoghm Red maple Acer rubrum Flowers (Late) 41.031971000000000 -73.714997000000000 65819
Thu Apr 28 00:00:00 GMT 2016 keoghm Red maple Acer rubrum Fruit (None) 41.031971000000000 -73.714997000000000 65820
Thu Apr 28 00:00:00 GMT 2016 kmburn04 Red maple Acer rubrum Leaves Unfolding (Late) 34.017745000000000 -87.360403000000000 65838
Thu Apr 28 00:00:00 GMT 2016 kmburn04 Red maple Acer rubrum Leaves Changing Color (None) 34.017745000000000 -87.360403000000000 65839
Thu Apr 28 00:00:00 GMT 2016 kmburn04 Red maple Acer rubrum Leaves Dropping (None) 34.017745000000000 -87.360403000000000 65840
Thu Apr 28 00:00:00 GMT 2016 kmburn04 Red maple Acer rubrum Flowers (None) 34.017745000000000 -87.360403000000000 65841
Thu Apr 28 00:00:00 GMT 2016 kmburn04 Red maple Acer rubrum Fruit (None) 34.017745000000000 -87.360403000000000 65842
Thu Apr 28 00:00:00 GMT 2016 Pandaman66 Red maple Acer rubrum Leaves Unfolding (Late) 40.117170000000000 -75.110560000000000 65860
Thu Apr 28 00:00:00 GMT 2016 Pandaman66 Red maple Acer rubrum Leaves Changing Color (None) 40.117170000000000 -75.110560000000000 65861
Thu Apr 28 00:00:00 GMT 2016 Pandaman66 Red maple Acer rubrum Leaves Dropping (None) 40.117170000000000 -75.110560000000000 65862
Thu Apr 28 00:00:00 GMT 2016 Pandaman66 Red maple Acer rubrum Flowers (Middle) 40.117170000000000 -75.110560000000000 65863
Thu Apr 28 00:00:00 GMT 2016 Pandaman66 Red maple Acer rubrum Fruit (Early) 40.117170000000000 -75.110560000000000 65864
Wed Apr 20 00:00:00 GMT 2016 laurob_St._John's_University__reporter3 Red maple Acer rubrum Bud Burst 40.721400000000000 -73.793200000000000 65934
Sat Apr 23 00:00:00 GMT 2016 laurob_St._John's_University__reporter3 Red maple Acer rubrum First Leaf 40.721400000000000 -73.793200000000000 65935
Tue Apr 26 00:00:00 GMT 2016 laurob_St._John's_University__reporter3 Red maple Acer rubrum All Leaves Unfolded 40.721400000000000 -73.793200000000000 65936
Sat Apr 23 00:00:00 GMT 2016 laurob_St._John's_University__reporter3 Red maple Acer rubrum First Flower 40.721400000000000 -73.793200000000000 65937
Fri Mar 04 00:00:00 GMT 2016 palaback Red maple Acer rubrum First Flower 40.307500000000000 -105.084000000000000 65974
Mon Mar 07 00:00:00 GMT 2016 palaback Red maple Acer rubrum Full Flower 40.307500000000000 -105.084000000000000 65975
Thu Apr 28 00:00:00 GMT 2016 Kalexa Red maple Acer rubrum Leaves Unfolding (Late) 39.568320000000000 -95.115150000000000 66015
Thu Apr 28 00:00:00 GMT 2016 Kalexa Red maple Acer rubrum Leaves Changing Color (None) 39.568320000000000 -95.115150000000000 66016
Thu Apr 28 00:00:00 GMT 2016 Kalexa Red maple Acer rubrum Leaves Dropping (Early) 39.568320000000000 -95.115150000000000 66017
Thu Apr 28 00:00:00 GMT 2016 Kalexa Red maple Acer rubrum Flowers (None) 39.568320000000000 -95.115150000000000 66018
Thu Apr 28 00:00:00 GMT 2016 Kalexa Red maple Acer rubrum Fruit (None) 39.568320000000000 -95.115150000000000 66019
Tue Mar 22 00:00:00 GMT 2016 sminniga Red maple Acer rubrum Leaves Unfolding (None) 39.165489000000000 -86.512651000000000 66089
Tue Mar 22 00:00:00 GMT 2016 sminniga Red maple Acer rubrum Leaves Changing Color (None) 39.165489000000000 -86.512651000000000 66090
Tue Mar 22 00:00:00 GMT 2016 sminniga Red maple Acer rubrum Leaves Dropping (None) 39.165489000000000 -86.512651000000000 66091
Tue Mar 22 00:00:00 GMT 2016 sminniga Red maple Acer rubrum Flowers (Middle) 39.165489000000000 -86.512651000000000 66092
Tue Mar 22 00:00:00 GMT 2016 sminniga Red maple Acer rubrum Fruit (None) 39.165489000000000 -86.512651000000000 66093
Fri Apr 01 00:00:00 GMT 2016 football1294 Red maple Acer rubrum Bud Burst 41.640078000000000 -70.312500000000000 66182
Thu Apr 07 00:00:00 GMT 2016 football1294 Red maple Acer rubrum First Leaf 41.640078000000000 -70.312500000000000 66183
Sat Apr 16 00:00:00 GMT 2016 football1294 Red maple Acer rubrum All Leaves Unfolded 41.640078000000000 -70.312500000000000 66184
Fri Apr 01 00:00:00 GMT 2016 football1294 Red maple Acer rubrum Bud Burst 41.640078000000000 -70.312500000000000 66185
Wed Apr 27 00:00:00 GMT 2016 football1294 Red maple Acer rubrum 50% Color 41.640078000000000 -70.312500000000000 66186
Thu Apr 07 00:00:00 GMT 2016 football1294 Red maple Acer rubrum First Leaf 41.640078000000000 -70.312500000000000 66187
Fri Apr 01 00:00:00 GMT 2016 football1294 Red maple Acer rubrum Bud Burst 41.640078000000000 -70.312500000000000 66188
Sat Apr 16 00:00:00 GMT 2016 football1294 Red maple Acer rubrum All Leaves Unfolded 41.640078000000000 -70.312500000000000 66189
Thu Apr 07 00:00:00 GMT 2016 football1294 Red maple Acer rubrum First Leaf 41.640078000000000 -70.312500000000000 66190
Wed Apr 27 00:00:00 GMT 2016 football1294 Red maple Acer rubrum 50% Color 41.640078000000000 -70.312500000000000 66191
Sat Apr 16 00:00:00 GMT 2016 football1294 Red maple Acer rubrum All Leaves Unfolded 41.640078000000000 -70.312500000000000 66192
Fri Apr 01 00:00:00 GMT 2016 football1294 Red maple Acer rubrum Bud Burst 41.640078000000000 -70.312500000000000 66193
Wed Apr 27 00:00:00 GMT 2016 football1294 Red maple Acer rubrum 50% Color 41.640078000000000 -70.312500000000000 66194
Thu Apr 07 00:00:00 GMT 2016 football1294 Red maple Acer rubrum First Leaf 41.640078000000000 -70.312500000000000 66195
Sat Apr 16 00:00:00 GMT 2016 football1294 Red maple Acer rubrum All Leaves Unfolded 41.640078000000000 -70.312500000000000 66196
Wed Apr 27 00:00:00 GMT 2016 football1294 Red maple Acer rubrum 50% Color 41.640078000000000 -70.312500000000000 66197
Fri May 06 00:00:00 GMT 2016 GCHardy Red maple Acer rubrum Leaves Unfolding (Late) 39.211600000000000 -76.877640000000000 66441
Fri May 06 00:00:00 GMT 2016 GCHardy Red maple Acer rubrum Leaves Changing Color (None) 39.211600000000000 -76.877640000000000 66442
Fri May 06 00:00:00 GMT 2016 GCHardy Red maple Acer rubrum Leaves Dropping (None) 39.211600000000000 -76.877640000000000 66443
Fri May 06 00:00:00 GMT 2016 GCHardy Red maple Acer rubrum Flowers (None) 39.211600000000000 -76.877640000000000 66444
Fri May 06 00:00:00 GMT 2016 GCHardy Red maple Acer rubrum Fruit (None) 39.211600000000000 -76.877640000000000 66445
Thu Apr 28 00:00:00 GMT 2016 woodsedge Red maple Acer rubrum First Leaf 38.565400000000000 -78.926000000000000 66470
Thu May 05 00:00:00 GMT 2016 woodsedge Red maple Acer rubrum All Leaves Unfolded 38.565400000000000 -78.926000000000000 66471
Tue May 10 00:00:00 GMT 2016 sbonfanti Red maple Acer rubrum Leaves Unfolding (Early) 42.669578000000000 -71.124828000000000 66649
Tue May 10 00:00:00 GMT 2016 sbonfanti Red maple Acer rubrum Leaves Changing Color (None) 42.669578000000000 -71.124828000000000 66650
Tue May 10 00:00:00 GMT 2016 sbonfanti Red maple Acer rubrum Leaves Dropping (None) 42.669578000000000 -71.124828000000000 66651
Tue May 10 00:00:00 GMT 2016 sbonfanti Red maple Acer rubrum Flowers (None) 42.669578000000000 -71.124828000000000 66652
Tue May 10 00:00:00 GMT 2016 sbonfanti Red maple Acer rubrum Fruit (None) 42.669578000000000 -71.124828000000000 66653
Mon Mar 21 00:00:00 GMT 2016 Bio127 Red maple Acer rubrum Bud Burst 45.057940000000000 -93.161610000000000 66655
Sat Apr 16 00:00:00 GMT 2016 Bio127 Red maple Acer rubrum First Leaf 45.057940000000000 -93.161610000000000 66656
Mon Apr 18 00:00:00 GMT 2016 Bio127 Red maple Acer rubrum All Leaves Unfolded 45.057940000000000 -93.161610000000000 66657
Mon Mar 21 00:00:00 GMT 2016 Bio127 Red maple Acer rubrum Full Flower 45.057940000000000 -93.161610000000000 66658
Thu Mar 10 00:00:00 GMT 2016 Bio127 Red maple Acer rubrum First Flower 45.057940000000000 -93.161610000000000 66659
Sat Apr 16 00:00:00 GMT 2016 Bio127 Red maple Acer rubrum Bud Burst 41.284490000000000 -92.620290000000000 66662
Mon May 02 00:00:00 GMT 2016 Bio127 Red maple Acer rubrum All Leaves Unfolded 41.284490000000000 -92.620290000000000 66663
Mon Mar 28 00:00:00 GMT 2016 Bio127 Red maple Acer rubrum First Flower 41.284490000000000 -92.620290000000000 66664
Sun May 01 00:00:00 GMT 2016 reedma14 Red maple Acer rubrum Leaves Unfolding (Early) 42.665995000000000 -71.122492000000000 66677
Sun May 01 00:00:00 GMT 2016 reedma14 Red maple Acer rubrum Leaves Changing Color (Early) 42.665995000000000 -71.122492000000000 66678
Sun May 01 00:00:00 GMT 2016 reedma14 Red maple Acer rubrum Leaves Dropping (None) 42.665995000000000 -71.122492000000000 66679
Sun May 01 00:00:00 GMT 2016 reedma14 Red maple Acer rubrum Flowers (Early) 42.665995000000000 -71.122492000000000 66680
Sun May 01 00:00:00 GMT 2016 reedma14 Red maple Acer rubrum Fruit (None) 42.665995000000000 -71.122492000000000 66681
Thu May 12 00:00:00 GMT 2016 ungs Red maple Acer rubrum Leaves Unfolding (Late) 42.628439500000000 -71.335089300000000 66970
Thu May 12 00:00:00 GMT 2016 ungs Red maple Acer rubrum Leaves Changing Color (None) 42.628439500000000 -71.335089300000000 66971
Thu May 12 00:00:00 GMT 2016 ungs Red maple Acer rubrum Leaves Dropping (Early) 42.628439500000000 -71.335089300000000 66972
Thu May 12 00:00:00 GMT 2016 ungs Red maple Acer rubrum Flowers (None) 42.628439500000000 -71.335089300000000 66973
Thu May 12 00:00:00 GMT 2016 ungs Red maple Acer rubrum Fruit (None) 42.628439500000000 -71.335089300000000 66974
Fri May 13 00:00:00 GMT 2016 zathr6800 Red maple Acer rubrum Leaves Unfolding (Middle) 39.958553000000000 -82.437254000000000 67104
Fri May 13 00:00:00 GMT 2016 zathr6800 Red maple Acer rubrum Leaves Changing Color (Early) 39.958553000000000 -82.437254000000000 67105
Fri May 13 00:00:00 GMT 2016 zathr6800 Red maple Acer rubrum Leaves Dropping (Early) 39.958553000000000 -82.437254000000000 67106
Fri May 13 00:00:00 GMT 2016 zathr6800 Red maple Acer rubrum Flowers (None) 39.958553000000000 -82.437254000000000 67107
Fri May 13 00:00:00 GMT 2016 zathr6800 Red maple Acer rubrum Fruit (None) 39.958553000000000 -82.437254000000000 67108
Tue May 17 00:00:00 GMT 2016 martybaker_streamwood_high_school_reporter32 Red maple Acer rubrum Leaves Unfolding (Middle) 42.028225000000000 -88.212576000000000 67214
Tue May 17 00:00:00 GMT 2016 martybaker_streamwood_high_school_reporter32 Red maple Acer rubrum Leaves Changing Color (Middle) 42.028225000000000 -88.212576000000000 67215
Tue May 17 00:00:00 GMT 2016 martybaker_streamwood_high_school_reporter32 Red maple Acer rubrum Leaves Dropping (None) 42.028225000000000 -88.212576000000000 67216
Tue May 17 00:00:00 GMT 2016 martybaker_streamwood_high_school_reporter32 Red maple Acer rubrum Flowers (Early) 42.028225000000000 -88.212576000000000 67217
Tue May 17 00:00:00 GMT 2016 martybaker_streamwood_high_school_reporter32 Red maple Acer rubrum Fruit (None) 42.028225000000000 -88.212576000000000 67218
Wed May 25 00:00:00 GMT 2016 martybaker_streamwood_high_school_reporter67 Red maple Acer rubrum Leaves Unfolding (None) 42.029050000000000 -88.173040000000000 67704
Wed May 25 00:00:00 GMT 2016 martybaker_streamwood_high_school_reporter67 Red maple Acer rubrum Leaves Changing Color (Early) 42.029050000000000 -88.173040000000000 67705
Wed May 25 00:00:00 GMT 2016 martybaker_streamwood_high_school_reporter67 Red maple Acer rubrum Leaves Dropping (None) 42.029050000000000 -88.173040000000000 67706
Wed May 25 00:00:00 GMT 2016 martybaker_streamwood_high_school_reporter67 Red maple Acer rubrum Flowers (Early) 42.029050000000000 -88.173040000000000 67707
Wed May 25 00:00:00 GMT 2016 martybaker_streamwood_high_school_reporter67 Red maple Acer rubrum Fruit (Early) 42.029050000000000 -88.173040000000000 67708
Fri May 06 00:00:00 GMT 2016 Maplerun Red maple Acer rubrum First Leaf 45.696100000000000 -89.633900000000000 68018
Mon May 09 00:00:00 GMT 2016 Maplerun Red maple Acer rubrum All Leaves Unfolded 45.696100000000000 -89.633900000000000 68019
Tue May 03 00:00:00 GMT 2016 Maplerun Red maple Acer rubrum First Flower 45.696100000000000 -89.633900000000000 68020
Mon May 09 00:00:00 GMT 2016 Maplerun Red maple Acer rubrum Full Flower 45.696100000000000 -89.633900000000000 68021
Tue Mar 08 00:00:00 GMT 2016 rainbowtrees Red maple Acer rubrum Bud Burst 35.577300000000000 -82.586256000000000 68893
Wed Apr 13 00:00:00 GMT 2016 rainbowtrees Red maple Acer rubrum First Leaf 35.577300000000000 -82.586256000000000 68894
Fri Apr 22 00:00:00 GMT 2016 rainbowtrees Red maple Acer rubrum All Leaves Unfolded 35.577300000000000 -82.586256000000000 68895
Mon Mar 21 00:00:00 GMT 2016 rainbowtrees Red maple Acer rubrum Full Flower 35.577300000000000 -82.586256000000000 68896
Mon Jun 20 00:00:00 GMT 2016 lizklein0616 Red maple Acer rubrum Leaves Unfolding (Late) 33.705800000000000 -80.411940000000000 68915
Mon Jun 20 00:00:00 GMT 2016 lizklein0616 Red maple Acer rubrum Leaves Changing Color (Early) 33.705800000000000 -80.411940000000000 68916
Mon Jun 20 00:00:00 GMT 2016 lizklein0616 Red maple Acer rubrum Leaves Dropping (None) 33.705800000000000 -80.411940000000000 68917
Mon Jun 20 00:00:00 GMT 2016 lizklein0616 Red maple Acer rubrum Flowers (Late) 33.705800000000000 -80.411940000000000 68918
Mon Jun 20 00:00:00 GMT 2016 lizklein0616 Red maple Acer rubrum Fruit (Late) 33.705800000000000 -80.411940000000000 68919
Fri Jun 24 00:00:00 GMT 2016 lizklein0616 Red maple Acer rubrum Leaves Unfolding (Late) 40.000000000000000 -100.000000000000000 68920
Fri Jun 24 00:00:00 GMT 2016 lizklein0616 Red maple Acer rubrum Leaves Changing Color (Late) 40.000000000000000 -100.000000000000000 68921
Fri Jun 24 00:00:00 GMT 2016 lizklein0616 Red maple Acer rubrum Leaves Dropping (None) 40.000000000000000 -100.000000000000000 68922
Fri Jun 24 00:00:00 GMT 2016 lizklein0616 Red maple Acer rubrum Flowers (Middle) 40.000000000000000 -100.000000000000000 68923
Fri Jun 24 00:00:00 GMT 2016 lizklein0616 Red maple Acer rubrum Fruit (Late) 40.000000000000000 -100.000000000000000 68924
Sun Jul 24 00:00:00 GMT 2016 scheyder Red maple Acer rubrum Leaves Unfolding (Late) 38.892102000000000 -77.500777000000000 69080
Sun Jul 24 00:00:00 GMT 2016 scheyder Red maple Acer rubrum Leaves Changing Color (Late) 38.892102000000000 -77.500777000000000 69081
Sun Jul 24 00:00:00 GMT 2016 scheyder Red maple Acer rubrum Leaves Dropping (None) 38.892102000000000 -77.500777000000000 69082
Sun Jul 24 00:00:00 GMT 2016 scheyder Red maple Acer rubrum Flowers (None) 38.892102000000000 -77.500777000000000 69083
Sun Jul 24 00:00:00 GMT 2016 scheyder Red maple Acer rubrum Fruit (None) 38.892102000000000 -77.500777000000000 69084
Thu Mar 10 00:00:00 GMT 2016 psaunder Red maple Acer rubrum Bud Burst 40.860626000000000 -82.320213000000000 69432
Thu Mar 24 00:00:00 GMT 2016 psaunder Red maple Acer rubrum First Flower 40.860626000000000 -82.320213000000000 69433
Sat Apr 09 00:00:00 GMT 2016 psaunder Red maple Acer rubrum Full Flower 40.860626000000000 -82.320213000000000 69434
Sun Sep 11 00:00:00 GMT 2016 elisestanley6 Red maple Acer rubrum Leaves Unfolding (Late) 38.894910000000000 -77.503380000000000 69681
Sun Sep 11 00:00:00 GMT 2016 elisestanley6 Red maple Acer rubrum Leaves Changing Color (Early) 38.894910000000000 -77.503380000000000 69682
Sun Sep 11 00:00:00 GMT 2016 elisestanley6 Red maple Acer rubrum Leaves Dropping (Early) 38.894910000000000 -77.503380000000000 69683
Sun Sep 11 00:00:00 GMT 2016 elisestanley6 Red maple Acer rubrum Flowers (None) 38.894910000000000 -77.503380000000000 69684
Sun Sep 11 00:00:00 GMT 2016 elisestanley6 Red maple Acer rubrum Fruit (None) 38.894910000000000 -77.503380000000000 69685
Sun Sep 11 00:00:00 GMT 2016 autpeterson Red maple Acer rubrum Leaves Unfolding (Late) 38.918650000000000 -77.534050000000000 69703
Sun Sep 11 00:00:00 GMT 2016 autpeterson Red maple Acer rubrum Leaves Changing Color (None) 38.918650000000000 -77.534050000000000 69704
Sun Sep 11 00:00:00 GMT 2016 autpeterson Red maple Acer rubrum Leaves Dropping (Early) 38.918650000000000 -77.534050000000000 69705
Sun Sep 11 00:00:00 GMT 2016 autpeterson Red maple Acer rubrum Flowers (Middle) 38.918650000000000 -77.534050000000000 69706
Sun Sep 11 00:00:00 GMT 2016 autpeterson Red maple Acer rubrum Fruit (None) 38.918650000000000 -77.534050000000000 69707
Mon Sep 12 00:00:00 GMT 2016 dkrakowiak253 Red maple Acer rubrum Leaves Unfolding (None) 38.908210000000000 -77.505190000000000 69832
Mon Sep 12 00:00:00 GMT 2016 dkrakowiak253 Red maple Acer rubrum Leaves Changing Color (None) 38.908210000000000 -77.505190000000000 69833
Mon Sep 12 00:00:00 GMT 2016 dkrakowiak253 Red maple Acer rubrum Leaves Dropping (Middle) 38.908210000000000 -77.505190000000000 69834
Mon Sep 12 00:00:00 GMT 2016 dkrakowiak253 Red maple Acer rubrum Flowers (None) 38.908210000000000 -77.505190000000000 69835
Mon Sep 12 00:00:00 GMT 2016 dkrakowiak253 Red maple Acer rubrum Fruit (None) 38.908210000000000 -77.505190000000000 69836
Thu Sep 15 00:00:00 GMT 2016 andreasenr Red maple Acer rubrum Full Fruiting 45.090117000000000 -93.341668000000000 69857
Thu Sep 22 00:00:00 GMT 2016 westcreek Red maple Acer rubrum Leaves Unfolding (Late) 41.442437000000000 -81.755190000000000 70055
Thu Sep 22 00:00:00 GMT 2016 westcreek Red maple Acer rubrum Leaves Changing Color (Early) 41.442437000000000 -81.755190000000000 70056
Thu Sep 22 00:00:00 GMT 2016 westcreek Red maple Acer rubrum Leaves Dropping (Early) 41.442437000000000 -81.755190000000000 70057
Thu Sep 22 00:00:00 GMT 2016 westcreek Red maple Acer rubrum Flowers (None) 41.442437000000000 -81.755190000000000 70058
Thu Sep 22 00:00:00 GMT 2016 westcreek Red maple Acer rubrum Fruit (None) 41.442437000000000 -81.755190000000000 70059
Mon Sep 26 00:00:00 GMT 2016 jessicaluczynska Red maple Acer rubrum Leaves Unfolding (Late) 42.195530000000000 -72.651140000000000 70093
Mon Sep 26 00:00:00 GMT 2016 jessicaluczynska Red maple Acer rubrum Leaves Changing Color (Early) 42.195530000000000 -72.651140000000000 70094
Mon Sep 26 00:00:00 GMT 2016 jessicaluczynska Red maple Acer rubrum Leaves Dropping (Early) 42.195530000000000 -72.651140000000000 70095
Mon Sep 26 00:00:00 GMT 2016 jessicaluczynska Red maple Acer rubrum Flowers (None) 42.195530000000000 -72.651140000000000 70096
Mon Sep 26 00:00:00 GMT 2016 jessicaluczynska Red maple Acer rubrum Fruit (None) 42.195530000000000 -72.651140000000000 70097
Mon Oct 03 00:00:00 GMT 2016 hrewham Red maple Acer rubrum Leaves Unfolding (None) 42.848980000000000 -70.929500000000000 70337
Mon Oct 03 00:00:00 GMT 2016 hrewham Red maple Acer rubrum Leaves Changing Color (None) 42.848980000000000 -70.929500000000000 70338
Mon Oct 03 00:00:00 GMT 2016 hrewham Red maple Acer rubrum Leaves Dropping (Early) 42.848980000000000 -70.929500000000000 70339
Mon Oct 03 00:00:00 GMT 2016 hrewham Red maple Acer rubrum Flowers (None) 42.848980000000000 -70.929500000000000 70340
Mon Oct 03 00:00:00 GMT 2016 hrewham Red maple Acer rubrum Fruit (None) 42.848980000000000 -70.929500000000000 70341
Thu Sep 29 00:00:00 GMT 2016 TreeStubbs Red maple Acer rubrum Leaves Unfolding (None) 42.848980000000000 -70.929500000000000 70343
Thu Sep 29 00:00:00 GMT 2016 TreeStubbs Red maple Acer rubrum Leaves Unfolding (None) 42.848980000000000 -70.929500000000000 70344
Thu Sep 29 00:00:00 GMT 2016 TreeStubbs Red maple Acer rubrum Leaves Unfolding (None) 42.848980000000000 -70.929500000000000 70345
Thu Sep 29 00:00:00 GMT 2016 TreeStubbs Red maple Acer rubrum Leaves Unfolding (None) 42.848980000000000 -70.929500000000000 70347
Thu Sep 29 00:00:00 GMT 2016 TreeStubbs Red maple Acer rubrum Leaves Unfolding (None) 42.848980000000000 -70.929500000000000 70348
Thu Sep 29 00:00:00 GMT 2016 TreeStubbs Red maple Acer rubrum Leaves Unfolding (None) 42.848980000000000 -70.929500000000000 70349
Thu Sep 29 00:00:00 GMT 2016 TreeStubbs Red maple Acer rubrum Leaves Unfolding (None) 42.848980000000000 -70.929500000000000 70350
Thu Sep 29 00:00:00 GMT 2016 TreeStubbs Red maple Acer rubrum Leaves Unfolding (None) 42.848980000000000 -70.929500000000000 70351
Thu Sep 29 00:00:00 GMT 2016 TreeStubbs Red maple Acer rubrum Leaves Unfolding (None) 42.848980000000000 -70.929500000000000 70353
Thu Sep 29 00:00:00 GMT 2016 TreeStubbs Red maple Acer rubrum Leaves Unfolding (None) 42.848980000000000 -70.929500000000000 70354
Thu Sep 29 00:00:00 GMT 2016 TreeStubbs Red maple Acer rubrum Leaves Unfolding (None) 42.848980000000000 -70.929500000000000 70355
Thu Sep 29 00:00:00 GMT 2016 TreeStubbs Red maple Acer rubrum Leaves Unfolding (None) 42.848980000000000 -70.929500000000000 70356
Thu Sep 29 00:00:00 GMT 2016 TreeStubbs Red maple Acer rubrum Leaves Changing Color (None) 42.848980000000000 -70.929500000000000 70362
Thu Sep 29 00:00:00 GMT 2016 TreeStubbs Red maple Acer rubrum Leaves Changing Color (None) 42.848980000000000 -70.929500000000000 70364
Thu Sep 29 00:00:00 GMT 2016 TreeStubbs Red maple Acer rubrum Leaves Changing Color (None) 42.848980000000000 -70.929500000000000 70365
Thu Sep 29 00:00:00 GMT 2016 TreeStubbs Red maple Acer rubrum Leaves Changing Color (None) 42.848980000000000 -70.929500000000000 70366
Thu Sep 29 00:00:00 GMT 2016 TreeStubbs Red maple Acer rubrum Leaves Changing Color (None) 42.848980000000000 -70.929500000000000 70367
Thu Sep 29 00:00:00 GMT 2016 TreeStubbs Red maple Acer rubrum Leaves Changing Color (None) 42.848980000000000 -70.929500000000000 70369
Thu Sep 29 00:00:00 GMT 2016 TreeStubbs Red maple Acer rubrum Leaves Changing Color (None) 42.848980000000000 -70.929500000000000 70373
Thu Sep 29 00:00:00 GMT 2016 TreeStubbs Red maple Acer rubrum Leaves Changing Color (None) 42.848980000000000 -70.929500000000000 70375
Thu Sep 29 00:00:00 GMT 2016 TreeStubbs Red maple Acer rubrum Leaves Changing Color (None) 42.848980000000000 -70.929500000000000 70378
Thu Sep 29 00:00:00 GMT 2016 TreeStubbs Red maple Acer rubrum Leaves Changing Color (None) 42.848980000000000 -70.929500000000000 70380
Thu Sep 29 00:00:00 GMT 2016 TreeStubbs Red maple Acer rubrum Leaves Changing Color (None) 42.848980000000000 -70.929500000000000 70381
Thu Sep 29 00:00:00 GMT 2016 TreeStubbs Red maple Acer rubrum Leaves Changing Color (None) 42.848980000000000 -70.929500000000000 70382
Thu Sep 29 00:00:00 GMT 2016 TreeStubbs Red maple Acer rubrum Leaves Dropping (Early) 42.848980000000000 -70.929500000000000 70387
Thu Sep 29 00:00:00 GMT 2016 TreeStubbs Red maple Acer rubrum Leaves Dropping (Early) 42.848980000000000 -70.929500000000000 70388
Thu Sep 29 00:00:00 GMT 2016 TreeStubbs Red maple Acer rubrum Leaves Dropping (Early) 42.848980000000000 -70.929500000000000 70389
Thu Sep 29 00:00:00 GMT 2016 TreeStubbs Red maple Acer rubrum Leaves Dropping (Early) 42.848980000000000 -70.929500000000000 70395
Thu Sep 29 00:00:00 GMT 2016 TreeStubbs Red maple Acer rubrum Leaves Dropping (Early) 42.848980000000000 -70.929500000000000 70396
Thu Sep 29 00:00:00 GMT 2016 TreeStubbs Red maple Acer rubrum Leaves Dropping (Early) 42.848980000000000 -70.929500000000000 70397
Thu Sep 29 00:00:00 GMT 2016 TreeStubbs Red maple Acer rubrum Leaves Dropping (Early) 42.848980000000000 -70.929500000000000 70398
Thu Sep 29 00:00:00 GMT 2016 TreeStubbs Red maple Acer rubrum Leaves Dropping (Early) 42.848980000000000 -70.929500000000000 70400
Thu Sep 29 00:00:00 GMT 2016 TreeStubbs Red maple Acer rubrum Leaves Dropping (Early) 42.848980000000000 -70.929500000000000 70401
Thu Sep 29 00:00:00 GMT 2016 TreeStubbs Red maple Acer rubrum Leaves Dropping (Early) 42.848980000000000 -70.929500000000000 70404
Thu Sep 29 00:00:00 GMT 2016 TreeStubbs Red maple Acer rubrum Leaves Dropping (Early) 42.848980000000000 -70.929500000000000 70405
Thu Sep 29 00:00:00 GMT 2016 TreeStubbs Red maple Acer rubrum Leaves Dropping (Early) 42.848980000000000 -70.929500000000000 70406
Thu Sep 29 00:00:00 GMT 2016 TreeStubbs Red maple Acer rubrum Flowers (None) 42.848980000000000 -70.929500000000000 70408
Thu Sep 29 00:00:00 GMT 2016 TreeStubbs Red maple Acer rubrum Flowers (None) 42.848980000000000 -70.929500000000000 70410
Thu Sep 29 00:00:00 GMT 2016 TreeStubbs Red maple Acer rubrum Flowers (None) 42.848980000000000 -70.929500000000000 70411
Thu Sep 29 00:00:00 GMT 2016 TreeStubbs Red maple Acer rubrum Flowers (None) 42.848980000000000 -70.929500000000000 70414
Thu Sep 29 00:00:00 GMT 2016 TreeStubbs Red maple Acer rubrum Flowers (None) 42.848980000000000 -70.929500000000000 70416
Thu Sep 29 00:00:00 GMT 2016 TreeStubbs Red maple Acer rubrum Flowers (None) 42.848980000000000 -70.929500000000000 70417
Thu Sep 29 00:00:00 GMT 2016 TreeStubbs Red maple Acer rubrum Flowers (None) 42.848980000000000 -70.929500000000000 70419
Thu Sep 29 00:00:00 GMT 2016 TreeStubbs Red maple Acer rubrum Flowers (None) 42.848980000000000 -70.929500000000000 70422
Thu Sep 29 00:00:00 GMT 2016 TreeStubbs Red maple Acer rubrum Flowers (None) 42.848980000000000 -70.929500000000000 70424
Thu Sep 29 00:00:00 GMT 2016 TreeStubbs Red maple Acer rubrum Flowers (None) 42.848980000000000 -70.929500000000000 70425
Thu Sep 29 00:00:00 GMT 2016 TreeStubbs Red maple Acer rubrum Flowers (None) 42.848980000000000 -70.929500000000000 70426
Thu Sep 29 00:00:00 GMT 2016 TreeStubbs Red maple Acer rubrum Flowers (None) 42.848980000000000 -70.929500000000000 70427
Thu Sep 29 00:00:00 GMT 2016 TreeStubbs Red maple Acer rubrum Fruit (None) 42.848980000000000 -70.929500000000000 70430
Thu Sep 29 00:00:00 GMT 2016 TreeStubbs Red maple Acer rubrum Fruit (None) 42.848980000000000 -70.929500000000000 70432
Thu Sep 29 00:00:00 GMT 2016 TreeStubbs Red maple Acer rubrum Fruit (None) 42.848980000000000 -70.929500000000000 70433
Thu Sep 29 00:00:00 GMT 2016 TreeStubbs Red maple Acer rubrum Fruit (None) 42.848980000000000 -70.929500000000000 70434
Thu Sep 29 00:00:00 GMT 2016 TreeStubbs Red maple Acer rubrum Fruit (None) 42.848980000000000 -70.929500000000000 70437
Thu Sep 29 00:00:00 GMT 2016 TreeStubbs Red maple Acer rubrum Fruit (None) 42.848980000000000 -70.929500000000000 70438
Thu Sep 29 00:00:00 GMT 2016 TreeStubbs Red maple Acer rubrum Fruit (None) 42.848980000000000 -70.929500000000000 70442
Thu Sep 29 00:00:00 GMT 2016 TreeStubbs Red maple Acer rubrum Fruit (None) 42.848980000000000 -70.929500000000000 70444
Thu Sep 29 00:00:00 GMT 2016 TreeStubbs Red maple Acer rubrum Fruit (None) 42.848980000000000 -70.929500000000000 70445
Thu Sep 29 00:00:00 GMT 2016 TreeStubbs Red maple Acer rubrum Fruit (None) 42.848980000000000 -70.929500000000000 70446
Thu Sep 29 00:00:00 GMT 2016 TreeStubbs Red maple Acer rubrum Fruit (None) 42.848980000000000 -70.929500000000000 70449
Thu Sep 29 00:00:00 GMT 2016 TreeStubbs Red maple Acer rubrum Fruit (None) 42.848980000000000 -70.929500000000000 70452
Thu Oct 06 00:00:00 GMT 2016 AshevilleSchool Red maple Acer rubrum Bud Burst 35.567928000000000 -82.622123000000000 70628
Thu Oct 06 00:00:00 GMT 2016 AshevilleSchool Red maple Acer rubrum Bud Burst 35.567928000000000 -82.622123000000000 70629
Thu Oct 13 00:00:00 GMT 2016 gobrechj Red maple Acer rubrum Leaves Unfolding (Late) 39.877401000000000 -76.872159000000000 70681
Thu Oct 13 00:00:00 GMT 2016 gobrechj Red maple Acer rubrum Leaves Changing Color (Middle) 39.877401000000000 -76.872159000000000 70682
Thu Oct 13 00:00:00 GMT 2016 gobrechj Red maple Acer rubrum Leaves Unfolding (Late) 39.877401000000000 -76.872159000000000 70683
Thu Oct 13 00:00:00 GMT 2016 gobrechj Red maple Acer rubrum Leaves Dropping (Middle) 39.877401000000000 -76.872159000000000 70684
Thu Oct 13 00:00:00 GMT 2016 gobrechj Red maple Acer rubrum Leaves Changing Color (Middle) 39.877401000000000 -76.872159000000000 70685
Thu Oct 13 00:00:00 GMT 2016 gobrechj Red maple Acer rubrum Flowers (None) 39.877401000000000 -76.872159000000000 70686
Thu Oct 13 00:00:00 GMT 2016 gobrechj Red maple Acer rubrum Leaves Dropping (Middle) 39.877401000000000 -76.872159000000000 70687
Thu Oct 13 00:00:00 GMT 2016 gobrechj Red maple Acer rubrum Fruit (None) 39.877401000000000 -76.872159000000000 70688
Thu Oct 13 00:00:00 GMT 2016 gobrechj Red maple Acer rubrum Flowers (None) 39.877401000000000 -76.872159000000000 70689
Thu Oct 13 00:00:00 GMT 2016 gobrechj Red maple Acer rubrum Fruit (None) 39.877401000000000 -76.872159000000000 70690
Fri Oct 14 00:00:00 GMT 2016 gobrechj Red maple Acer rubrum Leaves Unfolding (Late) 39.877642000000000 -76.871568000000000 70713
Fri Oct 14 00:00:00 GMT 2016 gobrechj Red maple Acer rubrum Leaves Unfolding (Late) 39.877642000000000 -76.871568000000000 70714
Fri Oct 14 00:00:00 GMT 2016 gobrechj Red maple Acer rubrum Leaves Changing Color (Middle) 39.877642000000000 -76.871568000000000 70715
Fri Oct 14 00:00:00 GMT 2016 gobrechj Red maple Acer rubrum Leaves Changing Color (Middle) 39.877642000000000 -76.871568000000000 70716
Fri Oct 14 00:00:00 GMT 2016 gobrechj Red maple Acer rubrum Leaves Dropping (Middle) 39.877642000000000 -76.871568000000000 70717
Fri Oct 14 00:00:00 GMT 2016 gobrechj Red maple Acer rubrum Leaves Dropping (Middle) 39.877642000000000 -76.871568000000000 70718
Fri Oct 14 00:00:00 GMT 2016 gobrechj Red maple Acer rubrum Flowers (None) 39.877642000000000 -76.871568000000000 70719
Fri Oct 14 00:00:00 GMT 2016 gobrechj Red maple Acer rubrum Flowers (None) 39.877642000000000 -76.871568000000000 70720
Fri Oct 14 00:00:00 GMT 2016 gobrechj Red maple Acer rubrum Fruit (None) 39.877642000000000 -76.871568000000000 70721
Fri Oct 14 00:00:00 GMT 2016 gobrechj Red maple Acer rubrum Fruit (None) 39.877642000000000 -76.871568000000000 70722
Fri Oct 14 00:00:00 GMT 2016 gobrechj Red maple Acer rubrum Leaves Unfolding (Late) 39.877642000000000 -76.871568000000000 70723
Fri Oct 14 00:00:00 GMT 2016 gobrechj Red maple Acer rubrum Leaves Changing Color (Middle) 39.877642000000000 -76.871568000000000 70724
Fri Oct 14 00:00:00 GMT 2016 gobrechj Red maple Acer rubrum Leaves Unfolding (Late) 39.877642000000000 -76.871568000000000 70725
Fri Oct 14 00:00:00 GMT 2016 gobrechj Red maple Acer rubrum Leaves Dropping (Middle) 39.877642000000000 -76.871568000000000 70726
Fri Oct 14 00:00:00 GMT 2016 gobrechj Red maple Acer rubrum Leaves Changing Color (Middle) 39.877642000000000 -76.871568000000000 70727
Fri Oct 14 00:00:00 GMT 2016 gobrechj Red maple Acer rubrum Flowers (None) 39.877642000000000 -76.871568000000000 70728
Fri Oct 14 00:00:00 GMT 2016 gobrechj Red maple Acer rubrum Leaves Dropping (Middle) 39.877642000000000 -76.871568000000000 70729
Fri Oct 14 00:00:00 GMT 2016 gobrechj Red maple Acer rubrum Fruit (None) 39.877642000000000 -76.871568000000000 70730
Fri Oct 14 00:00:00 GMT 2016 gobrechj Red maple Acer rubrum Flowers (None) 39.877642000000000 -76.871568000000000 70731
Fri Oct 14 00:00:00 GMT 2016 gobrechj Red maple Acer rubrum Fruit (None) 39.877642000000000 -76.871568000000000 70732
Fri Oct 14 00:00:00 GMT 2016 gobrechj Red maple Acer rubrum Leaves Unfolding (Late) 39.877642000000000 -76.871568000000000 70733
Fri Oct 14 00:00:00 GMT 2016 gobrechj Red maple Acer rubrum Leaves Changing Color (Middle) 39.877642000000000 -76.871568000000000 70734
Fri Oct 14 00:00:00 GMT 2016 gobrechj Red maple Acer rubrum Leaves Dropping (Middle) 39.877642000000000 -76.871568000000000 70735
Fri Oct 14 00:00:00 GMT 2016 gobrechj Red maple Acer rubrum Flowers (None) 39.877642000000000 -76.871568000000000 70736
Fri Oct 14 00:00:00 GMT 2016 gobrechj Red maple Acer rubrum Fruit (None) 39.877642000000000 -76.871568000000000 70737
Fri Oct 14 00:00:00 GMT 2016 bkanoy_MS_Gail_Walker_Garden_reporter6 Red maple Acer rubrum Bud Burst 35.968516000000000 -78.944390000000000 70740
Mon Oct 17 00:00:00 GMT 2016 gobrechj Red maple Acer rubrum Leaves Unfolding (Late) 39.877642000000000 -76.871568000000000 70792
Mon Oct 17 00:00:00 GMT 2016 gobrechj Red maple Acer rubrum Leaves Unfolding (Late) 39.877642000000000 -76.871568000000000 70793
Mon Oct 17 00:00:00 GMT 2016 gobrechj Red maple Acer rubrum Leaves Changing Color (Early) 39.877642000000000 -76.871568000000000 70794
Mon Oct 17 00:00:00 GMT 2016 gobrechj Red maple Acer rubrum Leaves Changing Color (Early) 39.877642000000000 -76.871568000000000 70795
Mon Oct 17 00:00:00 GMT 2016 gobrechj Red maple Acer rubrum Leaves Dropping (Early) 39.877642000000000 -76.871568000000000 70796
Mon Oct 17 00:00:00 GMT 2016 gobrechj Red maple Acer rubrum Leaves Dropping (Early) 39.877642000000000 -76.871568000000000 70797
Mon Oct 17 00:00:00 GMT 2016 gobrechj Red maple Acer rubrum Flowers (None) 39.877642000000000 -76.871568000000000 70798
Mon Oct 17 00:00:00 GMT 2016 gobrechj Red maple Acer rubrum Flowers (None) 39.877642000000000 -76.871568000000000 70799
Mon Oct 17 00:00:00 GMT 2016 gobrechj Red maple Acer rubrum Fruit (None) 39.877642000000000 -76.871568000000000 70800
Mon Oct 17 00:00:00 GMT 2016 gobrechj Red maple Acer rubrum Fruit (None) 39.877642000000000 -76.871568000000000 70801
Fri Oct 14 00:00:00 GMT 2016 bthomps1 Red maple Acer rubrum 50% Color 38.195980000000000 -85.534280000000000 70806
Mon Oct 17 00:00:00 GMT 2016 bwils44 Red maple Acer rubrum Leaves Unfolding (Middle) 38.895800000000000 -77.489810000000000 70822
Mon Oct 17 00:00:00 GMT 2016 bwils44 Red maple Acer rubrum Leaves Changing Color (Early) 38.895800000000000 -77.489810000000000 70823
Mon Oct 17 00:00:00 GMT 2016 bwils44 Red maple Acer rubrum Leaves Dropping (Early) 38.895800000000000 -77.489810000000000 70824
Mon Oct 17 00:00:00 GMT 2016 bwils44 Red maple Acer rubrum Flowers (None) 38.895800000000000 -77.489810000000000 70825
Mon Oct 17 00:00:00 GMT 2016 bwils44 Red maple Acer rubrum Fruit (None) 38.895800000000000 -77.489810000000000 70826
Fri Oct 21 00:00:00 GMT 2016 gobrechj Red maple Acer rubrum 50% Color 39.877642000000000 -76.871568000000000 70991
Fri Oct 21 00:00:00 GMT 2016 gobrechj Red maple Acer rubrum 50% Color 39.877642000000000 -76.871568000000000 70992
Mon Oct 24 00:00:00 GMT 2016 TreeStubbs Red maple Acer rubrum Leaves Unfolding (None) 42.848980000000000 -70.929500000000000 71086
Mon Oct 24 00:00:00 GMT 2016 TreeStubbs Red maple Acer rubrum Leaves Changing Color (Early) 42.848980000000000 -70.929500000000000 71087
Mon Oct 24 00:00:00 GMT 2016 TreeStubbs Red maple Acer rubrum Leaves Dropping (Early) 42.848980000000000 -70.929500000000000 71088
Mon Oct 24 00:00:00 GMT 2016 TreeStubbs Red maple Acer rubrum Flowers (None) 42.848980000000000 -70.929500000000000 71089
Mon Oct 24 00:00:00 GMT 2016 TreeStubbs Red maple Acer rubrum Fruit (None) 42.848980000000000 -70.929500000000000 71090
Thu Oct 20 00:00:00 GMT 2016 hrewham Red maple Acer rubrum Leaves Unfolding (Early) 42.848980000000000 -70.929500000000000 71101
Thu Oct 20 00:00:00 GMT 2016 hrewham Red maple Acer rubrum Leaves Changing Color (Middle) 42.848980000000000 -70.929500000000000 71102
Thu Oct 20 00:00:00 GMT 2016 hrewham Red maple Acer rubrum Leaves Dropping (Early) 42.848980000000000 -70.929500000000000 71103
Thu Oct 20 00:00:00 GMT 2016 hrewham Red maple Acer rubrum Flowers (None) 42.848980000000000 -70.929500000000000 71104
Thu Oct 20 00:00:00 GMT 2016 hrewham Red maple Acer rubrum Fruit (None) 42.848980000000000 -70.929500000000000 71105
Wed Oct 26 00:00:00 GMT 2016 gobrechj Red maple Acer rubrum Leaves Unfolding (Late) 39.877642000000000 -76.871568000000000 71217
Wed Oct 26 00:00:00 GMT 2016 gobrechj Red maple Acer rubrum Leaves Unfolding (Late) 39.877642000000000 -76.871568000000000 71218
Wed Oct 26 00:00:00 GMT 2016 gobrechj Red maple Acer rubrum Leaves Changing Color (Middle) 39.877642000000000 -76.871568000000000 71219
Wed Oct 26 00:00:00 GMT 2016 gobrechj Red maple Acer rubrum Leaves Changing Color (Middle) 39.877642000000000 -76.871568000000000 71220
Wed Oct 26 00:00:00 GMT 2016 gobrechj Red maple Acer rubrum Leaves Dropping (Middle) 39.877642000000000 -76.871568000000000 71221
Wed Oct 26 00:00:00 GMT 2016 gobrechj Red maple Acer rubrum Leaves Dropping (Middle) 39.877642000000000 -76.871568000000000 71222
Wed Oct 26 00:00:00 GMT 2016 gobrechj Red maple Acer rubrum Flowers (None) 39.877642000000000 -76.871568000000000 71223
Wed Oct 26 00:00:00 GMT 2016 gobrechj Red maple Acer rubrum Flowers (None) 39.877642000000000 -76.871568000000000 71224
Wed Oct 26 00:00:00 GMT 2016 gobrechj Red maple Acer rubrum Fruit (None) 39.877642000000000 -76.871568000000000 71225
Wed Oct 26 00:00:00 GMT 2016 gobrechj Red maple Acer rubrum Fruit (None) 39.877642000000000 -76.871568000000000 71226
Wed Oct 26 00:00:00 GMT 2016 SafiyaTarbell88 Red maple Acer rubrum Leaves Unfolding (None) 42.848980000000000 -70.929500000000000 71237
Wed Oct 26 00:00:00 GMT 2016 SafiyaTarbell88 Red maple Acer rubrum Leaves Changing Color (Middle) 42.848980000000000 -70.929500000000000 71238
Wed Oct 26 00:00:00 GMT 2016 SafiyaTarbell88 Red maple Acer rubrum Leaves Dropping (Middle) 42.848980000000000 -70.929500000000000 71239
Wed Oct 26 00:00:00 GMT 2016 SafiyaTarbell88 Red maple Acer rubrum Flowers (None) 42.848980000000000 -70.929500000000000 71240
Wed Oct 26 00:00:00 GMT 2016 SafiyaTarbell88 Red maple Acer rubrum Fruit (None) 42.848980000000000 -70.929500000000000 71241
Mon Oct 31 00:00:00 GMT 2016 rshuman Red maple Acer rubrum Leaves Unfolding (Late) 44.708368000000000 -73.719866000000000 71609
Mon Oct 31 00:00:00 GMT 2016 rshuman Red maple Acer rubrum Leaves Changing Color (Late) 44.708368000000000 -73.719866000000000 71610
Mon Oct 31 00:00:00 GMT 2016 rshuman Red maple Acer rubrum Leaves Dropping (Middle) 44.708368000000000 -73.719866000000000 71611
Mon Oct 31 00:00:00 GMT 2016 rshuman Red maple Acer rubrum Flowers (None) 44.708368000000000 -73.719866000000000 71612
Mon Oct 31 00:00:00 GMT 2016 rshuman Red maple Acer rubrum Fruit (None) 44.708368000000000 -73.719866000000000 71613
Mon Oct 31 00:00:00 GMT 2016 rshuman Red maple Acer rubrum Leaves Unfolding (Late) 44.664919000000000 -73.730063000000000 71622
Mon Oct 31 00:00:00 GMT 2016 rshuman Red maple Acer rubrum Leaves Changing Color (Late) 44.664919000000000 -73.730063000000000 71623
Mon Oct 31 00:00:00 GMT 2016 rshuman Red maple Acer rubrum Leaves Dropping (Middle) 44.664919000000000 -73.730063000000000 71624
Mon Oct 31 00:00:00 GMT 2016 rshuman Red maple Acer rubrum Flowers (None) 44.664919000000000 -73.730063000000000 71625
Mon Oct 31 00:00:00 GMT 2016 rshuman Red maple Acer rubrum Fruit (None) 44.664919000000000 -73.730063000000000 71626
Tue Oct 25 00:00:00 GMT 2016 rshuman Red maple Acer rubrum Leaves Unfolding (Late) 44.696820000000000 -73.541490000000000 71627
Tue Oct 25 00:00:00 GMT 2016 rshuman Red maple Acer rubrum Leaves Changing Color (Late) 44.696820000000000 -73.541490000000000 71628
Tue Oct 25 00:00:00 GMT 2016 rshuman Red maple Acer rubrum Leaves Unfolding (Late) 44.696820000000000 -73.541490000000000 71629
Tue Oct 25 00:00:00 GMT 2016 rshuman Red maple Acer rubrum Leaves Dropping (Late) 44.696820000000000 -73.541490000000000 71630
Tue Oct 25 00:00:00 GMT 2016 rshuman Red maple Acer rubrum Flowers (None) 44.696820000000000 -73.541490000000000 71631
Tue Oct 25 00:00:00 GMT 2016 rshuman Red maple Acer rubrum Leaves Changing Color (Late) 44.696820000000000 -73.541490000000000 71632
Tue Oct 25 00:00:00 GMT 2016 rshuman Red maple Acer rubrum Fruit (None) 44.696820000000000 -73.541490000000000 71633
Tue Oct 25 00:00:00 GMT 2016 rshuman Red maple Acer rubrum Leaves Dropping (Late) 44.696820000000000 -73.541490000000000 71634
Tue Oct 25 00:00:00 GMT 2016 rshuman Red maple Acer rubrum Flowers (None) 44.696820000000000 -73.541490000000000 71635
Tue Oct 25 00:00:00 GMT 2016 rshuman Red maple Acer rubrum Fruit (None) 44.696820000000000 -73.541490000000000 71636
Mon Oct 31 00:00:00 GMT 2016 rshuman Red maple Acer rubrum Leaves Unfolding (None) 44.737010000000000 -73.635780000000000 71821
Mon Oct 31 00:00:00 GMT 2016 rshuman Red maple Acer rubrum Leaves Changing Color (Late) 44.737010000000000 -73.635780000000000 71822
Mon Oct 31 00:00:00 GMT 2016 rshuman Red maple Acer rubrum Leaves Dropping (Early) 44.737010000000000 -73.635780000000000 71823
Mon Oct 31 00:00:00 GMT 2016 rshuman Red maple Acer rubrum Flowers (None) 44.737010000000000 -73.635780000000000 71824
Mon Oct 31 00:00:00 GMT 2016 rshuman Red maple Acer rubrum Fruit (None) 44.737010000000000 -73.635780000000000 71825
Mon Oct 31 00:00:00 GMT 2016 rshuman Red maple Acer rubrum Leaves Unfolding (Middle) 44.666804000000000 -73.727553000000000 72010
Mon Oct 31 00:00:00 GMT 2016 rshuman Red maple Acer rubrum Leaves Changing Color (Late) 44.666804000000000 -73.727553000000000 72011
Mon Oct 31 00:00:00 GMT 2016 rshuman Red maple Acer rubrum Leaves Dropping (Middle) 44.666804000000000 -73.727553000000000 72012
Mon Oct 31 00:00:00 GMT 2016 rshuman Red maple Acer rubrum Flowers (None) 44.666804000000000 -73.727553000000000 72013
Mon Oct 31 00:00:00 GMT 2016 rshuman Red maple Acer rubrum Fruit (None) 44.666804000000000 -73.727553000000000 72014
Thu Oct 20 00:00:00 GMT 2016 MrHorambe Red maple Acer rubrum Leaves Unfolding (Early) 37.236944000000000 -79.411389000000000 72144
Thu Oct 20 00:00:00 GMT 2016 MrHorambe Red maple Acer rubrum Leaves Changing Color (None) 37.236944000000000 -79.411389000000000 72145
Thu Oct 20 00:00:00 GMT 2016 MrHorambe Red maple Acer rubrum Leaves Dropping (Early) 37.236944000000000 -79.411389000000000 72146
Thu Oct 20 00:00:00 GMT 2016 MrHorambe Red maple Acer rubrum Flowers (None) 37.236944000000000 -79.411389000000000 72147
Thu Oct 20 00:00:00 GMT 2016 MrHorambe Red maple Acer rubrum Fruit (None) 37.236944000000000 -79.411389000000000 72148
Tue Nov 01 00:00:00 GMT 2016 MrHorambe Red maple Acer rubrum Leaves Unfolding (Late) 37.236944000000000 -79.411389000000000 72151
Tue Nov 01 00:00:00 GMT 2016 MrHorambe Red maple Acer rubrum Leaves Changing Color (Early) 37.236944000000000 -79.411389000000000 72152
Tue Nov 01 00:00:00 GMT 2016 MrHorambe Red maple Acer rubrum Leaves Dropping (Early) 37.236944000000000 -79.411389000000000 72153
Tue Nov 01 00:00:00 GMT 2016 MrHorambe Red maple Acer rubrum Flowers (None) 37.236944000000000 -79.411389000000000 72154
Tue Nov 01 00:00:00 GMT 2016 MrHorambe Red maple Acer rubrum Fruit (None) 37.236944000000000 -79.411389000000000 72155
Tue Oct 18 00:00:00 GMT 2016 Audubon Red maple Acer rubrum 50% Color 40.545200000000000 -79.907400000000000 72217
Thu Oct 20 00:00:00 GMT 2016 Audubon Red maple Acer rubrum 50% Leaf Fall 40.545200000000000 -79.907400000000000 72218
Wed Nov 02 00:00:00 GMT 2016 Skittycat Red maple Acer rubrum Leaves Unfolding (Late) 39.773549000000000 -75.502802000000000 72246
Wed Nov 02 00:00:00 GMT 2016 Skittycat Red maple Acer rubrum Leaves Changing Color (Middle) 39.773549000000000 -75.502802000000000 72247
Wed Nov 02 00:00:00 GMT 2016 Skittycat Red maple Acer rubrum Leaves Dropping (Early) 39.773549000000000 -75.502802000000000 72248
Wed Nov 02 00:00:00 GMT 2016 Skittycat Red maple Acer rubrum Flowers (None) 39.773549000000000 -75.502802000000000 72249
Wed Nov 02 00:00:00 GMT 2016 Skittycat Red maple Acer rubrum Fruit (None) 39.773549000000000 -75.502802000000000 72250
Wed Oct 26 00:00:00 GMT 2016 jrseck4 Red maple Acer rubrum 50% Color 33.983083000000000 -84.384044000000000 72335
Wed Nov 02 00:00:00 GMT 2016 jbrannon Red maple Acer rubrum 50% Color 35.099470000000000 -83.104370000000000 72384
Wed Nov 02 00:00:00 GMT 2016 jbrannon Red maple Acer rubrum 50% Leaf Fall 35.099470000000000 -83.104370000000000 72385
Tue Oct 11 00:00:00 GMT 2016 jbrannon Red maple Acer rubrum 50% Color 35.111910000000000 -83.099640000000000 72556
Wed Oct 26 00:00:00 GMT 2016 jbrannon Red maple Acer rubrum 50% Leaf Fall 35.111910000000000 -83.099640000000000 72557
Sat Oct 29 00:00:00 GMT 2016 bthomps1 Red maple Acer rubrum 50% Leaf Fall 38.195980000000000 -85.534280000000000 72637
Fri Nov 04 00:00:00 GMT 2016 torijoy Red maple Acer rubrum Leaves Unfolding (Late) 40.600990000000000 -73.933300000000000 72656
Fri Nov 04 00:00:00 GMT 2016 torijoy Red maple Acer rubrum Leaves Changing Color (Middle) 40.600990000000000 -73.933300000000000 72657
Fri Nov 04 00:00:00 GMT 2016 torijoy Red maple Acer rubrum Leaves Dropping (Middle) 40.600990000000000 -73.933300000000000 72658
Fri Nov 04 00:00:00 GMT 2016 torijoy Red maple Acer rubrum Flowers (None) 40.600990000000000 -73.933300000000000 72659
Fri Nov 04 00:00:00 GMT 2016 torijoy Red maple Acer rubrum Fruit (None) 40.600990000000000 -73.933300000000000 72660
Mon Nov 07 00:00:00 GMT 2016 gobrechj Red maple Acer rubrum 50% Leaf Fall 39.877642000000000 -76.871568000000000 72705
Mon Nov 07 00:00:00 GMT 2016 gobrechj Red maple Acer rubrum 50% Leaf Fall 39.877642000000000 -76.871568000000000 72706
Mon Nov 07 00:00:00 GMT 2016 AshevilleSchool_Asheville_School_Kehaya_reporter3 Red maple Acer rubrum Bud Burst 35.566279000000000 -82.621275000000000 72733
Mon Nov 07 00:00:00 GMT 2016 AshevilleSchool_Asheville_School_Kehaya_reporter3 Red maple Acer rubrum 50% Color 35.566279000000000 -82.621275000000000 72734
Mon Nov 07 00:00:00 GMT 2016 AshevilleSchool_Asheville_School_Kehaya_reporter3 Red maple Acer rubrum 50% Leaf Fall 35.566279000000000 -82.621275000000000 72735
Sat Nov 05 00:00:00 GMT 2016 woodsedge Red maple Acer rubrum 50% Color 38.565400000000000 -78.926000000000000 72996
Sat Nov 05 00:00:00 GMT 2016 ahlevato Red maple Acer rubrum 50% Color 39.102060000000000 -86.537450000000000 73283
Wed Nov 09 00:00:00 GMT 2016 ahlevato Red maple Acer rubrum 50% Leaf Fall 39.102060000000000 -86.537450000000000 73284
Mon Oct 24 00:00:00 GMT 2016 Aldaggy Red maple Acer rubrum 50% Color 39.167036000000000 -86.512769000000000 73306
Mon Oct 24 00:00:00 GMT 2016 Aldaggy Red maple Acer rubrum 50% Leaf Fall 39.167036000000000 -86.512769000000000 73307
Thu Oct 27 00:00:00 GMT 2016 mdeleo Red maple Acer rubrum 50% Color 39.184386000000000 -86.516680000000000 73356
Fri Nov 04 00:00:00 GMT 2016 mdeleo Red maple Acer rubrum 50% Leaf Fall 39.184386000000000 -86.516680000000000 73357
Tue Oct 25 00:00:00 GMT 2016 rthobbs Red maple Acer rubrum 50% Color 39.160395000000000 -86.532723000000000 73378
Sun Nov 06 00:00:00 GMT 2016 rthobbs Red maple Acer rubrum 50% Leaf Fall 39.160395000000000 -86.532723000000000 73379
Sat Nov 12 00:00:00 GMT 2016 nadacall Red maple Acer rubrum 50% Color 39.184380000000000 -86.532500000000000 73420
Tue Nov 15 00:00:00 GMT 2016 MrHorambe Red maple Acer rubrum Leaves Unfolding (Late) 37.237000000000000 -79.440000000000000 73489
Tue Nov 15 00:00:00 GMT 2016 MrHorambe Red maple Acer rubrum Leaves Changing Color (Late) 37.237000000000000 -79.440000000000000 73490
Tue Nov 15 00:00:00 GMT 2016 MrHorambe Red maple Acer rubrum Leaves Dropping (Middle) 37.237000000000000 -79.440000000000000 73491
Tue Nov 15 00:00:00 GMT 2016 MrHorambe Red maple Acer rubrum Flowers (None) 37.237000000000000 -79.440000000000000 73492
Tue Nov 15 00:00:00 GMT 2016 MrHorambe Red maple Acer rubrum Fruit (None) 37.237000000000000 -79.440000000000000 73493
Tue Nov 15 00:00:00 GMT 2016 Liana0607 Red maple Acer rubrum Leaves Unfolding (Middle) 40.751850000000000 -73.703000000000000 73541
Tue Nov 15 00:00:00 GMT 2016 Liana0607 Red maple Acer rubrum Leaves Changing Color (Late) 40.751850000000000 -73.703000000000000 73542
Tue Nov 15 00:00:00 GMT 2016 Liana0607 Red maple Acer rubrum Leaves Dropping (Early) 40.751850000000000 -73.703000000000000 73543
Tue Nov 15 00:00:00 GMT 2016 Liana0607 Red maple Acer rubrum Flowers (None) 40.751850000000000 -73.703000000000000 73544
Tue Nov 15 00:00:00 GMT 2016 Liana0607 Red maple Acer rubrum Fruit (None) 40.751850000000000 -73.703000000000000 73545
Wed Nov 02 00:00:00 GMT 2016 kwilkens5 Red maple Acer rubrum Leaves Unfolding (Late) 40.733710000000000 -73.801470000000000 73755
Wed Nov 02 00:00:00 GMT 2016 kwilkens5 Red maple Acer rubrum Leaves Changing Color (Middle) 40.733710000000000 -73.801470000000000 73756
Wed Nov 02 00:00:00 GMT 2016 kwilkens5 Red maple Acer rubrum Leaves Dropping (Early) 40.733710000000000 -73.801470000000000 73757
Wed Nov 02 00:00:00 GMT 2016 kwilkens5 Red maple Acer rubrum Flowers (None) 40.733710000000000 -73.801470000000000 73758
Wed Nov 02 00:00:00 GMT 2016 kwilkens5 Red maple Acer rubrum Fruit (None) 40.733710000000000 -73.801470000000000 73759
Sat Nov 19 00:00:00 GMT 2016 kwilkens5 Red maple Acer rubrum Leaves Unfolding (Late) 40.733710000000000 -73.801470000000000 73760
Sat Nov 19 00:00:00 GMT 2016 kwilkens5 Red maple Acer rubrum Leaves Changing Color (Late) 40.733710000000000 -73.801470000000000 73761
Sat Nov 19 00:00:00 GMT 2016 kwilkens5 Red maple Acer rubrum Leaves Dropping (Middle) 40.733710000000000 -73.801470000000000 73762
Sat Nov 19 00:00:00 GMT 2016 kwilkens5 Red maple Acer rubrum Flowers (None) 40.733710000000000 -73.801470000000000 73763
Sat Nov 19 00:00:00 GMT 2016 kwilkens5 Red maple Acer rubrum Fruit (None) 40.733710000000000 -73.801470000000000 73764
Mon Nov 21 00:00:00 GMT 2016 bkanoy_MS_Gail_Walker_Garden_reporter6 Red maple Acer rubrum First Leaf 35.968516000000000 -78.944390000000000 73824
Fri Nov 18 00:00:00 GMT 2016 bkanoy_MS_Gail_Walker_Garden_reporter6 Red maple Acer rubrum All Leaves Unfolded 35.968516000000000 -78.944390000000000 73825
Fri Nov 18 00:00:00 GMT 2016 bkanoy_MS_Gail_Walker_Garden_reporter6 Red maple Acer rubrum 50% Color 35.968516000000000 -78.944390000000000 73826
Fri Nov 18 00:00:00 GMT 2016 bkanoy_MS_Gail_Walker_Garden_reporter6 Red maple Acer rubrum 50% Leaf Fall 35.968516000000000 -78.944390000000000 73827
Thu Nov 10 00:00:00 GMT 2016 UIndyBIOL155_University_of_Indianapolis_campus_reporter3 Red maple Acer rubrum 50% Color 39.709530000000000 -86.136600000000000 73990
Fri Oct 28 00:00:00 GMT 2016 UIndyBIOL155_University_of_Indianapolis_campus_reporter3 Red maple Acer rubrum 50% Leaf Fall 39.709530000000000 -86.136600000000000 73991
Thu Oct 27 00:00:00 GMT 2016 UIndyBIOL155_University_of_Indianapolis_campus_reporter1 Red maple Acer rubrum 50% Color 39.709530000000000 -86.136600000000000 73992
Thu Oct 27 00:00:00 GMT 2016 UIndyBIOL155_University_of_Indianapolis_campus_reporter1 Red maple Acer rubrum 50% Leaf Fall 39.709530000000000 -86.136600000000000 73993
Thu Nov 03 00:00:00 GMT 2016 UIndyBIOL155_University_of_Indianapolis_campus_reporter4 Red maple Acer rubrum 50% Color 39.709530000000000 -86.136600000000000 74002
Mon Oct 31 00:00:00 GMT 2016 UIndyBIOL155_University_of_Indianapolis_campus_reporter4 Red maple Acer rubrum 50% Leaf Fall 39.709530000000000 -86.136600000000000 74003
Tue Oct 25 00:00:00 GMT 2016 UIndyBIOL155_University_of_Indianapolis_campus_reporter5 Red maple Acer rubrum 50% Color 39.709530000000000 -86.136600000000000 74006
Mon Nov 21 00:00:00 GMT 2016 UIndyBIOL155_University_of_Indianapolis_campus_reporter5 Red maple Acer rubrum 50% Leaf Fall 39.709530000000000 -86.136600000000000 74007
Fri Nov 04 00:00:00 GMT 2016 UIndyBIOL155_University_of_Indianapolis_campus_reporter6 Red maple Acer rubrum 50% Leaf Fall 39.709530000000000 -86.136600000000000 74008
Thu Nov 03 00:00:00 GMT 2016 UIndyBIOL155_University_of_Indianapolis_campus_reporter12 Red maple Acer rubrum 50% Color 39.709530000000000 -86.136600000000000 74032
Thu Nov 10 00:00:00 GMT 2016 UIndyBIOL155_University_of_Indianapolis_campus_reporter12 Red maple Acer rubrum 50% Leaf Fall 39.709530000000000 -86.136600000000000 74033
Mon Oct 31 00:00:00 GMT 2016 UIndyBIOL155_University_of_Indianapolis_campus_reporter8 Red maple Acer rubrum 50% Color 39.709530000000000 -86.136600000000000 74034
Mon Nov 07 00:00:00 GMT 2016 UIndyBIOL155_University_of_Indianapolis_campus_reporter8 Red maple Acer rubrum 50% Leaf Fall 39.709530000000000 -86.136600000000000 74035
Thu Oct 27 00:00:00 GMT 2016 UIndyBIOL155_University_of_Indianapolis_campus_reporter10 Red maple Acer rubrum 50% Color 39.709530000000000 -86.136600000000000 74040
Thu Oct 27 00:00:00 GMT 2016 UIndyBIOL155_University_of_Indianapolis_campus_reporter10 Red maple Acer rubrum 50% Leaf Fall 39.709530000000000 -86.136600000000000 74041
Mon Nov 21 00:00:00 GMT 2016 UIndyBIOL155_University_of_Indianapolis_campus_reporter9 Red maple Acer rubrum 50% Color 39.709530000000000 -86.136600000000000 74044
Mon Nov 21 00:00:00 GMT 2016 UIndyBIOL155_University_of_Indianapolis_campus_reporter9 Red maple Acer rubrum 50% Leaf Fall 39.709530000000000 -86.136600000000000 74045
Mon Nov 07 00:00:00 GMT 2016 UIndyBIOL155_University_of_Indianapolis_campus_reporter7 Red maple Acer rubrum 50% Color 39.709530000000000 -86.136600000000000 74048
Tue Nov 01 00:00:00 GMT 2016 UIndyBIOL155_University_of_Indianapolis_campus_reporter7 Red maple Acer rubrum 50% Leaf Fall 39.709530000000000 -86.136600000000000 74049
Thu Nov 10 00:00:00 GMT 2016 UIndyBIOL155_University_of_Indianapolis_campus_reporter11 Red maple Acer rubrum 50% Color 39.709530000000000 -86.136600000000000 74052
Thu Nov 10 00:00:00 GMT 2016 UIndyBIOL155_University_of_Indianapolis_campus_reporter11 Red maple Acer rubrum 50% Leaf Fall 39.709530000000000 -86.136600000000000 74053
Thu Oct 20 00:00:00 GMT 2016 jacquelinestevens Red maple Acer rubrum Leaves Unfolding (Late) 41.333820000000000 -72.443190000000000 74056
Thu Oct 20 00:00:00 GMT 2016 jacquelinestevens Red maple Acer rubrum Leaves Changing Color (Middle) 41.333820000000000 -72.443190000000000 74057
Thu Oct 20 00:00:00 GMT 2016 jacquelinestevens Red maple Acer rubrum Leaves Dropping (Early) 41.333820000000000 -72.443190000000000 74058
Thu Oct 20 00:00:00 GMT 2016 jacquelinestevens Red maple Acer rubrum Flowers (None) 41.333820000000000 -72.443190000000000 74059
Thu Oct 20 00:00:00 GMT 2016 jacquelinestevens Red maple Acer rubrum Fruit (Middle) 41.333820000000000 -72.443190000000000 74060
Fri Nov 18 00:00:00 GMT 2016 jacquelinestevens Red maple Acer rubrum Leaves Unfolding (Late) 41.333820000000000 -72.443190000000000 74061
Fri Nov 18 00:00:00 GMT 2016 jacquelinestevens Red maple Acer rubrum Leaves Changing Color (Late) 41.333820000000000 -72.443190000000000 74062
Fri Nov 18 00:00:00 GMT 2016 jacquelinestevens Red maple Acer rubrum Leaves Dropping (Late) 41.333820000000000 -72.443190000000000 74063
Fri Nov 18 00:00:00 GMT 2016 jacquelinestevens Red maple Acer rubrum Flowers (Late) 41.333820000000000 -72.443190000000000 74064
Fri Nov 18 00:00:00 GMT 2016 jacquelinestevens Red maple Acer rubrum Fruit (Late) 41.333820000000000 -72.443190000000000 74065
Fri Oct 14 00:00:00 GMT 2016 jacquelinestevens Red maple Acer rubrum Leaves Unfolding (Early) 41.333820000000000 -72.443190000000000 74066
Fri Oct 14 00:00:00 GMT 2016 jacquelinestevens Red maple Acer rubrum Leaves Changing Color (Early) 41.333820000000000 -72.443190000000000 74067
Fri Oct 14 00:00:00 GMT 2016 jacquelinestevens Red maple Acer rubrum Leaves Dropping (Early) 41.333820000000000 -72.443190000000000 74068
Fri Oct 14 00:00:00 GMT 2016 jacquelinestevens Red maple Acer rubrum Flowers (Late) 41.333820000000000 -72.443190000000000 74069
Fri Oct 14 00:00:00 GMT 2016 jacquelinestevens Red maple Acer rubrum Fruit (Middle) 41.333820000000000 -72.443190000000000 74070
Mon Nov 14 00:00:00 GMT 2016 gmesiemore Red maple Acer rubrum 50% Color 35.202147000000000 -81.141093000000000 74123
Tue Nov 22 00:00:00 GMT 2016 gmesiemore Red maple Acer rubrum 50% Leaf Fall 35.202147000000000 -81.141093000000000 74124
Thu Dec 01 00:00:00 GMT 2016 jbrannon Red maple Acer rubrum Bud Burst 35.099470000000000 -83.104370000000000 74146
Mon Nov 07 00:00:00 GMT 2016 jenahart Red maple Acer rubrum 50% Color 39.000000000000000 -86.000000000000000 74167
Fri Oct 14 00:00:00 GMT 2016 UIndyBIOL155_University_of_Indianapolis_campus_reporter27 Red maple Acer rubrum 50% Color 39.709530000000000 -86.136600000000000 74196
Sun Oct 09 00:00:00 GMT 2016 UIndyBIOL155_University_of_Indianapolis_campus_reporter27 Red maple Acer rubrum 50% Leaf Fall 39.709530000000000 -86.136600000000000 74197
Sun Oct 09 00:00:00 GMT 2016 ammedara Red maple Acer rubrum 50% Color 42.013930000000000 -73.096250000000000 74215
Thu Oct 20 00:00:00 GMT 2016 ammedara Red maple Acer rubrum 50% Leaf Fall 42.013930000000000 -73.096250000000000 74216
Wed Apr 20 00:00:00 GMT 2016 reinsteinwoods Red maple Acer rubrum Bud Burst 42.886600000000000 -78.718100000000000 74322
Fri May 06 00:00:00 GMT 2016 reinsteinwoods Red maple Acer rubrum First Leaf 42.886600000000000 -78.718100000000000 74323
Sat Jun 04 00:00:00 GMT 2016 reinsteinwoods Red maple Acer rubrum All Leaves Unfolded 42.886600000000000 -78.718100000000000 74324
Mon Aug 01 00:00:00 GMT 2016 reinsteinwoods Red maple Acer rubrum First Flower 42.886600000000000 -78.718100000000000 74325
Mon Aug 15 00:00:00 GMT 2016 reinsteinwoods Red maple Acer rubrum Full Flower 42.886600000000000 -78.718100000000000 74326
Mon Sep 05 00:00:00 GMT 2016 reinsteinwoods Red maple Acer rubrum First Ripe Fruit 42.886600000000000 -78.718100000000000 74327
Fri Sep 30 00:00:00 GMT 2016 reinsteinwoods Red maple Acer rubrum Full Fruiting 42.886600000000000 -78.718100000000000 74328
Sat Oct 15 00:00:00 GMT 2016 reinsteinwoods Red maple Acer rubrum 50% Color 42.886600000000000 -78.718100000000000 74329
Tue Nov 15 00:00:00 GMT 2016 reinsteinwoods Red maple Acer rubrum 50% Leaf Fall 42.886600000000000 -78.718100000000000 74330
Sun Nov 13 00:00:00 GMT 2016 jrseck4 Red maple Acer rubrum 50% Leaf Fall 33.983083000000000 -84.384044000000000 74489
Wed Nov 30 00:00:00 GMT 2016 LinuxMan Red maple Acer rubrum 50% Leaf Fall 33.991130000000000 -84.451810000000000 74498
Wed Feb 08 00:00:00 GMT 2017 berryan Red maple Acer rubrum First Flower 34.742565000000000 -79.482761000000000 74816
Thu Feb 09 00:00:00 GMT 2017 gmesiemore Red maple Acer rubrum Bud Burst 35.202147000000000 -81.141093000000000 74817
Sat Feb 11 00:00:00 GMT 2017 charflet Red maple Acer rubrum Leaves Unfolding (None) 35.177740000000000 -80.848750000000000 74835
Sat Feb 11 00:00:00 GMT 2017 charflet Red maple Acer rubrum Leaves Changing Color (None) 35.177740000000000 -80.848750000000000 74836
Sat Feb 11 00:00:00 GMT 2017 charflet Red maple Acer rubrum Leaves Dropping (None) 35.177740000000000 -80.848750000000000 74837
Sat Feb 11 00:00:00 GMT 2017 charflet Red maple Acer rubrum Flowers (Early) 35.177740000000000 -80.848750000000000 74838
Sat Feb 11 00:00:00 GMT 2017 charflet Red maple Acer rubrum Fruit (None) 35.177740000000000 -80.848750000000000 74839
Wed Feb 15 00:00:00 GMT 2017 keb015 Red maple Acer rubrum Leaves Unfolding (None) 39.582990000000000 -77.003680000000000 74927
Wed Feb 15 00:00:00 GMT 2017 keb015 Red maple Acer rubrum Leaves Changing Color (None) 39.582990000000000 -77.003680000000000 74928
Wed Feb 15 00:00:00 GMT 2017 keb015 Red maple Acer rubrum Leaves Dropping (Late) 39.582990000000000 -77.003680000000000 74929
Wed Feb 15 00:00:00 GMT 2017 keb015 Red maple Acer rubrum Flowers (None) 39.582990000000000 -77.003680000000000 74930
Wed Feb 15 00:00:00 GMT 2017 keb015 Red maple Acer rubrum Fruit (None) 39.582990000000000 -77.003680000000000 74931
Wed Feb 15 00:00:00 GMT 2017 keb015 Red maple Acer rubrum Bud Burst 39.582990000000000 -77.003680000000000 74932
Mon Feb 20 00:00:00 GMT 2017 CarolPelizzari Red maple Acer rubrum Leaves Unfolding (None) 41.917110000000000 -73.070700000000000 74977
Mon Feb 20 00:00:00 GMT 2017 CarolPelizzari Red maple Acer rubrum Leaves Unfolding (None) 41.917110000000000 -73.070700000000000 74978
Mon Feb 20 00:00:00 GMT 2017 CarolPelizzari Red maple Acer rubrum Leaves Changing Color (None) 41.917110000000000 -73.070700000000000 74979
Mon Feb 20 00:00:00 GMT 2017 CarolPelizzari Red maple Acer rubrum Leaves Dropping (Late) 41.917110000000000 -73.070700000000000 74980
Mon Feb 20 00:00:00 GMT 2017 CarolPelizzari Red maple Acer rubrum Leaves Changing Color (None) 41.917110000000000 -73.070700000000000 74981
Mon Feb 20 00:00:00 GMT 2017 CarolPelizzari Red maple Acer rubrum Flowers (None) 41.917110000000000 -73.070700000000000 74982
Mon Feb 20 00:00:00 GMT 2017 CarolPelizzari Red maple Acer rubrum Leaves Dropping (Late) 41.917110000000000 -73.070700000000000 74983
Mon Feb 20 00:00:00 GMT 2017 CarolPelizzari Red maple Acer rubrum Fruit (None) 41.917110000000000 -73.070700000000000 74984
Mon Feb 20 00:00:00 GMT 2017 CarolPelizzari Red maple Acer rubrum Flowers (None) 41.917110000000000 -73.070700000000000 74985
Mon Feb 20 00:00:00 GMT 2017 CarolPelizzari Red maple Acer rubrum Fruit (None) 41.917110000000000 -73.070700000000000 74986
Thu Feb 23 00:00:00 GMT 2017 bthomps1 Red maple Acer rubrum First Flower 38.195980000000000 -85.534280000000000 75030
Tue Feb 21 00:00:00 GMT 2017 rsafron Red maple Acer rubrum Leaves Unfolding (None) 41.362730000000000 -82.004570000000000 75069
Tue Feb 21 00:00:00 GMT 2017 rsafron Red maple Acer rubrum Leaves Changing Color (None) 41.362730000000000 -82.004570000000000 75070
Tue Feb 21 00:00:00 GMT 2017 rsafron Red maple Acer rubrum Leaves Dropping (None) 41.362730000000000 -82.004570000000000 75071
Tue Feb 21 00:00:00 GMT 2017 rsafron Red maple Acer rubrum Flowers (Early) 41.362730000000000 -82.004570000000000 75072
Tue Feb 21 00:00:00 GMT 2017 rsafron Red maple Acer rubrum Fruit (None) 41.362730000000000 -82.004570000000000 75073
Sat Feb 18 00:00:00 GMT 2017 watershedconnections Red maple Acer rubrum Bud Burst 38.590309000000000 -77.161231000000000 75082
Sat Feb 25 00:00:00 GMT 2017 watershedconnections Red maple Acer rubrum Full Flower 38.590309000000000 -77.161231000000000 75083
Tue Feb 28 00:00:00 GMT 2017 keb015 Red maple Acer rubrum First Leaf 39.582990000000000 -77.003680000000000 75142
Thu Mar 02 00:00:00 GMT 2017 bkanoy_MS_Gail_Walker_Garden_reporter6 Red maple Acer rubrum Bud Burst 35.968516000000000 -78.944390000000000 75158
Thu Mar 02 00:00:00 GMT 2017 bkanoy_MS_Gail_Walker_Garden_reporter6 Red maple Acer rubrum All Leaves Unfolded 35.968516000000000 -78.944390000000000 75159
Mon Feb 27 00:00:00 GMT 2017 bkanoy_MS_Gail_Walker_Garden_reporter6 Red maple Acer rubrum 50% Color 35.968516000000000 -78.944390000000000 75160
Wed Mar 01 00:00:00 GMT 2017 amt27 Red maple Acer rubrum Bud Burst 40.264700000000000 -74.955800000000000 75161
Thu Mar 02 00:00:00 GMT 2017 schroe Red maple Acer rubrum Leaves Unfolding (None) 38.805190000000000 -77.306560000000000 75174
Thu Mar 02 00:00:00 GMT 2017 schroe Red maple Acer rubrum Leaves Changing Color (None) 38.805190000000000 -77.306560000000000 75175
Thu Mar 02 00:00:00 GMT 2017 schroe Red maple Acer rubrum Leaves Dropping (None) 38.805190000000000 -77.306560000000000 75176
Thu Mar 02 00:00:00 GMT 2017 schroe Red maple Acer rubrum Flowers (Middle) 38.805190000000000 -77.306560000000000 75177
Thu Mar 02 00:00:00 GMT 2017 schroe Red maple Acer rubrum Fruit (None) 38.805190000000000 -77.306560000000000 75178
Wed Mar 01 00:00:00 GMT 2017 muskrattown Red maple Acer rubrum First Flower 38.449744000000000 -75.136163000000000 75186
Wed Mar 01 00:00:00 GMT 2017 bthomps1 Red maple Acer rubrum Full Flower 38.195980000000000 -85.534280000000000 75192
Thu Feb 23 00:00:00 GMT 2017 Audubon Red maple Acer rubrum Bud Burst 40.545200000000000 -79.907400000000000 75202
Mon Feb 27 00:00:00 GMT 2017 Audubon Red maple Acer rubrum First Flower 40.545200000000000 -79.907400000000000 75203
Fri Mar 03 00:00:00 GMT 2017 Audubon Red maple Acer rubrum Full Flower 40.545200000000000 -79.907400000000000 75204
Mon Mar 06 00:00:00 GMT 2017 kayrihavens Red maple Acer rubrum Full Flower 42.151900000000000 -87.785500000000000 75315
Fri Mar 10 00:00:00 GMT 2017 esermon Red maple Acer rubrum Bud Burst 47.682350000000000 -122.256780000000000 75421
Wed Mar 08 00:00:00 GMT 2017 woodsedge Red maple Acer rubrum Full Flower 38.565400000000000 -78.926000000000000 75462
Wed Mar 01 00:00:00 GMT 2017 berryan Red maple Acer rubrum Full Flower 34.742565000000000 -79.482761000000000 75498
Thu Mar 09 00:00:00 GMT 2017 FLE_Observers Red maple Acer rubrum Leaves Unfolding (Late) 34.051237000000000 -80.951407000000000 75634
Thu Mar 09 00:00:00 GMT 2017 FLE_Observers Red maple Acer rubrum Leaves Changing Color (None) 34.051237000000000 -80.951407000000000 75635
Thu Mar 09 00:00:00 GMT 2017 FLE_Observers Red maple Acer rubrum Leaves Dropping (None) 34.051237000000000 -80.951407000000000 75636
Thu Mar 09 00:00:00 GMT 2017 FLE_Observers Red maple Acer rubrum Flowers (Late) 34.051237000000000 -80.951407000000000 75637
Thu Mar 09 00:00:00 GMT 2017 FLE_Observers Red maple Acer rubrum Fruit (None) 34.051237000000000 -80.951407000000000 75638
Mon Mar 20 00:00:00 GMT 2017 jonahfischer8 Red maple Acer rubrum Leaves Unfolding (None) 42.385937000000000 -71.228657000000000 75722
Mon Mar 20 00:00:00 GMT 2017 jonahfischer8 Red maple Acer rubrum Leaves Changing Color (Late) 42.385937000000000 -71.228657000000000 75723
Mon Mar 20 00:00:00 GMT 2017 jonahfischer8 Red maple Acer rubrum Leaves Dropping (Late) 42.385937000000000 -71.228657000000000 75724
Mon Mar 20 00:00:00 GMT 2017 jonahfischer8 Red maple Acer rubrum Flowers (None) 42.385937000000000 -71.228657000000000 75725
Mon Mar 20 00:00:00 GMT 2017 jonahfischer8 Red maple Acer rubrum Fruit (None) 42.385937000000000 -71.228657000000000 75726
Wed Mar 22 00:00:00 GMT 2017 robin Red maple Acer rubrum Leaves Unfolding (None) 42.324225000000000 -72.531537000000000 76144
Wed Mar 22 00:00:00 GMT 2017 robin Red maple Acer rubrum Leaves Changing Color (None) 42.324225000000000 -72.531537000000000 76145
Wed Mar 22 00:00:00 GMT 2017 robin Red maple Acer rubrum Leaves Dropping (None) 42.324225000000000 -72.531537000000000 76146
Wed Mar 22 00:00:00 GMT 2017 robin Red maple Acer rubrum Flowers (Early) 42.324225000000000 -72.531537000000000 76147
Wed Mar 22 00:00:00 GMT 2017 robin Red maple Acer rubrum Fruit (None) 42.324225000000000 -72.531537000000000 76148
Thu Mar 23 00:00:00 GMT 2017 jbrannon Red maple Acer rubrum Bud Burst 35.099470000000000 -83.104370000000000 76188
Mon Mar 27 00:00:00 GMT 2017 dmoxley Red maple Acer rubrum Leaves Unfolding (None) 39.179578000000000 -86.519126000000000 76427
Mon Mar 27 00:00:00 GMT 2017 dmoxley Red maple Acer rubrum Leaves Changing Color (None) 39.179578000000000 -86.519126000000000 76428
Mon Mar 27 00:00:00 GMT 2017 dmoxley Red maple Acer rubrum Leaves Dropping (None) 39.179578000000000 -86.519126000000000 76429
Mon Mar 27 00:00:00 GMT 2017 dmoxley Red maple Acer rubrum Flowers (None) 39.179578000000000 -86.519126000000000 76430
Mon Mar 27 00:00:00 GMT 2017 dmoxley Red maple Acer rubrum Fruit (Early) 39.179578000000000 -86.519126000000000 76431
Sun Oct 30 00:00:00 GMT 2016 LinuxMan Red maple Acer rubrum 50% Color 33.991130000000000 -84.451810000000000 76446
Tue Nov 15 00:00:00 GMT 2016 LinuxMan Red maple Acer rubrum 50% Leaf Fall 33.991130000000000 -84.451810000000000 76447
Mon Mar 20 00:00:00 GMT 2017 jrseck4 Red maple Acer rubrum First Leaf 33.983083000000000 -84.384044000000000 76460
Sat Mar 25 00:00:00 GMT 2017 jrseck4 Red maple Acer rubrum All Leaves Unfolded 33.983083000000000 -84.384044000000000 76461
Tue Mar 28 00:00:00 GMT 2017 Gr33nthum6 Red maple Acer rubrum Leaves Unfolding (None) 39.187420000000000 -76.706543000000000 76464
Tue Mar 28 00:00:00 GMT 2017 Gr33nthum6 Red maple Acer rubrum Leaves Changing Color (None) 39.187420000000000 -76.706543000000000 76465
Tue Mar 28 00:00:00 GMT 2017 Gr33nthum6 Red maple Acer rubrum Leaves Dropping (Late) 39.187420000000000 -76.706543000000000 76466
Tue Mar 28 00:00:00 GMT 2017 Gr33nthum6 Red maple Acer rubrum Flowers (Middle) 39.187420000000000 -76.706543000000000 76467
Tue Mar 28 00:00:00 GMT 2017 Gr33nthum6 Red maple Acer rubrum Fruit (None) 39.187420000000000 -76.706543000000000 76468
Thu Mar 30 00:00:00 GMT 2017 EarthKin Red maple Acer rubrum Leaves Unfolding (None) 35.611630000000000 -83.932990000000000 76610
Thu Mar 30 00:00:00 GMT 2017 EarthKin Red maple Acer rubrum Leaves Changing Color (None) 35.611630000000000 -83.932990000000000 76611
Thu Mar 30 00:00:00 GMT 2017 EarthKin Red maple Acer rubrum Leaves Dropping (None) 35.611630000000000 -83.932990000000000 76612
Thu Mar 30 00:00:00 GMT 2017 EarthKin Red maple Acer rubrum Flowers (Middle) 35.611630000000000 -83.932990000000000 76613
Thu Mar 30 00:00:00 GMT 2017 EarthKin Red maple Acer rubrum Fruit (None) 35.611630000000000 -83.932990000000000 76614
Sun Apr 02 00:00:00 GMT 2017 Farmergal Red maple Acer rubrum Bud Burst 42.596439000000000 -71.702099000000000 76746
Thu Mar 30 00:00:00 GMT 2017 smwhite1998 Red maple Acer rubrum Leaves Unfolding (None) 39.162877000000000 -86.516304000000000 76760
Thu Mar 30 00:00:00 GMT 2017 smwhite1998 Red maple Acer rubrum Leaves Changing Color (None) 39.162877000000000 -86.516304000000000 76761
Thu Mar 30 00:00:00 GMT 2017 smwhite1998 Red maple Acer rubrum Leaves Dropping (None) 39.162877000000000 -86.516304000000000 76762
Thu Mar 30 00:00:00 GMT 2017 smwhite1998 Red maple Acer rubrum Flowers (None) 39.162877000000000 -86.516304000000000 76763
Thu Mar 30 00:00:00 GMT 2017 smwhite1998 Red maple Acer rubrum Fruit (None) 39.162877000000000 -86.516304000000000 76764
Sun Feb 26 00:00:00 GMT 2017 smwhite1998 Red maple Acer rubrum Bud Burst 39.165330000000000 -86.526390000000000 76765
Sun Feb 26 00:00:00 GMT 2017 smwhite1998 Red maple Acer rubrum Bud Burst 39.165330000000000 -86.526390000000000 76767
Thu Mar 30 00:00:00 GMT 2017 smwhite1998 Red maple Acer rubrum First Flower 39.165330000000000 -86.526390000000000 76768
Wed Mar 29 00:00:00 GMT 2017 ldanders Red maple Acer rubrum First Flower 35.128600000000000 -80.717750000000000 76816
Fri Dec 02 00:00:00 GMT 2016 ldanders Red maple Acer rubrum 50% Color 35.128600000000000 -80.717750000000000 76817
Fri Dec 02 00:00:00 GMT 2016 ldanders Red maple Acer rubrum 50% Leaf Fall 35.128600000000000 -80.717750000000000 76818
Tue Apr 04 00:00:00 GMT 2017 abbysmith26 Red maple Acer rubrum Leaves Unfolding (Early) 39.810470000000000 -77.021630000000000 76839
Tue Apr 04 00:00:00 GMT 2017 abbysmith26 Red maple Acer rubrum Leaves Changing Color (None) 39.810470000000000 -77.021630000000000 76840
Tue Apr 04 00:00:00 GMT 2017 abbysmith26 Red maple Acer rubrum Leaves Dropping (None) 39.810470000000000 -77.021630000000000 76841
Tue Apr 04 00:00:00 GMT 2017 abbysmith26 Red maple Acer rubrum Flowers (Middle) 39.810470000000000 -77.021630000000000 76842
Tue Apr 04 00:00:00 GMT 2017 abbysmith26 Red maple Acer rubrum Fruit (None) 39.810470000000000 -77.021630000000000 76843
Sun Apr 02 00:00:00 GMT 2017 hannahstinson15 Red maple Acer rubrum Bud Burst 40.724250000000000 -73.794590000000000 76860
Sun Apr 02 00:00:00 GMT 2017 hannahstinson15 Red maple Acer rubrum Leaves Unfolding (None) 40.724250000000000 -73.794590000000000 76861
Sun Apr 02 00:00:00 GMT 2017 hannahstinson15 Red maple Acer rubrum Leaves Changing Color (None) 40.724250000000000 -73.794590000000000 76862
Sun Apr 02 00:00:00 GMT 2017 hannahstinson15 Red maple Acer rubrum Leaves Dropping (None) 40.724250000000000 -73.794590000000000 76863
Sun Apr 02 00:00:00 GMT 2017 hannahstinson15 Red maple Acer rubrum Flowers (None) 40.724250000000000 -73.794590000000000 76864
Sun Apr 02 00:00:00 GMT 2017 hannahstinson15 Red maple Acer rubrum Fruit (None) 40.724250000000000 -73.794590000000000 76865
Wed Feb 15 00:00:00 GMT 2017 cbemerick Red maple Acer rubrum Bud Burst 39.170490000000000 -86.513220000000000 76939
Mon Feb 27 00:00:00 GMT 2017 cbemerick Red maple Acer rubrum First Flower 39.170490000000000 -86.513220000000000 76940
Fri Feb 17 00:00:00 GMT 2017 abigailcompton Red maple Acer rubrum Bud Burst 39.152700000000000 -86.492650000000000 76963
Tue Feb 21 00:00:00 GMT 2017 rachelclark Red maple Acer rubrum Bud Burst 39.166581000000000 -86.512562000000000 76979
Tue Apr 04 00:00:00 GMT 2017 rachelclark Red maple Acer rubrum First Flower 39.166581000000000 -86.512562000000000 76980
Thu Apr 06 00:00:00 GMT 2017 rachelclark Red maple Acer rubrum Full Flower 39.166581000000000 -86.512562000000000 76981
Tue Mar 28 00:00:00 GMT 2017 rachelclark Red maple Acer rubrum First Ripe Fruit 39.166581000000000 -86.512562000000000 76982
Tue Apr 04 00:00:00 GMT 2017 rachelclark Red maple Acer rubrum Full Fruiting 39.166581000000000 -86.512562000000000 76983
Tue Mar 21 00:00:00 GMT 2017 greenmee Red maple Acer rubrum Bud Burst 39.168608000000000 -86.514743000000000 77001
Thu Mar 30 00:00:00 GMT 2017 greenmee Red maple Acer rubrum First Ripe Fruit 39.168608000000000 -86.514743000000000 77002
Fri Mar 31 00:00:00 GMT 2017 stczarne Red maple Acer rubrum Bud Burst 39.169847000000000 -86.521709000000000 77047
Tue Feb 28 00:00:00 GMT 2017 alexabowman Red maple Acer rubrum Bud Burst 39.166495000000000 -86.526140000000000 77131
Wed Mar 22 00:00:00 GMT 2017 alexabowman Red maple Acer rubrum First Flower 39.166495000000000 -86.526140000000000 77132
Mon Mar 27 00:00:00 GMT 2017 alexabowman Red maple Acer rubrum Bud Burst 39.173865000000000 -86.535957000000000 77145
Thu Feb 02 00:00:00 GMT 2017 goodse Red maple Acer rubrum Bud Burst 39.184130000000000 -86.517301000000000 77191
Sun Apr 02 00:00:00 GMT 2017 goodse Red maple Acer rubrum First Leaf 39.184130000000000 -86.517301000000000 77192
Sat Mar 04 00:00:00 GMT 2017 goodse Red maple Acer rubrum First Ripe Fruit 39.184130000000000 -86.517301000000000 77193
Sun Apr 02 00:00:00 GMT 2017 goodse Red maple Acer rubrum Full Fruiting 39.184130000000000 -86.517301000000000 77194
Wed Feb 15 00:00:00 GMT 2017 verodavi Red maple Acer rubrum Bud Burst 39.173429000000000 -86.515391000000000 77206
Wed Feb 22 00:00:00 GMT 2017 verodavi Red maple Acer rubrum First Flower 39.173429000000000 -86.515391000000000 77207
Mon Feb 27 00:00:00 GMT 2017 verodavi Red maple Acer rubrum Full Flower 39.173429000000000 -86.515391000000000 77208
Wed Feb 22 00:00:00 GMT 2017 verodavi Red maple Acer rubrum First Ripe Fruit 39.173429000000000 -86.515391000000000 77209
Mon Feb 27 00:00:00 GMT 2017 verodavi Red maple Acer rubrum Full Fruiting 39.173429000000000 -86.515391000000000 77210
Wed Feb 22 00:00:00 GMT 2017 verodavi Red maple Acer rubrum 50% Color 39.173429000000000 -86.515391000000000 77211
Wed Feb 15 00:00:00 GMT 2017 verodavi Red maple Acer rubrum Bud Burst 39.173409000000000 -86.514822000000000 77213
Wed Feb 15 00:00:00 GMT 2017 verodavi Red maple Acer rubrum First Flower 39.173409000000000 -86.514822000000000 77214
Mon Feb 27 00:00:00 GMT 2017 verodavi Red maple Acer rubrum Full Flower 39.173409000000000 -86.514822000000000 77215
Wed Feb 15 00:00:00 GMT 2017 verodavi Red maple Acer rubrum First Ripe Fruit 39.173409000000000 -86.514822000000000 77216
Mon Feb 27 00:00:00 GMT 2017 verodavi Red maple Acer rubrum Full Fruiting 39.173409000000000 -86.514822000000000 77217
Wed Feb 15 00:00:00 GMT 2017 verodavi Red maple Acer rubrum 50% Color 39.173409000000000 -86.514822000000000 77218
Mon Feb 27 00:00:00 GMT 2017 oturi Red maple Acer rubrum Bud Burst 39.170510000000000 -86.513490000000000 77229
Sat Apr 01 00:00:00 GMT 2017 oturi Red maple Acer rubrum First Flower 39.170510000000000 -86.513490000000000 77230
Mon Feb 27 00:00:00 GMT 2017 oturi Red maple Acer rubrum Bud Burst 39.170510000000000 -86.513490000000000 77231
Sat Apr 01 00:00:00 GMT 2017 oturi Red maple Acer rubrum First Flower 39.170510000000000 -86.513490000000000 77232
Sat Apr 01 00:00:00 GMT 2017 oturi Red maple Acer rubrum Full Fruiting 39.170510000000000 -86.513490000000000 77233
Sat Apr 08 00:00:00 GMT 2017 malayden Red maple Acer rubrum Leaves Unfolding (Early) 40.000000000000000 -100.000000000000000 77245
Sat Apr 08 00:00:00 GMT 2017 malayden Red maple Acer rubrum Leaves Changing Color (None) 40.000000000000000 -100.000000000000000 77246
Sat Apr 08 00:00:00 GMT 2017 malayden Red maple Acer rubrum Leaves Dropping (None) 40.000000000000000 -100.000000000000000 77247
Sat Apr 08 00:00:00 GMT 2017 malayden Red maple Acer rubrum Flowers (Early) 40.000000000000000 -100.000000000000000 77248
Sat Apr 08 00:00:00 GMT 2017 malayden Red maple Acer rubrum Fruit (Early) 40.000000000000000 -100.000000000000000 77249
Thu Feb 16 00:00:00 GMT 2017 bpospych Red maple Acer rubrum Bud Burst 39.166692000000000 -86.525611000000000 77280
Wed Mar 29 00:00:00 GMT 2017 bpospych Red maple Acer rubrum First Ripe Fruit 39.166692000000000 -86.525611000000000 77281
Mon Apr 10 00:00:00 GMT 2017 harleyschool Red maple Acer rubrum Leaves Unfolding (None) 43.120190000000000 -77.549770000000000 77296
Mon Apr 10 00:00:00 GMT 2017 harleyschool Red maple Acer rubrum Leaves Changing Color (None) 43.120190000000000 -77.549770000000000 77297
Mon Apr 10 00:00:00 GMT 2017 harleyschool Red maple Acer rubrum Leaves Dropping (None) 43.120190000000000 -77.549770000000000 77298
Mon Apr 10 00:00:00 GMT 2017 harleyschool Red maple Acer rubrum Flowers (None) 43.120190000000000 -77.549770000000000 77299
Mon Apr 10 00:00:00 GMT 2017 harleyschool Red maple Acer rubrum Fruit (None) 43.120190000000000 -77.549770000000000 77300
Mon Apr 10 00:00:00 GMT 2017 harleyschool Red maple Acer rubrum Leaves Unfolding (None) 43.120190000000000 -77.549770000000000 77306
Mon Apr 10 00:00:00 GMT 2017 harleyschool Red maple Acer rubrum Leaves Changing Color (None) 43.120190000000000 -77.549770000000000 77307
Mon Apr 10 00:00:00 GMT 2017 harleyschool Red maple Acer rubrum Leaves Dropping (None) 43.120190000000000 -77.549770000000000 77308
Mon Apr 10 00:00:00 GMT 2017 harleyschool Red maple Acer rubrum Flowers (None) 43.120190000000000 -77.549770000000000 77309
Mon Apr 10 00:00:00 GMT 2017 harleyschool Red maple Acer rubrum Fruit (None) 43.120190000000000 -77.549770000000000 77310
Sun Apr 09 00:00:00 GMT 2017 Farmergal Red maple Acer rubrum First Flower 42.596439000000000 -71.702099000000000 77336
Mon Apr 10 00:00:00 GMT 2017 gobrechj Red maple Acer rubrum Bud Burst 39.877642000000000 -76.871568000000000 77338
Mon Apr 10 00:00:00 GMT 2017 harleyschool Red maple Acer rubrum Leaves Unfolding (None) 43.120219000000000 -77.549787000000000 77354
Mon Apr 10 00:00:00 GMT 2017 harleyschool Red maple Acer rubrum Leaves Changing Color (None) 43.120219000000000 -77.549787000000000 77355
Mon Apr 10 00:00:00 GMT 2017 harleyschool Red maple Acer rubrum Leaves Dropping (None) 43.120219000000000 -77.549787000000000 77356
Mon Apr 10 00:00:00 GMT 2017 harleyschool Red maple Acer rubrum Flowers (None) 43.120219000000000 -77.549787000000000 77357
Mon Apr 10 00:00:00 GMT 2017 harleyschool Red maple Acer rubrum Fruit (None) 43.120219000000000 -77.549787000000000 77358
Thu Mar 02 00:00:00 GMT 2017 oliviastern Red maple Acer rubrum Bud Burst 39.168240000000000 -86.532070000000000 77394
Thu Mar 09 00:00:00 GMT 2017 oliviastern Red maple Acer rubrum First Flower 39.168240000000000 -86.532070000000000 77395
Wed Apr 05 00:00:00 GMT 2017 oliviastern Red maple Acer rubrum Full Fruiting 39.168240000000000 -86.532070000000000 77396
Thu Mar 09 00:00:00 GMT 2017 sarwright Red maple Acer rubrum Bud Burst 39.168640000000000 -86.517400000000000 77403
Thu Mar 09 00:00:00 GMT 2017 sarwright Red maple Acer rubrum All Leaves Unfolded 39.168640000000000 -86.517400000000000 77404
Thu Mar 09 00:00:00 GMT 2017 sarwright Red maple Acer rubrum First Flower 39.168640000000000 -86.517400000000000 77405
Tue Mar 21 00:00:00 GMT 2017 sarwright Red maple Acer rubrum Full Flower 39.168640000000000 -86.517400000000000 77406
Sat Apr 08 00:00:00 GMT 2017 HoytArb_Hoyt_Arboretum_reporter11 Red maple Acer rubrum Bud Burst 45.515620000000000 -122.715740000000000 77439
Tue Apr 04 00:00:00 GMT 2017 bkanoy_MS_Gail_Walker_Garden_reporter6 Red maple Acer rubrum First Leaf 35.968516000000000 -78.944390000000000 77454
Tue Apr 11 00:00:00 GMT 2017 EnviroBio121 Red maple Acer rubrum Full Flower 41.492380000000000 -71.429200000000000 77589
Mon Apr 10 00:00:00 GMT 2017 wxdude225 Red maple Acer rubrum Bud Burst 43.641470000000000 -70.240880000000000 77635
Wed Apr 12 00:00:00 GMT 2017 Gr33nthum6 Red maple Acer rubrum Leaves Unfolding (Middle) 45.243953000000000 -78.574219000000000 77857
Wed Apr 12 00:00:00 GMT 2017 Gr33nthum6 Red maple Acer rubrum Leaves Changing Color (None) 45.243953000000000 -78.574219000000000 77858
Wed Apr 12 00:00:00 GMT 2017 Gr33nthum6 Red maple Acer rubrum Leaves Dropping (None) 45.243953000000000 -78.574219000000000 77859
Wed Apr 12 00:00:00 GMT 2017 Gr33nthum6 Red maple Acer rubrum Flowers (Late) 45.243953000000000 -78.574219000000000 77860
Wed Apr 12 00:00:00 GMT 2017 Gr33nthum6 Red maple Acer rubrum Fruit (None) 45.243953000000000 -78.574219000000000 77861
Fri Feb 24 00:00:00 GMT 2017 oliviastern Red maple Acer rubrum Bud Burst 39.168240000000000 -86.532070000000000 77884
Sun Feb 26 00:00:00 GMT 2017 oliviastern Red maple Acer rubrum First Flower 39.168240000000000 -86.532070000000000 77885
Thu Apr 13 00:00:00 GMT 2017 Farmergal Red maple Acer rubrum Full Flower 42.596439000000000 -71.702099000000000 77896
Fri Apr 14 00:00:00 GMT 2017 AshevilleSchool Red maple Acer rubrum Bud Burst 35.566279000000000 -82.621275000000000 77923
Fri Apr 14 00:00:00 GMT 2017 AshevilleSchool Red maple Acer rubrum First Leaf 35.566279000000000 -82.621275000000000 77924
Fri Apr 14 00:00:00 GMT 2017 AshevilleSchool Red maple Acer rubrum All Leaves Unfolded 35.564786000000000 -82.624075000000000 77928
Sun Apr 16 00:00:00 GMT 2017 miranda950 Red maple Acer rubrum Leaves Unfolding (Late) 37.436360000000000 -122.116870000000000 78238
Sun Apr 16 00:00:00 GMT 2017 miranda950 Red maple Acer rubrum Leaves Unfolding (Late) 37.436360000000000 -122.116870000000000 78239
Sun Apr 16 00:00:00 GMT 2017 miranda950 Red maple Acer rubrum Leaves Changing Color (None) 37.436360000000000 -122.116870000000000 78240
Sun Apr 16 00:00:00 GMT 2017 miranda950 Red maple Acer rubrum Leaves Changing Color (None) 37.436360000000000 -122.116870000000000 78241
Sun Apr 16 00:00:00 GMT 2017 miranda950 Red maple Acer rubrum Leaves Dropping (None) 37.436360000000000 -122.116870000000000 78242
Sun Apr 16 00:00:00 GMT 2017 miranda950 Red maple Acer rubrum Leaves Dropping (None) 37.436360000000000 -122.116870000000000 78243
Sun Apr 16 00:00:00 GMT 2017 miranda950 Red maple Acer rubrum Flowers (None) 37.436360000000000 -122.116870000000000 78244
Sun Apr 16 00:00:00 GMT 2017 miranda950 Red maple Acer rubrum Flowers (None) 37.436360000000000 -122.116870000000000 78245
Sun Apr 16 00:00:00 GMT 2017 miranda950 Red maple Acer rubrum Fruit (None) 37.436360000000000 -122.116870000000000 78246
Mon Apr 17 00:00:00 GMT 2017 woodsedge Red maple Acer rubrum First Leaf 38.565400000000000 -78.926000000000000 78457
Mon Apr 17 00:00:00 GMT 2017 ntlmrtn932 Red maple Acer rubrum Leaves Unfolding (Middle) 40.144000000000000 -75.115730000000000 78468
Mon Apr 17 00:00:00 GMT 2017 ntlmrtn932 Red maple Acer rubrum Leaves Changing Color (Middle) 40.144000000000000 -75.115730000000000 78469
Mon Apr 17 00:00:00 GMT 2017 ntlmrtn932 Red maple Acer rubrum Leaves Dropping (None) 40.144000000000000 -75.115730000000000 78470
Mon Apr 17 00:00:00 GMT 2017 ntlmrtn932 Red maple Acer rubrum Flowers (None) 40.144000000000000 -75.115730000000000 78471
Mon Apr 17 00:00:00 GMT 2017 ntlmrtn932 Red maple Acer rubrum Fruit (None) 40.144000000000000 -75.115730000000000 78472
Mon Apr 17 00:00:00 GMT 2017 eca2 Red maple Acer rubrum Leaves Unfolding (Early) 37.226909000000000 -80.421093000000000 78493
Mon Apr 17 00:00:00 GMT 2017 eca2 Red maple Acer rubrum Leaves Changing Color (None) 37.226909000000000 -80.421093000000000 78494
Mon Apr 17 00:00:00 GMT 2017 eca2 Red maple Acer rubrum Leaves Dropping (None) 37.226909000000000 -80.421093000000000 78495
Mon Apr 17 00:00:00 GMT 2017 eca2 Red maple Acer rubrum Flowers (None) 37.226909000000000 -80.421093000000000 78496
Mon Apr 17 00:00:00 GMT 2017 eca2 Red maple Acer rubrum Fruit (Early) 37.226909000000000 -80.421093000000000 78497
Sun Apr 16 00:00:00 GMT 2017 katherinehan Red maple Acer rubrum Leaves Unfolding (Late) 37.436464000000000 -122.116041000000000 78498
Sun Apr 16 00:00:00 GMT 2017 katherinehan Red maple Acer rubrum Leaves Changing Color (None) 37.436464000000000 -122.116041000000000 78499
Sun Apr 16 00:00:00 GMT 2017 katherinehan Red maple Acer rubrum Leaves Dropping (None) 37.436464000000000 -122.116041000000000 78500
Sun Apr 16 00:00:00 GMT 2017 katherinehan Red maple Acer rubrum Flowers (None) 37.436464000000000 -122.116041000000000 78501
Sun Apr 16 00:00:00 GMT 2017 katherinehan Red maple Acer rubrum Fruit (None) 37.436464000000000 -122.116041000000000 78502
Sun Apr 16 00:00:00 GMT 2017 katherinehan Red maple Acer rubrum Bud Burst 37.436320000000000 -122.115770000000000 78523
Mon Apr 10 00:00:00 GMT 2017 bthomps1 Red maple Acer rubrum Bud Burst 38.195980000000000 -85.534280000000000 78570
Mon Apr 17 00:00:00 GMT 2017 bthomps1 Red maple Acer rubrum First Leaf 38.195980000000000 -85.534280000000000 78571
Mon Apr 17 00:00:00 GMT 2017 pbb5112 Red maple Acer rubrum Leaves Unfolding (Middle) 40.115490000000000 -75.110290000000000 78621
Mon Apr 17 00:00:00 GMT 2017 pbb5112 Red maple Acer rubrum Leaves Changing Color (Early) 40.115490000000000 -75.110290000000000 78622
Mon Apr 17 00:00:00 GMT 2017 pbb5112 Red maple Acer rubrum Leaves Dropping (None) 40.115490000000000 -75.110290000000000 78623
Mon Apr 17 00:00:00 GMT 2017 pbb5112 Red maple Acer rubrum Flowers (None) 40.115490000000000 -75.110290000000000 78624
Mon Apr 17 00:00:00 GMT 2017 pbb5112 Red maple Acer rubrum Fruit (None) 40.115490000000000 -75.110290000000000 78625
Tue Apr 18 00:00:00 GMT 2017 Caa5451 Red maple Acer rubrum Leaves Unfolding (Middle) 40.245402000000000 -74.941134000000000 78639
Tue Apr 18 00:00:00 GMT 2017 Caa5451 Red maple Acer rubrum Leaves Changing Color (Middle) 40.245402000000000 -74.941134000000000 78640
Tue Apr 18 00:00:00 GMT 2017 Caa5451 Red maple Acer rubrum Leaves Dropping (None) 40.245402000000000 -74.941134000000000 78641
Tue Apr 18 00:00:00 GMT 2017 Caa5451 Red maple Acer rubrum Flowers (None) 40.245402000000000 -74.941134000000000 78642
Tue Apr 18 00:00:00 GMT 2017 Caa5451 Red maple Acer rubrum Fruit (None) 40.245402000000000 -74.941134000000000 78643
Tue Apr 18 00:00:00 GMT 2017 krm5737 Red maple Acer rubrum Leaves Unfolding (Middle) 40.228300000000000 -74.932300000000000 78661
Tue Apr 18 00:00:00 GMT 2017 krm5737 Red maple Acer rubrum Leaves Changing Color (Middle) 40.228300000000000 -74.932300000000000 78662
Tue Apr 18 00:00:00 GMT 2017 krm5737 Red maple Acer rubrum Leaves Dropping (None) 40.228300000000000 -74.932300000000000 78663
Tue Apr 18 00:00:00 GMT 2017 krm5737 Red maple Acer rubrum Flowers (None) 40.228300000000000 -74.932300000000000 78664
Tue Apr 18 00:00:00 GMT 2017 krm5737 Red maple Acer rubrum Fruit (None) 40.228300000000000 -74.932300000000000 78665
Tue Apr 18 00:00:00 GMT 2017 txm5450 Red maple Acer rubrum Leaves Unfolding (Middle) 40.237280000000000 -74.937820000000000 78671
Tue Apr 18 00:00:00 GMT 2017 txm5450 Red maple Acer rubrum Leaves Changing Color (Middle) 40.237280000000000 -74.937820000000000 78672
Tue Apr 18 00:00:00 GMT 2017 txm5450 Red maple Acer rubrum Leaves Dropping (None) 40.237280000000000 -74.937820000000000 78673
Tue Apr 18 00:00:00 GMT 2017 txm5450 Red maple Acer rubrum Flowers (None) 40.237280000000000 -74.937820000000000 78674
Tue Apr 18 00:00:00 GMT 2017 txm5450 Red maple Acer rubrum Fruit (None) 40.237280000000000 -74.937820000000000 78675
Mon Apr 10 00:00:00 GMT 2017 ivoryttang Red maple Acer rubrum Bud Burst 40.000000000000000 -100.000000000000000 78703
Fri Apr 07 00:00:00 GMT 2017 anniebruggs Red maple Acer rubrum Leaves Unfolding (Middle) 39.168400000000000 -86.514400000000000 78760
Fri Apr 07 00:00:00 GMT 2017 anniebruggs Red maple Acer rubrum Leaves Changing Color (Early) 39.168400000000000 -86.514400000000000 78761
Fri Apr 07 00:00:00 GMT 2017 anniebruggs Red maple Acer rubrum Leaves Dropping (Early) 39.168400000000000 -86.514400000000000 78762
Fri Apr 07 00:00:00 GMT 2017 anniebruggs Red maple Acer rubrum Flowers (Middle) 39.168400000000000 -86.514400000000000 78763
Fri Apr 07 00:00:00 GMT 2017 anniebruggs Red maple Acer rubrum Fruit (None) 39.168400000000000 -86.514400000000000 78764
Sat Apr 22 00:00:00 GMT 2017 aidanchueh Red maple Acer rubrum Leaves Unfolding (Late) 37.443110000000000 -122.134410000000000 79323
Sat Apr 22 00:00:00 GMT 2017 aidanchueh Red maple Acer rubrum Leaves Changing Color (Late) 37.443110000000000 -122.134410000000000 79324
Sat Apr 22 00:00:00 GMT 2017 aidanchueh Red maple Acer rubrum Leaves Dropping (Late) 37.443110000000000 -122.134410000000000 79325
Sat Apr 22 00:00:00 GMT 2017 aidanchueh Red maple Acer rubrum Flowers (None) 37.443110000000000 -122.134410000000000 79326
Sat Apr 22 00:00:00 GMT 2017 aidanchueh Red maple Acer rubrum Fruit (None) 37.443110000000000 -122.134410000000000 79327
Sat Apr 22 00:00:00 GMT 2017 TyLScholarly Red maple Acer rubrum Leaves Unfolding (Middle) 37.428558000000000 -122.130171000000000 79336
Sat Apr 22 00:00:00 GMT 2017 TyLScholarly Red maple Acer rubrum Leaves Changing Color (None) 37.428558000000000 -122.130171000000000 79337
Sat Apr 22 00:00:00 GMT 2017 TyLScholarly Red maple Acer rubrum Leaves Dropping (None) 37.428558000000000 -122.130171000000000 79338
Sat Apr 22 00:00:00 GMT 2017 TyLScholarly Red maple Acer rubrum Flowers (Early) 37.428558000000000 -122.130171000000000 79339
Sat Apr 22 00:00:00 GMT 2017 TyLScholarly Red maple Acer rubrum Fruit (None) 37.428558000000000 -122.130171000000000 79340
Sun Apr 23 00:00:00 GMT 2017 Madelyn2016 Red maple Acer rubrum Leaves Unfolding (Middle) 40.148850000000000 -75.114530000000000 79444
Sun Apr 23 00:00:00 GMT 2017 Madelyn2016 Red maple Acer rubrum Leaves Changing Color (None) 40.148850000000000 -75.114530000000000 79445
Sun Apr 23 00:00:00 GMT 2017 Madelyn2016 Red maple Acer rubrum Leaves Dropping (None) 40.148850000000000 -75.114530000000000 79446
Sun Apr 23 00:00:00 GMT 2017 Madelyn2016 Red maple Acer rubrum Flowers (None) 40.148850000000000 -75.114530000000000 79447
Sun Apr 23 00:00:00 GMT 2017 Madelyn2016 Red maple Acer rubrum Fruit (None) 40.148850000000000 -75.114530000000000 79448
Sun Apr 23 00:00:00 GMT 2017 Cynthiado Red maple Acer rubrum Bud Burst 37.688970000000000 -122.155990000000000 79495
Thu Mar 16 00:00:00 GMT 2017 Cynthiado Red maple Acer rubrum First Leaf 37.688970000000000 -122.155990000000000 79496
Sun Apr 16 00:00:00 GMT 2017 Cynthiado Red maple Acer rubrum All Leaves Unfolded 37.688970000000000 -122.155990000000000 79497
Tue Apr 04 00:00:00 GMT 2017 Cynthiado Red maple Acer rubrum 50% Color 37.688970000000000 -122.155990000000000 79498
Sun Apr 23 00:00:00 GMT 2017 Cynthiado Red maple Acer rubrum Leaves Unfolding (Late) 37.688970000000000 -122.155990000000000 79514
Sun Apr 23 00:00:00 GMT 2017 Cynthiado Red maple Acer rubrum Leaves Changing Color (Late) 37.688970000000000 -122.155990000000000 79515
Sun Apr 23 00:00:00 GMT 2017 Cynthiado Red maple Acer rubrum Leaves Dropping (None) 37.688970000000000 -122.155990000000000 79516
Sun Apr 23 00:00:00 GMT 2017 Cynthiado Red maple Acer rubrum Flowers (None) 37.688970000000000 -122.155990000000000 79517
Sun Apr 23 00:00:00 GMT 2017 Cynthiado Red maple Acer rubrum Fruit (None) 37.688970000000000 -122.155990000000000 79518
Sun Apr 16 00:00:00 GMT 2017 sophiejacobb Red maple Acer rubrum All Leaves Unfolded 37.449160000000000 -122.151630000000000 79542
Sun Apr 23 00:00:00 GMT 2017 sophiejacobb Red maple Acer rubrum First Flower 37.449160000000000 -122.151630000000000 79544
Mon Apr 24 00:00:00 GMT 2017 gobrechj Red maple Acer rubrum First Leaf 39.877642000000000 -76.871568000000000 79767
Wed Apr 19 00:00:00 GMT 2017 woodsedge Red maple Acer rubrum All Leaves Unfolded 38.565400000000000 -78.926000000000000 79792
Mon Apr 24 00:00:00 GMT 2017 szz5246 Red maple Acer rubrum Leaves Unfolding (Late) 40.053080000000000 -75.070780000000000 79840
Mon Apr 24 00:00:00 GMT 2017 szz5246 Red maple Acer rubrum Leaves Changing Color (None) 40.053080000000000 -75.070780000000000 79841
Mon Apr 24 00:00:00 GMT 2017 szz5246 Red maple Acer rubrum Leaves Dropping (None) 40.053080000000000 -75.070780000000000 79842
Mon Apr 24 00:00:00 GMT 2017 szz5246 Red maple Acer rubrum Flowers (Early) 40.053080000000000 -75.070780000000000 79843
Mon Apr 24 00:00:00 GMT 2017 szz5246 Red maple Acer rubrum Fruit (None) 40.053080000000000 -75.070780000000000 79844
Sun May 08 00:00:00 GMT 2016 BMBTREE Red maple Acer rubrum Bud Burst 42.237605000000000 -71.776031000000000 80009
Tue May 10 00:00:00 GMT 2016 BMBTREE Red maple Acer rubrum First Leaf 42.237605000000000 -71.776031000000000 80010
Wed Mar 22 00:00:00 GMT 2017 mmilne_University_of_Indianapolis_reporter11 Red maple Acer rubrum Bud Burst 39.709650000000000 -86.134770000000000 80195
Wed Mar 29 00:00:00 GMT 2017 mmilne_University_of_Indianapolis_reporter11 Red maple Acer rubrum First Leaf 39.709650000000000 -86.134770000000000 80196
Wed Apr 05 00:00:00 GMT 2017 mmilne_University_of_Indianapolis_reporter11 Red maple Acer rubrum All Leaves Unfolded 39.709650000000000 -86.134770000000000 80197
Wed Apr 19 00:00:00 GMT 2017 mmilne_University_of_Indianapolis_reporter5 Red maple Acer rubrum Bud Burst 39.709650000000000 -86.134770000000000 80201
Thu Mar 31 00:00:00 GMT 2016 mmilne_University_of_Indianapolis_reporter5 Red maple Acer rubrum First Leaf 39.709650000000000 -86.134770000000000 80202
Wed Apr 19 00:00:00 GMT 2017 mmilne_University_of_Indianapolis_reporter5 Red maple Acer rubrum All Leaves Unfolded 39.709650000000000 -86.134770000000000 80203
Wed Apr 12 00:00:00 GMT 2017 mmilne_University_of_Indianapolis_reporter5 Red maple Acer rubrum 50% Color 39.709650000000000 -86.134770000000000 80204
Wed Apr 05 00:00:00 GMT 2017 mmilne_University_of_Indianapolis_reporter22 Red maple Acer rubrum Bud Burst 39.709650000000000 -86.134770000000000 80211
Wed Apr 12 00:00:00 GMT 2017 mmilne_University_of_Indianapolis_reporter22 Red maple Acer rubrum First Leaf 39.709650000000000 -86.134770000000000 80212
Wed Apr 19 00:00:00 GMT 2017 mmilne_University_of_Indianapolis_reporter22 Red maple Acer rubrum All Leaves Unfolded 39.709650000000000 -86.134770000000000 80213
Wed Apr 12 00:00:00 GMT 2017 mmilne_University_of_Indianapolis_reporter22 Red maple Acer rubrum Full Flower 39.709650000000000 -86.134770000000000 80214
Wed Apr 19 00:00:00 GMT 2017 mmilne_University_of_Indianapolis_reporter22 Red maple Acer rubrum 50% Color 39.709650000000000 -86.134770000000000 80215
Wed Mar 15 00:00:00 GMT 2017 mmilne_University_of_Indianapolis_reporter12 Red maple Acer rubrum Bud Burst 39.709650000000000 -86.134770000000000 80225
Wed Mar 29 00:00:00 GMT 2017 mmilne_University_of_Indianapolis_reporter12 Red maple Acer rubrum First Leaf 39.709650000000000 -86.134770000000000 80226
Wed Apr 19 00:00:00 GMT 2017 mmilne_University_of_Indianapolis_reporter12 Red maple Acer rubrum All Leaves Unfolded 39.709650000000000 -86.134770000000000 80227
Wed Apr 05 00:00:00 GMT 2017 mmilne_University_of_Indianapolis_reporter21 Red maple Acer rubrum Bud Burst 39.709650000000000 -86.134770000000000 80228
Wed Apr 12 00:00:00 GMT 2017 mmilne_University_of_Indianapolis_reporter21 Red maple Acer rubrum First Leaf 39.709650000000000 -86.134770000000000 80229
Wed Apr 19 00:00:00 GMT 2017 mmilne_University_of_Indianapolis_reporter21 Red maple Acer rubrum All Leaves Unfolded 39.709650000000000 -86.134770000000000 80230
Wed Apr 19 00:00:00 GMT 2017 mmilne_University_of_Indianapolis_reporter21 Red maple Acer rubrum 50% Color 39.709650000000000 -86.134770000000000 80231
Wed Mar 01 00:00:00 GMT 2017 mmilne_University_of_Indianapolis_reporter7 Red maple Acer rubrum Bud Burst 39.709650000000000 -86.134770000000000 80242
Wed Mar 01 00:00:00 GMT 2017 mmilne_University_of_Indianapolis_reporter7 Red maple Acer rubrum First Leaf 39.709650000000000 -86.134770000000000 80243
Wed Apr 05 00:00:00 GMT 2017 mmilne_University_of_Indianapolis_reporter7 Red maple Acer rubrum All Leaves Unfolded 39.709650000000000 -86.134770000000000 80244
Wed Mar 15 00:00:00 GMT 2017 mmilne_University_of_Indianapolis_reporter7 Red maple Acer rubrum First Flower 39.709650000000000 -86.134770000000000 80245
Wed Mar 29 00:00:00 GMT 2017 mmilne_University_of_Indianapolis_reporter7 Red maple Acer rubrum Full Flower 39.709650000000000 -86.134770000000000 80246
Wed Apr 05 00:00:00 GMT 2017 mmilne_University_of_Indianapolis_reporter7 Red maple Acer rubrum 50% Color 39.709650000000000 -86.134770000000000 80247
Sun Mar 12 00:00:00 GMT 2017 mmilne_University_of_Indianapolis_reporter3 Red maple Acer rubrum Bud Burst 39.709650000000000 -86.134770000000000 80251
Sun Mar 26 00:00:00 GMT 2017 mmilne_University_of_Indianapolis_reporter3 Red maple Acer rubrum First Leaf 39.709650000000000 -86.134770000000000 80252
Wed Apr 19 00:00:00 GMT 2017 mmilne_University_of_Indianapolis_reporter3 Red maple Acer rubrum All Leaves Unfolded 39.709650000000000 -86.134770000000000 80253
Wed Apr 12 00:00:00 GMT 2017 mmilne_University_of_Indianapolis_reporter3 Red maple Acer rubrum First Flower 39.709650000000000 -86.134770000000000 80254
Wed Apr 19 00:00:00 GMT 2017 mmilne_University_of_Indianapolis_reporter3 Red maple Acer rubrum Full Flower 39.709650000000000 -86.134770000000000 80255
Wed Apr 12 00:00:00 GMT 2017 mmilne_University_of_Indianapolis_reporter3 Red maple Acer rubrum First Ripe Fruit 39.709650000000000 -86.134770000000000 80256
Wed Apr 19 00:00:00 GMT 2017 mmilne_University_of_Indianapolis_reporter3 Red maple Acer rubrum Full Fruiting 39.709650000000000 -86.134770000000000 80257
Wed Jan 25 00:00:00 GMT 2017 mmilne_University_of_Indianapolis_reporter6 Red maple Acer rubrum Bud Burst 39.709650000000000 -86.134770000000000 80267
Thu Mar 09 00:00:00 GMT 2017 mmilne_University_of_Indianapolis_reporter6 Red maple Acer rubrum First Leaf 39.709650000000000 -86.134770000000000 80268
Mon Apr 03 00:00:00 GMT 2017 mmilne_University_of_Indianapolis_reporter6 Red maple Acer rubrum All Leaves Unfolded 39.709650000000000 -86.134770000000000 80269
Sun Mar 05 00:00:00 GMT 2017 mmilne_University_of_Indianapolis_reporter6 Red maple Acer rubrum First Flower 39.709650000000000 -86.134770000000000 80270
Mon Apr 24 00:00:00 GMT 2017 mmilne_University_of_Indianapolis_reporter6 Red maple Acer rubrum Full Flower 39.709650000000000 -86.134770000000000 80271
Sun Apr 02 00:00:00 GMT 2017 mmilne_University_of_Indianapolis_reporter6 Red maple Acer rubrum 50% Color 39.709650000000000 -86.134770000000000 80272
Tue Apr 25 00:00:00 GMT 2017 mmilne_University_of_Indianapolis_reporter6 Red maple Acer rubrum 50% Leaf Fall 39.709650000000000 -86.134770000000000 80273
Wed Feb 08 00:00:00 GMT 2017 m_parks28352 Red maple Acer rubrum Leaves Unfolding (Early) 34.743446000000000 -79.479196000000000 80274
Wed Feb 08 00:00:00 GMT 2017 m_parks28352 Red maple Acer rubrum Leaves Changing Color (Early) 34.743446000000000 -79.479196000000000 80275
Wed Feb 08 00:00:00 GMT 2017 m_parks28352 Red maple Acer rubrum Leaves Dropping (None) 34.743446000000000 -79.479196000000000 80276
Wed Feb 08 00:00:00 GMT 2017 m_parks28352 Red maple Acer rubrum Flowers (Early) 34.743446000000000 -79.479196000000000 80277
Wed Feb 08 00:00:00 GMT 2017 m_parks28352 Red maple Acer rubrum Fruit (None) 34.743446000000000 -79.479196000000000 80278
Tue Apr 04 00:00:00 GMT 2017 brayan28 Red maple Acer rubrum Leaves Unfolding (Middle) 34.743014000000000 -79.482773000000000 80290
Tue Apr 04 00:00:00 GMT 2017 brayan28 Red maple Acer rubrum Leaves Changing Color (None) 34.743014000000000 -79.482773000000000 80291
Tue Apr 04 00:00:00 GMT 2017 brayan28 Red maple Acer rubrum Leaves Dropping (None) 34.743014000000000 -79.482773000000000 80292
Tue Apr 04 00:00:00 GMT 2017 brayan28 Red maple Acer rubrum Flowers (None) 34.743014000000000 -79.482773000000000 80293
Tue Apr 04 00:00:00 GMT 2017 brayan28 Red maple Acer rubrum Fruit (None) 34.743014000000000 -79.482773000000000 80294
Thu Apr 27 00:00:00 GMT 2017 BMBTREE Red maple Acer rubrum Bud Burst 42.237605000000000 -71.776031000000000 80440
Fri Apr 28 00:00:00 GMT 2017 TyLScholarly Red maple Acer rubrum Leaves Unfolding (None) 37.428733000000000 -122.130214000000000 80588
Fri Apr 28 00:00:00 GMT 2017 TyLScholarly Red maple Acer rubrum Leaves Changing Color (Early) 37.428733000000000 -122.130214000000000 80589
Fri Apr 28 00:00:00 GMT 2017 TyLScholarly Red maple Acer rubrum Leaves Dropping (None) 37.428733000000000 -122.130214000000000 80590
Fri Apr 28 00:00:00 GMT 2017 TyLScholarly Red maple Acer rubrum Flowers (Early) 37.428733000000000 -122.130214000000000 80591
Fri Apr 28 00:00:00 GMT 2017 TyLScholarly Red maple Acer rubrum Fruit (None) 37.428733000000000 -122.130214000000000 80592
Sun Apr 30 00:00:00 GMT 2017 Cynthiado Red maple Acer rubrum Leaves Unfolding (Late) 37.688970000000000 -122.155990000000000 80753
Sun Apr 30 00:00:00 GMT 2017 Cynthiado Red maple Acer rubrum Leaves Changing Color (Middle) 37.688970000000000 -122.155990000000000 80754
Sun Apr 30 00:00:00 GMT 2017 Cynthiado Red maple Acer rubrum Leaves Dropping (Early) 37.688970000000000 -122.155990000000000 80755
Sun Apr 30 00:00:00 GMT 2017 Cynthiado Red maple Acer rubrum Flowers (None) 37.688970000000000 -122.155990000000000 80756
Sun Apr 30 00:00:00 GMT 2017 Cynthiado Red maple Acer rubrum Fruit (None) 37.688970000000000 -122.155990000000000 80757
Wed Feb 08 00:00:00 GMT 2017 m_parks28352 Red maple Acer rubrum Bud Burst 34.742939000000000 -79.478456000000000 80826
Wed Feb 22 00:00:00 GMT 2017 m_parks28352 Red maple Acer rubrum First Leaf 34.742939000000000 -79.478456000000000 80827
Mon May 01 00:00:00 GMT 2017 gobrechj Red maple Acer rubrum All Leaves Unfolded 39.877642000000000 -76.871568000000000 80861
Wed Feb 15 00:00:00 GMT 2017 rainbowtrees Red maple Acer rubrum Bud Burst 35.577300000000000 -82.586256000000000 80883
Mon Apr 10 00:00:00 GMT 2017 rainbowtrees Red maple Acer rubrum First Leaf 35.577300000000000 -82.586256000000000 80884
Mon Apr 17 00:00:00 GMT 2017 rainbowtrees Red maple Acer rubrum All Leaves Unfolded 35.577300000000000 -82.586256000000000 80885
Mon Feb 20 00:00:00 GMT 2017 rainbowtrees Red maple Acer rubrum First Flower 35.577300000000000 -82.586256000000000 80886
Fri Feb 24 00:00:00 GMT 2017 rainbowtrees Red maple Acer rubrum Full Flower 35.577300000000000 -82.586256000000000 80887
Mon May 01 00:00:00 GMT 2017 EnviroBio121 Red maple Acer rubrum First Leaf 41.492380000000000 -71.429200000000000 80964
Mon May 01 00:00:00 GMT 2017 mlmileski0409 Red maple Acer rubrum Bud Burst 39.165330000000000 -86.526390000000000 80981
Thu May 04 00:00:00 GMT 2017 Cynthiado Red maple Acer rubrum Leaves Unfolding (Late) 37.688970000000000 -122.155990000000000 81528
Thu May 04 00:00:00 GMT 2017 Cynthiado Red maple Acer rubrum Leaves Changing Color (Middle) 37.688970000000000 -122.155990000000000 81529
Thu May 04 00:00:00 GMT 2017 Cynthiado Red maple Acer rubrum Leaves Dropping (None) 37.688970000000000 -122.155990000000000 81530
Thu May 04 00:00:00 GMT 2017 Cynthiado Red maple Acer rubrum Flowers (None) 37.688970000000000 -122.155990000000000 81531
Thu May 04 00:00:00 GMT 2017 Cynthiado Red maple Acer rubrum Fruit (None) 37.688970000000000 -122.155990000000000 81532
Thu Apr 27 00:00:00 GMT 2017 HoytArb_Hoyt_Arboretum_reporter11 Red maple Acer rubrum First Leaf 45.515620000000000 -122.715740000000000 81747
Sat May 06 00:00:00 GMT 2017 TyLScholarly Red maple Acer rubrum Leaves Unfolding (Early) 37.428456000000000 -122.130461000000000 81832
Sat May 06 00:00:00 GMT 2017 TyLScholarly Red maple Acer rubrum Leaves Changing Color (None) 37.428456000000000 -122.130461000000000 81833
Sat May 06 00:00:00 GMT 2017 TyLScholarly Red maple Acer rubrum Leaves Dropping (None) 37.428456000000000 -122.130461000000000 81834
Sat May 06 00:00:00 GMT 2017 TyLScholarly Red maple Acer rubrum Flowers (Early) 37.428456000000000 -122.130461000000000 81835
Sat May 06 00:00:00 GMT 2017 TyLScholarly Red maple Acer rubrum Fruit (None) 37.428456000000000 -122.130461000000000 81836
Fri May 05 00:00:00 GMT 2017 Farmergal Red maple Acer rubrum First Leaf 42.596439000000000 -71.702099000000000 81943
Mon May 08 00:00:00 GMT 2017 Farmergal Red maple Acer rubrum All Leaves Unfolded 42.596439000000000 -71.702099000000000 81944
Fri Mar 31 00:00:00 GMT 2017 laurob_St._John's_University__reporter15 Red maple Acer rubrum Bud Burst 40.721400000000000 -73.793200000000000 81966
Wed Apr 05 00:00:00 GMT 2017 laurob_St._John's_University__reporter15 Red maple Acer rubrum First Leaf 40.721400000000000 -73.793200000000000 81967
Tue Apr 11 00:00:00 GMT 2017 laurob_St._John's_University__reporter15 Red maple Acer rubrum All Leaves Unfolded 40.721400000000000 -73.793200000000000 81968
Mon Apr 17 00:00:00 GMT 2017 laurob_St._John's_University__reporter15 Red maple Acer rubrum First Flower 40.721400000000000 -73.793200000000000 81969
Sun Apr 30 00:00:00 GMT 2017 laurob_St._John's_University__reporter15 Red maple Acer rubrum Leaves Unfolding (Middle) 40.718689000000000 -73.797301000000000 81972
Sun Apr 30 00:00:00 GMT 2017 laurob_St._John's_University__reporter15 Red maple Acer rubrum Leaves Changing Color (None) 40.718689000000000 -73.797301000000000 81973
Sun Apr 30 00:00:00 GMT 2017 laurob_St._John's_University__reporter15 Red maple Acer rubrum Leaves Dropping (None) 40.718689000000000 -73.797301000000000 81974
Sun Apr 30 00:00:00 GMT 2017 laurob_St._John's_University__reporter15 Red maple Acer rubrum Flowers (None) 40.718689000000000 -73.797301000000000 81975
Sun Apr 30 00:00:00 GMT 2017 laurob_St._John's_University__reporter15 Red maple Acer rubrum Fruit (None) 40.718689000000000 -73.797301000000000 81976
Sat Apr 15 00:00:00 GMT 2017 TyLScholarly Red maple Acer rubrum Bud Burst 37.428763000000000 -122.129967000000000 82076
Fri Mar 31 00:00:00 GMT 2017 TyLScholarly Red maple Acer rubrum First Leaf 37.428763000000000 -122.129967000000000 82077
Tue Mar 14 00:00:00 GMT 2017 TyLScholarly Red maple Acer rubrum All Leaves Unfolded 37.428763000000000 -122.129967000000000 82078
Sun Feb 05 00:00:00 GMT 2017 TyLScholarly Red maple Acer rubrum First Flower 37.428763000000000 -122.129967000000000 82079
Tue Apr 18 00:00:00 GMT 2017 TyLScholarly Red maple Acer rubrum Full Flower 37.428763000000000 -122.129967000000000 82080
Mon May 01 00:00:00 GMT 2017 TyLScholarly Red maple Acer rubrum First Ripe Fruit 37.428763000000000 -122.129967000000000 82081
Wed Mar 22 00:00:00 GMT 2017 TyLScholarly Red maple Acer rubrum Full Fruiting 37.428763000000000 -122.129967000000000 82082
Thu Mar 23 00:00:00 GMT 2017 TyLScholarly Red maple Acer rubrum 50% Color 37.428763000000000 -122.129967000000000 82083
Wed Mar 22 00:00:00 GMT 2017 TyLScholarly Red maple Acer rubrum 50% Leaf Fall 37.428763000000000 -122.129967000000000 82084

*All downloadable materials require the free Adobe Reader.